<?xml version="1.0" encoding="UTF-8" standalone="no" ?>
<gpx xmlns="http://www.topografix.com/GPX/1/1" xmlns:xsi="http://www.w3.org/2001/XMLSchema-instance" xsi:schemaLocation="http://www.topografix.com/GPX/1/1 http://www.topografix.com/GPX/1/1/gpx.xsd" version="1.1" creator="VisuGPX - https://www.visugpx.com">
  <metadata>
    <name>Le chemin Urbain V</name>
    <desc><![CDATA[Cinquième étape du "Chemin Urbain V%u201D de La Fage à Ispagnac.
Relevé "terrain" avec le logiciel "IphiGeNie" sur un iPad mini.
Pour en savoir plus (photos, commentaires, liens divers) voir notre site :
http://www.la-marche-au-long-cours.fr/crbst_120.html]]></desc>
  </metadata>
  <trk>
    <name><![CDATA[La Fage - Ispagnac]]></name>
    <cmt><![CDATA[28 avr. 2016 08:51:42]]></cmt>
    <trkseg>
      <trkpt lat="44.43324" lon="3.595">
        <ele>1205</ele>
        <time>2016-04-28T06:53:27Z</time>
      </trkpt>
      <trkpt lat="44.43315" lon="3.5945">
        <ele>1222</ele>
        <time>2016-04-28T06:53:29Z</time>
      </trkpt>
      <trkpt lat="44.4331" lon="3.5945">
        <ele>1222</ele>
        <time>2016-04-28T06:53:35Z</time>
      </trkpt>
      <trkpt lat="44.43307" lon="3.59457">
        <ele>1220</ele>
        <time>2016-04-28T06:53:38Z</time>
      </trkpt>
      <trkpt lat="44.43307" lon="3.59465">
        <ele>1217</ele>
        <time>2016-04-28T06:53:42Z</time>
      </trkpt>
      <trkpt lat="44.4331" lon="3.59471">
        <ele>1216</ele>
        <time>2016-04-28T06:53:46Z</time>
      </trkpt>
      <trkpt lat="44.43316" lon="3.59481">
        <ele>1216</ele>
        <time>2016-04-28T06:53:53Z</time>
      </trkpt>
      <trkpt lat="44.43322" lon="3.59485">
        <ele>1216</ele>
        <time>2016-04-28T06:53:58Z</time>
      </trkpt>
      <trkpt lat="44.43328" lon="3.59487">
        <ele>1214</ele>
        <time>2016-04-28T06:54:02Z</time>
      </trkpt>
      <trkpt lat="44.43331" lon="3.59492">
        <ele>1214</ele>
        <time>2016-04-28T06:54:07Z</time>
      </trkpt>
      <trkpt lat="44.43331" lon="3.59499">
        <ele>1214</ele>
        <time>2016-04-28T06:54:15Z</time>
      </trkpt>
      <trkpt lat="44.43329" lon="3.59506">
        <ele>1213</ele>
        <time>2016-04-28T06:54:19Z</time>
      </trkpt>
      <trkpt lat="44.43329" lon="3.5952">
        <ele>1213</ele>
        <time>2016-04-28T06:54:27Z</time>
      </trkpt>
      <trkpt lat="44.43329" lon="3.59527">
        <ele>1213</ele>
        <time>2016-04-28T06:54:32Z</time>
      </trkpt>
      <trkpt lat="44.43334" lon="3.59561">
        <ele>1210</ele>
        <time>2016-04-28T06:54:53Z</time>
      </trkpt>
      <trkpt lat="44.43335" lon="3.59569">
        <ele>1210</ele>
        <time>2016-04-28T06:54:58Z</time>
      </trkpt>
      <trkpt lat="44.43337" lon="3.59575">
        <ele>1210</ele>
        <time>2016-04-28T06:55:02Z</time>
      </trkpt>
      <trkpt lat="44.43347" lon="3.59599">
        <ele>1208</ele>
        <time>2016-04-28T06:55:18Z</time>
      </trkpt>
      <trkpt lat="44.4335" lon="3.59605">
        <ele>1208</ele>
        <time>2016-04-28T06:55:22Z</time>
      </trkpt>
      <trkpt lat="44.43358" lon="3.59624">
        <ele>1210</ele>
        <time>2016-04-28T06:55:37Z</time>
      </trkpt>
      <trkpt lat="44.43371" lon="3.5967">
        <ele>1203</ele>
        <time>2016-04-28T06:56:07Z</time>
      </trkpt>
      <trkpt lat="44.43373" lon="3.59676">
        <ele>1203</ele>
        <time>2016-04-28T06:56:11Z</time>
      </trkpt>
      <trkpt lat="44.43376" lon="3.59682">
        <ele>1202</ele>
        <time>2016-04-28T06:56:15Z</time>
      </trkpt>
      <trkpt lat="44.43386" lon="3.59698">
        <ele>1200</ele>
        <time>2016-04-28T06:56:27Z</time>
      </trkpt>
      <trkpt lat="44.43394" lon="3.59708">
        <ele>1200</ele>
        <time>2016-04-28T06:56:36Z</time>
      </trkpt>
      <trkpt lat="44.43398" lon="3.59711">
        <ele>1200</ele>
        <time>2016-04-28T06:56:40Z</time>
      </trkpt>
      <trkpt lat="44.43402" lon="3.59716">
        <ele>1199</ele>
        <time>2016-04-28T06:56:44Z</time>
      </trkpt>
      <trkpt lat="44.43405" lon="3.5972">
        <ele>1200</ele>
        <time>2016-04-28T06:56:48Z</time>
      </trkpt>
      <trkpt lat="44.43417" lon="3.59735">
        <ele>1200</ele>
        <time>2016-04-28T06:57:00Z</time>
      </trkpt>
      <trkpt lat="44.43422" lon="3.59748">
        <ele>1198</ele>
        <time>2016-04-28T06:57:08Z</time>
      </trkpt>
      <trkpt lat="44.43422" lon="3.59756">
        <ele>1198</ele>
        <time>2016-04-28T06:57:12Z</time>
      </trkpt>
      <trkpt lat="44.43418" lon="3.59767">
        <ele>1199</ele>
        <time>2016-04-28T06:57:18Z</time>
      </trkpt>
      <trkpt lat="44.43403" lon="3.59786">
        <ele>1202</ele>
        <time>2016-04-28T06:57:33Z</time>
      </trkpt>
      <trkpt lat="44.43393" lon="3.5979">
        <ele>1201</ele>
        <time>2016-04-28T06:57:40Z</time>
      </trkpt>
      <trkpt lat="44.43381" lon="3.5979">
        <ele>1200</ele>
        <time>2016-04-28T06:57:48Z</time>
      </trkpt>
      <trkpt lat="44.43376" lon="3.59789">
        <ele>1200</ele>
        <time>2016-04-28T06:57:52Z</time>
      </trkpt>
      <trkpt lat="44.43365" lon="3.59787">
        <ele>1201</ele>
        <time>2016-04-28T06:58:00Z</time>
      </trkpt>
      <trkpt lat="44.43356" lon="3.59788">
        <ele>1200</ele>
        <time>2016-04-28T06:58:09Z</time>
      </trkpt>
      <trkpt lat="44.43352" lon="3.59793">
        <ele>1200</ele>
        <time>2016-04-28T06:58:14Z</time>
      </trkpt>
      <trkpt lat="44.4333" lon="3.59805">
        <ele>1205</ele>
        <time>2016-04-28T06:58:40Z</time>
      </trkpt>
      <trkpt lat="44.4333" lon="3.59811">
        <ele>1205</ele>
        <time>2016-04-28T06:58:47Z</time>
      </trkpt>
      <trkpt lat="44.43333" lon="3.59815">
        <ele>1205</ele>
        <time>2016-04-28T06:58:53Z</time>
      </trkpt>
      <trkpt lat="44.43338" lon="3.59818">
        <ele>1205</ele>
        <time>2016-04-28T06:58:59Z</time>
      </trkpt>
      <trkpt lat="44.43343" lon="3.59821">
        <ele>1205</ele>
        <time>2016-04-28T06:59:05Z</time>
      </trkpt>
      <trkpt lat="44.43346" lon="3.59825">
        <ele>1206</ele>
        <time>2016-04-28T06:59:10Z</time>
      </trkpt>
      <trkpt lat="44.4335" lon="3.5983">
        <ele>1207</ele>
        <time>2016-04-28T06:59:16Z</time>
      </trkpt>
      <trkpt lat="44.43354" lon="3.59833">
        <ele>1208</ele>
        <time>2016-04-28T06:59:22Z</time>
      </trkpt>
      <trkpt lat="44.43355" lon="3.59838">
        <ele>1209</ele>
        <time>2016-04-28T06:59:30Z</time>
      </trkpt>
      <trkpt lat="44.43358" lon="3.59842">
        <ele>1209</ele>
        <time>2016-04-28T06:59:51Z</time>
      </trkpt>
      <trkpt lat="44.43363" lon="3.59855">
        <ele>1208</ele>
        <time>2016-04-28T07:00:00Z</time>
      </trkpt>
      <trkpt lat="44.43366" lon="3.5986">
        <ele>1208</ele>
        <time>2016-04-28T07:00:05Z</time>
      </trkpt>
      <trkpt lat="44.4338" lon="3.59887">
        <ele>1218</ele>
        <time>2016-04-28T07:00:36Z</time>
      </trkpt>
      <trkpt lat="44.43382" lon="3.59894">
        <ele>1219</ele>
        <time>2016-04-28T07:00:43Z</time>
      </trkpt>
      <trkpt lat="44.43397" lon="3.59911">
        <ele>1224</ele>
        <time>2016-04-28T07:01:08Z</time>
      </trkpt>
      <trkpt lat="44.43396" lon="3.59917">
        <ele>1225</ele>
        <time>2016-04-28T07:01:13Z</time>
      </trkpt>
      <trkpt lat="44.43392" lon="3.5992">
        <ele>1225</ele>
        <time>2016-04-28T07:01:18Z</time>
      </trkpt>
      <trkpt lat="44.43377" lon="3.59917">
        <ele>1228</ele>
        <time>2016-04-28T07:01:36Z</time>
      </trkpt>
      <trkpt lat="44.43357" lon="3.59914">
        <ele>1229</ele>
        <time>2016-04-28T07:01:54Z</time>
      </trkpt>
      <trkpt lat="44.43348" lon="3.59914">
        <ele>1228</ele>
        <time>2016-04-28T07:02:02Z</time>
      </trkpt>
      <trkpt lat="44.43337" lon="3.59913">
        <ele>1228</ele>
        <time>2016-04-28T07:02:12Z</time>
      </trkpt>
      <trkpt lat="44.43332" lon="3.59912">
        <ele>1227</ele>
        <time>2016-04-28T07:02:17Z</time>
      </trkpt>
      <trkpt lat="44.43327" lon="3.59913">
        <ele>1228</ele>
        <time>2016-04-28T07:02:21Z</time>
      </trkpt>
      <trkpt lat="44.43298" lon="3.59918">
        <ele>1224</ele>
        <time>2016-04-28T07:02:48Z</time>
      </trkpt>
      <trkpt lat="44.43289" lon="3.59924">
        <ele>1224</ele>
        <time>2016-04-28T07:02:58Z</time>
      </trkpt>
      <trkpt lat="44.43285" lon="3.59928">
        <ele>1224</ele>
        <time>2016-04-28T07:03:03Z</time>
      </trkpt>
      <trkpt lat="44.43281" lon="3.59932">
        <ele>1224</ele>
        <time>2016-04-28T07:03:08Z</time>
      </trkpt>
      <trkpt lat="44.43277" lon="3.59935">
        <ele>1225</ele>
        <time>2016-04-28T07:03:12Z</time>
      </trkpt>
      <trkpt lat="44.43274" lon="3.59939">
        <ele>1225</ele>
        <time>2016-04-28T07:03:16Z</time>
      </trkpt>
      <trkpt lat="44.43251" lon="3.59966">
        <ele>1233</ele>
        <time>2016-04-28T07:03:50Z</time>
      </trkpt>
      <trkpt lat="44.43247" lon="3.59971">
        <ele>1234</ele>
        <time>2016-04-28T07:03:56Z</time>
      </trkpt>
      <trkpt lat="44.43244" lon="3.59976">
        <ele>1234</ele>
        <time>2016-04-28T07:04:01Z</time>
      </trkpt>
      <trkpt lat="44.43237" lon="3.59985">
        <ele>1234</ele>
        <time>2016-04-28T07:04:11Z</time>
      </trkpt>
      <trkpt lat="44.4323" lon="3.59994">
        <ele>1232</ele>
        <time>2016-04-28T07:04:21Z</time>
      </trkpt>
      <trkpt lat="44.43218" lon="3.60015">
        <ele>1232</ele>
        <time>2016-04-28T07:04:41Z</time>
      </trkpt>
      <trkpt lat="44.43196" lon="3.6005">
        <ele>1237</ele>
        <time>2016-04-28T07:05:15Z</time>
      </trkpt>
      <trkpt lat="44.43193" lon="3.60054">
        <ele>1237</ele>
        <time>2016-04-28T07:05:20Z</time>
      </trkpt>
      <trkpt lat="44.43189" lon="3.6006">
        <ele>1237</ele>
        <time>2016-04-28T07:05:25Z</time>
      </trkpt>
      <trkpt lat="44.43183" lon="3.60069">
        <ele>1237</ele>
        <time>2016-04-28T07:05:33Z</time>
      </trkpt>
      <trkpt lat="44.4318" lon="3.60075">
        <ele>1237</ele>
        <time>2016-04-28T07:05:38Z</time>
      </trkpt>
      <trkpt lat="44.43174" lon="3.60086">
        <ele>1238</ele>
        <time>2016-04-28T07:05:48Z</time>
      </trkpt>
      <trkpt lat="44.4317" lon="3.60089">
        <ele>1239</ele>
        <time>2016-04-28T07:05:53Z</time>
      </trkpt>
      <trkpt lat="44.43158" lon="3.60104">
        <ele>1241</ele>
        <time>2016-04-28T07:06:08Z</time>
      </trkpt>
      <trkpt lat="44.43151" lon="3.60115">
        <ele>1240</ele>
        <time>2016-04-28T07:06:16Z</time>
      </trkpt>
      <trkpt lat="44.43145" lon="3.60125">
        <ele>1240</ele>
        <time>2016-04-28T07:06:24Z</time>
      </trkpt>
      <trkpt lat="44.43138" lon="3.60143">
        <ele>1242</ele>
        <time>2016-04-28T07:06:36Z</time>
      </trkpt>
      <trkpt lat="44.43137" lon="3.60149">
        <ele>1242</ele>
        <time>2016-04-28T07:06:40Z</time>
      </trkpt>
      <trkpt lat="44.43132" lon="3.60161">
        <ele>1242</ele>
        <time>2016-04-28T07:06:49Z</time>
      </trkpt>
      <trkpt lat="44.43123" lon="3.60186">
        <ele>1242</ele>
        <time>2016-04-28T07:07:09Z</time>
      </trkpt>
      <trkpt lat="44.4312" lon="3.602">
        <ele>1242</ele>
        <time>2016-04-28T07:07:18Z</time>
      </trkpt>
      <trkpt lat="44.43119" lon="3.60207">
        <ele>1243</ele>
        <time>2016-04-28T07:07:23Z</time>
      </trkpt>
      <trkpt lat="44.43117" lon="3.60213">
        <ele>1244</ele>
        <time>2016-04-28T07:07:27Z</time>
      </trkpt>
      <trkpt lat="44.43115" lon="3.60219">
        <ele>1243</ele>
        <time>2016-04-28T07:07:31Z</time>
      </trkpt>
      <trkpt lat="44.43111" lon="3.60231">
        <ele>1242</ele>
        <time>2016-04-28T07:07:39Z</time>
      </trkpt>
      <trkpt lat="44.43109" lon="3.60237">
        <ele>1242</ele>
        <time>2016-04-28T07:07:43Z</time>
      </trkpt>
      <trkpt lat="44.43108" lon="3.60243">
        <ele>1242</ele>
        <time>2016-04-28T07:07:47Z</time>
      </trkpt>
      <trkpt lat="44.43106" lon="3.60248">
        <ele>1242</ele>
        <time>2016-04-28T07:08:32Z</time>
      </trkpt>
      <trkpt lat="44.43106" lon="3.60251">
        <ele>1242</ele>
        <time>2016-04-28T07:11:02Z</time>
      </trkpt>
      <trkpt lat="44.43103" lon="3.60257">
        <ele>1242</ele>
        <time>2016-04-28T07:11:10Z</time>
      </trkpt>
      <trkpt lat="44.43097" lon="3.60275">
        <ele>1244</ele>
        <time>2016-04-28T07:11:22Z</time>
      </trkpt>
      <trkpt lat="44.43092" lon="3.60326">
        <ele>1245</ele>
        <time>2016-04-28T07:11:56Z</time>
      </trkpt>
      <trkpt lat="44.43078" lon="3.6037">
        <ele>1246</ele>
        <time>2016-04-28T07:12:28Z</time>
      </trkpt>
      <trkpt lat="44.43077" lon="3.60376">
        <ele>1247</ele>
        <time>2016-04-28T07:12:32Z</time>
      </trkpt>
      <trkpt lat="44.43075" lon="3.6039">
        <ele>1247</ele>
        <time>2016-04-28T07:12:40Z</time>
      </trkpt>
      <trkpt lat="44.43062" lon="3.60435">
        <ele>1249</ele>
        <time>2016-04-28T07:13:10Z</time>
      </trkpt>
      <trkpt lat="44.4306" lon="3.60441">
        <ele>1249</ele>
        <time>2016-04-28T07:13:14Z</time>
      </trkpt>
      <trkpt lat="44.43058" lon="3.60446">
        <ele>1249</ele>
        <time>2016-04-28T07:13:18Z</time>
      </trkpt>
      <trkpt lat="44.43053" lon="3.60465">
        <ele>1249</ele>
        <time>2016-04-28T07:13:30Z</time>
      </trkpt>
      <trkpt lat="44.43051" lon="3.60472">
        <ele>1248</ele>
        <time>2016-04-28T07:13:35Z</time>
      </trkpt>
      <trkpt lat="44.43046" lon="3.60499">
        <ele>1250</ele>
        <time>2016-04-28T07:13:53Z</time>
      </trkpt>
      <trkpt lat="44.43045" lon="3.60505">
        <ele>1250</ele>
        <time>2016-04-28T07:13:57Z</time>
      </trkpt>
      <trkpt lat="44.4304" lon="3.60519">
        <ele>1250</ele>
        <time>2016-04-28T07:14:07Z</time>
      </trkpt>
      <trkpt lat="44.43036" lon="3.60539">
        <ele>1249</ele>
        <time>2016-04-28T07:14:22Z</time>
      </trkpt>
      <trkpt lat="44.43034" lon="3.60545">
        <ele>1250</ele>
        <time>2016-04-28T07:14:28Z</time>
      </trkpt>
      <trkpt lat="44.4303" lon="3.60566">
        <ele>1252</ele>
        <time>2016-04-28T07:14:44Z</time>
      </trkpt>
      <trkpt lat="44.43022" lon="3.60607">
        <ele>1253</ele>
        <time>2016-04-28T07:15:12Z</time>
      </trkpt>
      <trkpt lat="44.43017" lon="3.60618">
        <ele>1253</ele>
        <time>2016-04-28T07:15:20Z</time>
      </trkpt>
      <trkpt lat="44.43011" lon="3.60643">
        <ele>1255</ele>
        <time>2016-04-28T07:15:39Z</time>
      </trkpt>
      <trkpt lat="44.43014" lon="3.60649">
        <ele>1256</ele>
        <time>2016-04-28T07:15:44Z</time>
      </trkpt>
      <trkpt lat="44.43012" lon="3.60653">
        <ele>1256</ele>
        <time>2016-04-28T07:16:38Z</time>
      </trkpt>
      <trkpt lat="44.43008" lon="3.60653">
        <ele>1255</ele>
        <time>2016-04-28T07:17:07Z</time>
      </trkpt>
      <trkpt lat="44.43003" lon="3.6065">
        <ele>1258</ele>
        <time>2016-04-28T07:21:04Z</time>
      </trkpt>
      <trkpt lat="44.42998" lon="3.60649">
        <ele>1258</ele>
        <time>2016-04-28T07:21:11Z</time>
      </trkpt>
      <trkpt lat="44.42989" lon="3.60642">
        <ele>1255</ele>
        <time>2016-04-28T07:21:23Z</time>
      </trkpt>
      <trkpt lat="44.42979" lon="3.60635">
        <ele>1255</ele>
        <time>2016-04-28T07:21:32Z</time>
      </trkpt>
      <trkpt lat="44.42976" lon="3.60631">
        <ele>1254</ele>
        <time>2016-04-28T07:21:36Z</time>
      </trkpt>
      <trkpt lat="44.42971" lon="3.60626">
        <ele>1254</ele>
        <time>2016-04-28T07:21:40Z</time>
      </trkpt>
      <trkpt lat="44.42959" lon="3.60615">
        <ele>1252</ele>
        <time>2016-04-28T07:21:54Z</time>
      </trkpt>
      <trkpt lat="44.42943" lon="3.60598">
        <ele>1251</ele>
        <time>2016-04-28T07:22:12Z</time>
      </trkpt>
      <trkpt lat="44.4294" lon="3.60592">
        <ele>1251</ele>
        <time>2016-04-28T07:22:17Z</time>
      </trkpt>
      <trkpt lat="44.42936" lon="3.60578">
        <ele>1248</ele>
        <time>2016-04-28T07:22:27Z</time>
      </trkpt>
      <trkpt lat="44.42932" lon="3.60575">
        <ele>1248</ele>
        <time>2016-04-28T07:22:31Z</time>
      </trkpt>
      <trkpt lat="44.42928" lon="3.60572">
        <ele>1249</ele>
        <time>2016-04-28T07:22:35Z</time>
      </trkpt>
      <trkpt lat="44.42925" lon="3.60566">
        <ele>1249</ele>
        <time>2016-04-28T07:22:40Z</time>
      </trkpt>
      <trkpt lat="44.42921" lon="3.60563">
        <ele>1250</ele>
        <time>2016-04-28T07:22:44Z</time>
      </trkpt>
      <trkpt lat="44.42917" lon="3.60559">
        <ele>1250</ele>
        <time>2016-04-28T07:22:49Z</time>
      </trkpt>
      <trkpt lat="44.42907" lon="3.60552">
        <ele>1251</ele>
        <time>2016-04-28T07:22:57Z</time>
      </trkpt>
      <trkpt lat="44.42904" lon="3.60547">
        <ele>1250</ele>
        <time>2016-04-28T07:23:01Z</time>
      </trkpt>
      <trkpt lat="44.42898" lon="3.60537">
        <ele>1249</ele>
        <time>2016-04-28T07:23:10Z</time>
      </trkpt>
      <trkpt lat="44.42892" lon="3.60525">
        <ele>1247</ele>
        <time>2016-04-28T07:23:20Z</time>
      </trkpt>
      <trkpt lat="44.42888" lon="3.60523">
        <ele>1246</ele>
        <time>2016-04-28T07:23:25Z</time>
      </trkpt>
      <trkpt lat="44.42882" lon="3.60512">
        <ele>1246</ele>
        <time>2016-04-28T07:23:34Z</time>
      </trkpt>
      <trkpt lat="44.42878" lon="3.60509">
        <ele>1246</ele>
        <time>2016-04-28T07:23:38Z</time>
      </trkpt>
      <trkpt lat="44.42874" lon="3.60507">
        <ele>1246</ele>
        <time>2016-04-28T07:23:42Z</time>
      </trkpt>
      <trkpt lat="44.42845" lon="3.60481">
        <ele>1239</ele>
        <time>2016-04-28T07:24:14Z</time>
      </trkpt>
      <trkpt lat="44.4284" lon="3.60478">
        <ele>1239</ele>
        <time>2016-04-28T07:24:19Z</time>
      </trkpt>
      <trkpt lat="44.42835" lon="3.60475">
        <ele>1239</ele>
        <time>2016-04-28T07:24:25Z</time>
      </trkpt>
      <trkpt lat="44.42819" lon="3.60461">
        <ele>1236</ele>
        <time>2016-04-28T07:24:47Z</time>
      </trkpt>
      <trkpt lat="44.42792" lon="3.60449">
        <ele>1234</ele>
        <time>2016-04-28T07:25:14Z</time>
      </trkpt>
      <trkpt lat="44.42782" lon="3.60447">
        <ele>1232</ele>
        <time>2016-04-28T07:25:23Z</time>
      </trkpt>
      <trkpt lat="44.42773" lon="3.60441">
        <ele>1231</ele>
        <time>2016-04-28T07:25:32Z</time>
      </trkpt>
      <trkpt lat="44.42771" lon="3.60435">
        <ele>1231</ele>
        <time>2016-04-28T07:25:37Z</time>
      </trkpt>
      <trkpt lat="44.42767" lon="3.6043">
        <ele>1231</ele>
        <time>2016-04-28T07:25:43Z</time>
      </trkpt>
      <trkpt lat="44.42764" lon="3.60425">
        <ele>1231</ele>
        <time>2016-04-28T07:25:49Z</time>
      </trkpt>
      <trkpt lat="44.4274" lon="3.604">
        <ele>1225</ele>
        <time>2016-04-28T07:26:24Z</time>
      </trkpt>
      <trkpt lat="44.42736" lon="3.60395">
        <ele>1225</ele>
        <time>2016-04-28T07:26:29Z</time>
      </trkpt>
      <trkpt lat="44.42708" lon="3.60368">
        <ele>1219</ele>
        <time>2016-04-28T07:27:04Z</time>
      </trkpt>
      <trkpt lat="44.42698" lon="3.60363">
        <ele>1219</ele>
        <time>2016-04-28T07:27:16Z</time>
      </trkpt>
      <trkpt lat="44.42682" lon="3.60337">
        <ele>1209</ele>
        <time>2016-04-28T07:27:51Z</time>
      </trkpt>
      <trkpt lat="44.42674" lon="3.6033">
        <ele>1206</ele>
        <time>2016-04-28T07:28:02Z</time>
      </trkpt>
      <trkpt lat="44.42649" lon="3.60294">
        <ele>1200</ele>
        <time>2016-04-28T07:28:35Z</time>
      </trkpt>
      <trkpt lat="44.42645" lon="3.60291">
        <ele>1200</ele>
        <time>2016-04-28T07:28:39Z</time>
      </trkpt>
      <trkpt lat="44.42621" lon="3.60283">
        <ele>1195</ele>
        <time>2016-04-28T07:29:02Z</time>
      </trkpt>
      <trkpt lat="44.42615" lon="3.60271">
        <ele>1193</ele>
        <time>2016-04-28T07:29:12Z</time>
      </trkpt>
      <trkpt lat="44.42608" lon="3.60252">
        <ele>1195</ele>
        <time>2016-04-28T07:29:27Z</time>
      </trkpt>
      <trkpt lat="44.42605" lon="3.60246">
        <ele>1195</ele>
        <time>2016-04-28T07:29:32Z</time>
      </trkpt>
      <trkpt lat="44.426" lon="3.60228">
        <ele>1192</ele>
        <time>2016-04-28T07:29:48Z</time>
      </trkpt>
      <trkpt lat="44.42592" lon="3.60218">
        <ele>1191</ele>
        <time>2016-04-28T07:29:58Z</time>
      </trkpt>
      <trkpt lat="44.4259" lon="3.60211">
        <ele>1191</ele>
        <time>2016-04-28T07:30:03Z</time>
      </trkpt>
      <trkpt lat="44.42587" lon="3.60191">
        <ele>1189</ele>
        <time>2016-04-28T07:30:18Z</time>
      </trkpt>
      <trkpt lat="44.42586" lon="3.60183">
        <ele>1189</ele>
        <time>2016-04-28T07:30:23Z</time>
      </trkpt>
      <trkpt lat="44.42579" lon="3.60159">
        <ele>1187</ele>
        <time>2016-04-28T07:30:39Z</time>
      </trkpt>
      <trkpt lat="44.42575" lon="3.60155">
        <ele>1187</ele>
        <time>2016-04-28T07:30:43Z</time>
      </trkpt>
      <trkpt lat="44.42557" lon="3.60119">
        <ele>1182</ele>
        <time>2016-04-28T07:31:15Z</time>
      </trkpt>
      <trkpt lat="44.42554" lon="3.60112">
        <ele>1181</ele>
        <time>2016-04-28T07:31:20Z</time>
      </trkpt>
      <trkpt lat="44.42551" lon="3.60107">
        <ele>1182</ele>
        <time>2016-04-28T07:31:25Z</time>
      </trkpt>
      <trkpt lat="44.42547" lon="3.60103">
        <ele>1183</ele>
        <time>2016-04-28T07:31:29Z</time>
      </trkpt>
      <trkpt lat="44.42542" lon="3.60099">
        <ele>1184</ele>
        <time>2016-04-28T07:31:33Z</time>
      </trkpt>
      <trkpt lat="44.4252" lon="3.60069">
        <ele>1178</ele>
        <time>2016-04-28T07:32:03Z</time>
      </trkpt>
      <trkpt lat="44.42514" lon="3.60059">
        <ele>1176</ele>
        <time>2016-04-28T07:32:13Z</time>
      </trkpt>
      <trkpt lat="44.42511" lon="3.60054">
        <ele>1176</ele>
        <time>2016-04-28T07:32:18Z</time>
      </trkpt>
      <trkpt lat="44.42498" lon="3.60042">
        <ele>1176</ele>
        <time>2016-04-28T07:32:31Z</time>
      </trkpt>
      <trkpt lat="44.42488" lon="3.60028">
        <ele>1177</ele>
        <time>2016-04-28T07:32:43Z</time>
      </trkpt>
      <trkpt lat="44.42485" lon="3.60023">
        <ele>1177</ele>
        <time>2016-04-28T07:32:47Z</time>
      </trkpt>
      <trkpt lat="44.42478" lon="3.60013">
        <ele>1176</ele>
        <time>2016-04-28T07:32:55Z</time>
      </trkpt>
      <trkpt lat="44.42475" lon="3.60007">
        <ele>1176</ele>
        <time>2016-04-28T07:32:59Z</time>
      </trkpt>
      <trkpt lat="44.42471" lon="3.60003">
        <ele>1176</ele>
        <time>2016-04-28T07:33:03Z</time>
      </trkpt>
      <trkpt lat="44.42464" lon="3.59993">
        <ele>1176</ele>
        <time>2016-04-28T07:33:11Z</time>
      </trkpt>
      <trkpt lat="44.42459" lon="3.59988">
        <ele>1176</ele>
        <time>2016-04-28T07:33:16Z</time>
      </trkpt>
      <trkpt lat="44.42455" lon="3.59985">
        <ele>1176</ele>
        <time>2016-04-28T07:33:20Z</time>
      </trkpt>
      <trkpt lat="44.42452" lon="3.59979">
        <ele>1176</ele>
        <time>2016-04-28T07:33:25Z</time>
      </trkpt>
      <trkpt lat="44.42448" lon="3.59974">
        <ele>1176</ele>
        <time>2016-04-28T07:33:30Z</time>
      </trkpt>
      <trkpt lat="44.42437" lon="3.59957">
        <ele>1174</ele>
        <time>2016-04-28T07:33:45Z</time>
      </trkpt>
      <trkpt lat="44.42433" lon="3.59953">
        <ele>1175</ele>
        <time>2016-04-28T07:33:50Z</time>
      </trkpt>
      <trkpt lat="44.42431" lon="3.59946">
        <ele>1174</ele>
        <time>2016-04-28T07:33:55Z</time>
      </trkpt>
      <trkpt lat="44.42419" lon="3.59934">
        <ele>1176</ele>
        <time>2016-04-28T07:34:07Z</time>
      </trkpt>
      <trkpt lat="44.42415" lon="3.59931">
        <ele>1176</ele>
        <time>2016-04-28T07:34:11Z</time>
      </trkpt>
      <trkpt lat="44.42397" lon="3.59918">
        <ele>1174</ele>
        <time>2016-04-28T07:34:25Z</time>
      </trkpt>
      <trkpt lat="44.42392" lon="3.59916">
        <ele>1174</ele>
        <time>2016-04-28T07:34:30Z</time>
      </trkpt>
      <trkpt lat="44.42382" lon="3.59911">
        <ele>1173</ele>
        <time>2016-04-28T07:34:40Z</time>
      </trkpt>
      <trkpt lat="44.42378" lon="3.59909">
        <ele>1174</ele>
        <time>2016-04-28T07:34:44Z</time>
      </trkpt>
      <trkpt lat="44.42368" lon="3.59908">
        <ele>1174</ele>
        <time>2016-04-28T07:34:53Z</time>
      </trkpt>
      <trkpt lat="44.42353" lon="3.59904">
        <ele>1174</ele>
        <time>2016-04-28T07:35:06Z</time>
      </trkpt>
      <trkpt lat="44.42342" lon="3.59902">
        <ele>1174</ele>
        <time>2016-04-28T07:35:15Z</time>
      </trkpt>
      <trkpt lat="44.42338" lon="3.599">
        <ele>1174</ele>
        <time>2016-04-28T07:35:19Z</time>
      </trkpt>
      <trkpt lat="44.42333" lon="3.599">
        <ele>1175</ele>
        <time>2016-04-28T07:35:23Z</time>
      </trkpt>
      <trkpt lat="44.42314" lon="3.59896">
        <ele>1175</ele>
        <time>2016-04-28T07:35:39Z</time>
      </trkpt>
      <trkpt lat="44.42298" lon="3.59892">
        <ele>1173</ele>
        <time>2016-04-28T07:35:51Z</time>
      </trkpt>
      <trkpt lat="44.42289" lon="3.59888">
        <ele>1173</ele>
        <time>2016-04-28T07:35:59Z</time>
      </trkpt>
      <trkpt lat="44.4228" lon="3.59883">
        <ele>1172</ele>
        <time>2016-04-28T07:36:08Z</time>
      </trkpt>
      <trkpt lat="44.42269" lon="3.59879">
        <ele>1172</ele>
        <time>2016-04-28T07:36:18Z</time>
      </trkpt>
      <trkpt lat="44.42265" lon="3.59877">
        <ele>1172</ele>
        <time>2016-04-28T07:36:22Z</time>
      </trkpt>
      <trkpt lat="44.4226" lon="3.59875">
        <ele>1172</ele>
        <time>2016-04-28T07:36:26Z</time>
      </trkpt>
      <trkpt lat="44.42256" lon="3.59873">
        <ele>1172</ele>
        <time>2016-04-28T07:36:30Z</time>
      </trkpt>
      <trkpt lat="44.42251" lon="3.59871">
        <ele>1172</ele>
        <time>2016-04-28T07:36:34Z</time>
      </trkpt>
      <trkpt lat="44.42246" lon="3.5987">
        <ele>1173</ele>
        <time>2016-04-28T07:36:38Z</time>
      </trkpt>
      <trkpt lat="44.42241" lon="3.59868">
        <ele>1173</ele>
        <time>2016-04-28T07:36:42Z</time>
      </trkpt>
      <trkpt lat="44.42236" lon="3.59866">
        <ele>1173</ele>
        <time>2016-04-28T07:36:46Z</time>
      </trkpt>
      <trkpt lat="44.42226" lon="3.59861">
        <ele>1172</ele>
        <time>2016-04-28T07:36:54Z</time>
      </trkpt>
      <trkpt lat="44.42203" lon="3.59846">
        <ele>1174</ele>
        <time>2016-04-28T07:37:14Z</time>
      </trkpt>
      <trkpt lat="44.42177" lon="3.59814">
        <ele>1170</ele>
        <time>2016-04-28T07:37:48Z</time>
      </trkpt>
      <trkpt lat="44.42173" lon="3.59811">
        <ele>1170</ele>
        <time>2016-04-28T07:37:52Z</time>
      </trkpt>
      <trkpt lat="44.42166" lon="3.59802">
        <ele>1170</ele>
        <time>2016-04-28T07:38:00Z</time>
      </trkpt>
      <trkpt lat="44.42164" lon="3.59796">
        <ele>1170</ele>
        <time>2016-04-28T07:38:04Z</time>
      </trkpt>
      <trkpt lat="44.4216" lon="3.5979">
        <ele>1170</ele>
        <time>2016-04-28T07:38:09Z</time>
      </trkpt>
      <trkpt lat="44.42157" lon="3.59784">
        <ele>1170</ele>
        <time>2016-04-28T07:38:13Z</time>
      </trkpt>
      <trkpt lat="44.42147" lon="3.59768">
        <ele>1171</ele>
        <time>2016-04-28T07:38:25Z</time>
      </trkpt>
      <trkpt lat="44.42143" lon="3.59763">
        <ele>1170</ele>
        <time>2016-04-28T07:38:29Z</time>
      </trkpt>
      <trkpt lat="44.42134" lon="3.59754">
        <ele>1170</ele>
        <time>2016-04-28T07:38:37Z</time>
      </trkpt>
      <trkpt lat="44.42129" lon="3.59749">
        <ele>1170</ele>
        <time>2016-04-28T07:38:41Z</time>
      </trkpt>
      <trkpt lat="44.42125" lon="3.59746">
        <ele>1169</ele>
        <time>2016-04-28T07:38:44Z</time>
      </trkpt>
      <trkpt lat="44.42115" lon="3.59733">
        <ele>1168</ele>
        <time>2016-04-28T07:39:00Z</time>
      </trkpt>
      <trkpt lat="44.42103" lon="3.59718">
        <ele>1168</ele>
        <time>2016-04-28T07:39:15Z</time>
      </trkpt>
      <trkpt lat="44.421" lon="3.59713">
        <ele>1169</ele>
        <time>2016-04-28T07:39:20Z</time>
      </trkpt>
      <trkpt lat="44.42092" lon="3.59703">
        <ele>1169</ele>
        <time>2016-04-28T07:39:31Z</time>
      </trkpt>
      <trkpt lat="44.42079" lon="3.59697">
        <ele>1166</ele>
        <time>2016-04-28T07:39:47Z</time>
      </trkpt>
      <trkpt lat="44.42075" lon="3.59695">
        <ele>1166</ele>
        <time>2016-04-28T07:39:54Z</time>
      </trkpt>
      <trkpt lat="44.42072" lon="3.59694">
        <ele>1166</ele>
        <time>2016-04-28T07:40:01Z</time>
      </trkpt>
      <trkpt lat="44.42071" lon="3.5969">
        <ele>1165</ele>
        <time>2016-04-28T07:45:24Z</time>
      </trkpt>
      <trkpt lat="44.42068" lon="3.59689">
        <ele>1167</ele>
        <time>2016-04-28T07:45:49Z</time>
      </trkpt>
      <trkpt lat="44.42062" lon="3.59698">
        <ele>1161</ele>
        <time>2016-04-28T07:46:06Z</time>
      </trkpt>
      <trkpt lat="44.42059" lon="3.59691">
        <ele>1161</ele>
        <time>2016-04-28T07:46:19Z</time>
      </trkpt>
      <trkpt lat="44.42056" lon="3.59688">
        <ele>1161</ele>
        <time>2016-04-28T07:46:31Z</time>
      </trkpt>
      <trkpt lat="44.42054" lon="3.59689">
        <ele>1161</ele>
        <time>2016-04-28T07:46:37Z</time>
      </trkpt>
      <trkpt lat="44.42051" lon="3.59694">
        <ele>1161</ele>
        <time>2016-04-28T07:46:45Z</time>
      </trkpt>
      <trkpt lat="44.42046" lon="3.59695">
        <ele>1160</ele>
        <time>2016-04-28T07:46:52Z</time>
      </trkpt>
      <trkpt lat="44.42038" lon="3.59689">
        <ele>1157</ele>
        <time>2016-04-28T07:47:10Z</time>
      </trkpt>
      <trkpt lat="44.42032" lon="3.59686">
        <ele>1157</ele>
        <time>2016-04-28T07:47:18Z</time>
      </trkpt>
      <trkpt lat="44.42023" lon="3.59682">
        <ele>1155</ele>
        <time>2016-04-28T07:47:31Z</time>
      </trkpt>
      <trkpt lat="44.42019" lon="3.59684">
        <ele>1156</ele>
        <time>2016-04-28T07:47:52Z</time>
      </trkpt>
      <trkpt lat="44.42016" lon="3.59688">
        <ele>1156</ele>
        <time>2016-04-28T07:48:03Z</time>
      </trkpt>
      <trkpt lat="44.42009" lon="3.59685">
        <ele>1153</ele>
        <time>2016-04-28T07:48:23Z</time>
      </trkpt>
      <trkpt lat="44.42006" lon="3.5969">
        <ele>1152</ele>
        <time>2016-04-28T07:48:31Z</time>
      </trkpt>
      <trkpt lat="44.41999" lon="3.59692">
        <ele>1151</ele>
        <time>2016-04-28T07:48:47Z</time>
      </trkpt>
      <trkpt lat="44.41995" lon="3.59694">
        <ele>1151</ele>
        <time>2016-04-28T07:48:52Z</time>
      </trkpt>
      <trkpt lat="44.4199" lon="3.59692">
        <ele>1151</ele>
        <time>2016-04-28T07:48:57Z</time>
      </trkpt>
      <trkpt lat="44.41981" lon="3.59691">
        <ele>1147</ele>
        <time>2016-04-28T07:49:10Z</time>
      </trkpt>
      <trkpt lat="44.4197" lon="3.59697">
        <ele>1145</ele>
        <time>2016-04-28T07:49:33Z</time>
      </trkpt>
      <trkpt lat="44.41966" lon="3.59699">
        <ele>1145</ele>
        <time>2016-04-28T07:49:40Z</time>
      </trkpt>
      <trkpt lat="44.41963" lon="3.59699">
        <ele>1151</ele>
        <time>2016-04-28T07:50:12Z</time>
      </trkpt>
      <trkpt lat="44.41957" lon="3.59699">
        <ele>1150</ele>
        <time>2016-04-28T07:50:34Z</time>
      </trkpt>
      <trkpt lat="44.41952" lon="3.59699">
        <ele>1150</ele>
        <time>2016-04-28T07:50:39Z</time>
      </trkpt>
      <trkpt lat="44.41947" lon="3.597">
        <ele>1149</ele>
        <time>2016-04-28T07:50:44Z</time>
      </trkpt>
      <trkpt lat="44.41933" lon="3.59694">
        <ele>1152</ele>
        <time>2016-04-28T07:51:08Z</time>
      </trkpt>
      <trkpt lat="44.41929" lon="3.59694">
        <ele>1152</ele>
        <time>2016-04-28T07:51:15Z</time>
      </trkpt>
      <trkpt lat="44.41916" lon="3.59692">
        <ele>1150</ele>
        <time>2016-04-28T07:51:39Z</time>
      </trkpt>
      <trkpt lat="44.41914" lon="3.59691">
        <ele>1150</ele>
        <time>2016-04-28T07:52:02Z</time>
      </trkpt>
      <trkpt lat="44.4191" lon="3.59686">
        <ele>1150</ele>
        <time>2016-04-28T07:52:08Z</time>
      </trkpt>
      <trkpt lat="44.41907" lon="3.59681">
        <ele>1151</ele>
        <time>2016-04-28T07:52:14Z</time>
      </trkpt>
      <trkpt lat="44.41898" lon="3.59677">
        <ele>1149</ele>
        <time>2016-04-28T07:52:28Z</time>
      </trkpt>
      <trkpt lat="44.41898" lon="3.59673">
        <ele>1152</ele>
        <time>2016-04-28T07:52:45Z</time>
      </trkpt>
      <trkpt lat="44.4189" lon="3.59664">
        <ele>1156</ele>
        <time>2016-04-28T07:53:00Z</time>
      </trkpt>
      <trkpt lat="44.4188" lon="3.5966">
        <ele>1158</ele>
        <time>2016-04-28T07:53:11Z</time>
      </trkpt>
      <trkpt lat="44.41876" lon="3.5966">
        <ele>1158</ele>
        <time>2016-04-28T07:53:19Z</time>
      </trkpt>
      <trkpt lat="44.41866" lon="3.59657">
        <ele>1159</ele>
        <time>2016-04-28T07:53:33Z</time>
      </trkpt>
      <trkpt lat="44.41862" lon="3.59656">
        <ele>1158</ele>
        <time>2016-04-28T07:53:40Z</time>
      </trkpt>
      <trkpt lat="44.41857" lon="3.59655">
        <ele>1158</ele>
        <time>2016-04-28T07:53:46Z</time>
      </trkpt>
      <trkpt lat="44.41848" lon="3.5965">
        <ele>1161</ele>
        <time>2016-04-28T07:53:57Z</time>
      </trkpt>
      <trkpt lat="44.41843" lon="3.59647">
        <ele>1161</ele>
        <time>2016-04-28T07:54:02Z</time>
      </trkpt>
      <trkpt lat="44.41839" lon="3.59644">
        <ele>1161</ele>
        <time>2016-04-28T07:54:07Z</time>
      </trkpt>
      <trkpt lat="44.41828" lon="3.59639">
        <ele>1161</ele>
        <time>2016-04-28T07:54:17Z</time>
      </trkpt>
      <trkpt lat="44.41819" lon="3.59639">
        <ele>1163</ele>
        <time>2016-04-28T07:54:28Z</time>
      </trkpt>
      <trkpt lat="44.41814" lon="3.59637">
        <ele>1163</ele>
        <time>2016-04-28T07:54:33Z</time>
      </trkpt>
      <trkpt lat="44.41809" lon="3.59637">
        <ele>1165</ele>
        <time>2016-04-28T07:54:37Z</time>
      </trkpt>
      <trkpt lat="44.41804" lon="3.59638">
        <ele>1165</ele>
        <time>2016-04-28T07:54:42Z</time>
      </trkpt>
      <trkpt lat="44.418" lon="3.59637">
        <ele>1164</ele>
        <time>2016-04-28T07:54:48Z</time>
      </trkpt>
      <trkpt lat="44.41784" lon="3.59636">
        <ele>1163</ele>
        <time>2016-04-28T07:55:03Z</time>
      </trkpt>
      <trkpt lat="44.41778" lon="3.59636">
        <ele>1165</ele>
        <time>2016-04-28T07:55:08Z</time>
      </trkpt>
      <trkpt lat="44.41743" lon="3.59639">
        <ele>1168</ele>
        <time>2016-04-28T07:55:41Z</time>
      </trkpt>
      <trkpt lat="44.41738" lon="3.59639">
        <ele>1168</ele>
        <time>2016-04-28T07:55:46Z</time>
      </trkpt>
      <trkpt lat="44.41733" lon="3.59637">
        <ele>1167</ele>
        <time>2016-04-28T07:55:54Z</time>
      </trkpt>
      <trkpt lat="44.41728" lon="3.59637">
        <ele>1167</ele>
        <time>2016-04-28T07:56:01Z</time>
      </trkpt>
      <trkpt lat="44.41723" lon="3.59636">
        <ele>1168</ele>
        <time>2016-04-28T07:56:06Z</time>
      </trkpt>
      <trkpt lat="44.41717" lon="3.59636">
        <ele>1167</ele>
        <time>2016-04-28T07:56:11Z</time>
      </trkpt>
      <trkpt lat="44.41713" lon="3.59637">
        <ele>1167</ele>
        <time>2016-04-28T07:56:16Z</time>
      </trkpt>
      <trkpt lat="44.41708" lon="3.59637">
        <ele>1167</ele>
        <time>2016-04-28T07:56:20Z</time>
      </trkpt>
      <trkpt lat="44.41698" lon="3.59637">
        <ele>1166</ele>
        <time>2016-04-28T07:56:30Z</time>
      </trkpt>
      <trkpt lat="44.41689" lon="3.59634">
        <ele>1166</ele>
        <time>2016-04-28T07:56:40Z</time>
      </trkpt>
      <trkpt lat="44.41684" lon="3.59633">
        <ele>1167</ele>
        <time>2016-04-28T07:56:46Z</time>
      </trkpt>
      <trkpt lat="44.41677" lon="3.59624">
        <ele>1169</ele>
        <time>2016-04-28T07:56:56Z</time>
      </trkpt>
      <trkpt lat="44.41677" lon="3.59617">
        <ele>1169</ele>
        <time>2016-04-28T07:57:04Z</time>
      </trkpt>
      <trkpt lat="44.41675" lon="3.59616">
        <ele>1168</ele>
        <time>2016-04-28T07:57:24Z</time>
      </trkpt>
      <trkpt lat="44.41671" lon="3.59619">
        <ele>1167</ele>
        <time>2016-04-28T07:57:34Z</time>
      </trkpt>
      <trkpt lat="44.41667" lon="3.59614">
        <ele>1167</ele>
        <time>2016-04-28T07:57:38Z</time>
      </trkpt>
      <trkpt lat="44.41664" lon="3.59611">
        <ele>1167</ele>
        <time>2016-04-28T07:57:43Z</time>
      </trkpt>
      <trkpt lat="44.41634" lon="3.59599">
        <ele>1171</ele>
        <time>2016-04-28T07:58:16Z</time>
      </trkpt>
      <trkpt lat="44.41629" lon="3.59599">
        <ele>1172</ele>
        <time>2016-04-28T07:58:22Z</time>
      </trkpt>
      <trkpt lat="44.41619" lon="3.59597">
        <ele>1172</ele>
        <time>2016-04-28T07:58:33Z</time>
      </trkpt>
      <trkpt lat="44.41615" lon="3.59595">
        <ele>1172</ele>
        <time>2016-04-28T07:58:38Z</time>
      </trkpt>
      <trkpt lat="44.4161" lon="3.59593">
        <ele>1172</ele>
        <time>2016-04-28T07:58:42Z</time>
      </trkpt>
      <trkpt lat="44.41601" lon="3.59585">
        <ele>1173</ele>
        <time>2016-04-28T07:58:54Z</time>
      </trkpt>
      <trkpt lat="44.41593" lon="3.59576">
        <ele>1172</ele>
        <time>2016-04-28T07:59:04Z</time>
      </trkpt>
      <trkpt lat="44.41589" lon="3.59572">
        <ele>1173</ele>
        <time>2016-04-28T07:59:10Z</time>
      </trkpt>
      <trkpt lat="44.41586" lon="3.59567">
        <ele>1173</ele>
        <time>2016-04-28T07:59:17Z</time>
      </trkpt>
      <trkpt lat="44.41575" lon="3.59552">
        <ele>1176</ele>
        <time>2016-04-28T07:59:31Z</time>
      </trkpt>
      <trkpt lat="44.41567" lon="3.59543">
        <ele>1175</ele>
        <time>2016-04-28T07:59:41Z</time>
      </trkpt>
      <trkpt lat="44.41562" lon="3.59531">
        <ele>1176</ele>
        <time>2016-04-28T07:59:51Z</time>
      </trkpt>
      <trkpt lat="44.41554" lon="3.59525">
        <ele>1178</ele>
        <time>2016-04-28T08:00:02Z</time>
      </trkpt>
      <trkpt lat="44.41543" lon="3.59513">
        <ele>1179</ele>
        <time>2016-04-28T08:00:20Z</time>
      </trkpt>
      <trkpt lat="44.4154" lon="3.59507">
        <ele>1180</ele>
        <time>2016-04-28T08:00:27Z</time>
      </trkpt>
      <trkpt lat="44.41532" lon="3.59496">
        <ele>1180</ele>
        <time>2016-04-28T08:00:44Z</time>
      </trkpt>
      <trkpt lat="44.41518" lon="3.5948">
        <ele>1184</ele>
        <time>2016-04-28T08:01:13Z</time>
      </trkpt>
      <trkpt lat="44.41514" lon="3.59477">
        <ele>1184</ele>
        <time>2016-04-28T08:01:19Z</time>
      </trkpt>
      <trkpt lat="44.4151" lon="3.59471">
        <ele>1185</ele>
        <time>2016-04-28T08:01:27Z</time>
      </trkpt>
      <trkpt lat="44.41512" lon="3.59465">
        <ele>1185</ele>
        <time>2016-04-28T08:01:33Z</time>
      </trkpt>
      <trkpt lat="44.41513" lon="3.59459">
        <ele>1185</ele>
        <time>2016-04-28T08:01:40Z</time>
      </trkpt>
      <trkpt lat="44.41512" lon="3.59452">
        <ele>1185</ele>
        <time>2016-04-28T08:01:46Z</time>
      </trkpt>
      <trkpt lat="44.41507" lon="3.59432">
        <ele>1187</ele>
        <time>2016-04-28T08:02:04Z</time>
      </trkpt>
      <trkpt lat="44.41508" lon="3.59427">
        <ele>1187</ele>
        <time>2016-04-28T08:02:14Z</time>
      </trkpt>
      <trkpt lat="44.41503" lon="3.5941">
        <ele>1187</ele>
        <time>2016-04-28T08:02:45Z</time>
      </trkpt>
      <trkpt lat="44.41498" lon="3.59408">
        <ele>1187</ele>
        <time>2016-04-28T08:02:53Z</time>
      </trkpt>
      <trkpt lat="44.41493" lon="3.59406">
        <ele>1187</ele>
        <time>2016-04-28T08:02:58Z</time>
      </trkpt>
      <trkpt lat="44.41487" lon="3.59405">
        <ele>1186</ele>
        <time>2016-04-28T08:03:03Z</time>
      </trkpt>
      <trkpt lat="44.41483" lon="3.59401">
        <ele>1186</ele>
        <time>2016-04-28T08:03:12Z</time>
      </trkpt>
      <trkpt lat="44.4147" lon="3.59392">
        <ele>1185</ele>
        <time>2016-04-28T08:03:28Z</time>
      </trkpt>
      <trkpt lat="44.41467" lon="3.5939">
        <ele>1185</ele>
        <time>2016-04-28T08:03:53Z</time>
      </trkpt>
      <trkpt lat="44.41464" lon="3.59394">
        <ele>1185</ele>
        <time>2016-04-28T08:04:02Z</time>
      </trkpt>
      <trkpt lat="44.41459" lon="3.59392">
        <ele>1184</ele>
        <time>2016-04-28T08:04:07Z</time>
      </trkpt>
      <trkpt lat="44.41458" lon="3.59386">
        <ele>1185</ele>
        <time>2016-04-28T08:04:15Z</time>
      </trkpt>
      <trkpt lat="44.4146" lon="3.59385">
        <ele>1185</ele>
        <time>2016-04-28T08:04:26Z</time>
      </trkpt>
      <trkpt lat="44.41463" lon="3.59378">
        <ele>1187</ele>
        <time>2016-04-28T08:04:36Z</time>
      </trkpt>
      <trkpt lat="44.41465" lon="3.59372">
        <ele>1188</ele>
        <time>2016-04-28T08:04:42Z</time>
      </trkpt>
      <trkpt lat="44.41468" lon="3.59366">
        <ele>1188</ele>
        <time>2016-04-28T08:04:46Z</time>
      </trkpt>
      <trkpt lat="44.4147" lon="3.5936">
        <ele>1188</ele>
        <time>2016-04-28T08:04:52Z</time>
      </trkpt>
      <trkpt lat="44.41474" lon="3.59356">
        <ele>1186</ele>
        <time>2016-04-28T08:04:57Z</time>
      </trkpt>
      <trkpt lat="44.4148" lon="3.59355">
        <ele>1186</ele>
        <time>2016-04-28T08:05:03Z</time>
      </trkpt>
      <trkpt lat="44.41484" lon="3.59353">
        <ele>1186</ele>
        <time>2016-04-28T08:05:07Z</time>
      </trkpt>
      <trkpt lat="44.41487" lon="3.59353">
        <ele>1186</ele>
        <time>2016-04-28T08:05:14Z</time>
      </trkpt>
      <trkpt lat="44.41492" lon="3.59354">
        <ele>1187</ele>
        <time>2016-04-28T08:05:41Z</time>
      </trkpt>
      <trkpt lat="44.41496" lon="3.59357">
        <ele>1188</ele>
        <time>2016-04-28T08:05:49Z</time>
      </trkpt>
      <trkpt lat="44.41502" lon="3.59351">
        <ele>1188</ele>
        <time>2016-04-28T08:06:29Z</time>
      </trkpt>
      <trkpt lat="44.41504" lon="3.59346">
        <ele>1188</ele>
        <time>2016-04-28T08:06:37Z</time>
      </trkpt>
      <trkpt lat="44.41501" lon="3.5934">
        <ele>1188</ele>
        <time>2016-04-28T08:06:43Z</time>
      </trkpt>
      <trkpt lat="44.41498" lon="3.59335">
        <ele>1187</ele>
        <time>2016-04-28T08:06:50Z</time>
      </trkpt>
      <trkpt lat="44.41501" lon="3.5933">
        <ele>1187</ele>
        <time>2016-04-28T08:07:06Z</time>
      </trkpt>
      <trkpt lat="44.415" lon="3.59324">
        <ele>1187</ele>
        <time>2016-04-28T08:07:13Z</time>
      </trkpt>
      <trkpt lat="44.41501" lon="3.59317">
        <ele>1187</ele>
        <time>2016-04-28T08:07:18Z</time>
      </trkpt>
      <trkpt lat="44.415" lon="3.59289">
        <ele>1188</ele>
        <time>2016-04-28T08:07:38Z</time>
      </trkpt>
      <trkpt lat="44.41501" lon="3.59283">
        <ele>1189</ele>
        <time>2016-04-28T08:07:43Z</time>
      </trkpt>
      <trkpt lat="44.41502" lon="3.59261">
        <ele>1190</ele>
        <time>2016-04-28T08:07:59Z</time>
      </trkpt>
      <trkpt lat="44.41501" lon="3.59254">
        <ele>1190</ele>
        <time>2016-04-28T08:08:04Z</time>
      </trkpt>
      <trkpt lat="44.41493" lon="3.59222">
        <ele>1183</ele>
        <time>2016-04-28T08:08:29Z</time>
      </trkpt>
      <trkpt lat="44.41493" lon="3.59214">
        <ele>1183</ele>
        <time>2016-04-28T08:08:35Z</time>
      </trkpt>
      <trkpt lat="44.41486" lon="3.59195">
        <ele>1182</ele>
        <time>2016-04-28T08:08:54Z</time>
      </trkpt>
      <trkpt lat="44.41484" lon="3.59189">
        <ele>1181</ele>
        <time>2016-04-28T08:08:58Z</time>
      </trkpt>
      <trkpt lat="44.41479" lon="3.59187">
        <ele>1180</ele>
        <time>2016-04-28T08:09:05Z</time>
      </trkpt>
      <trkpt lat="44.41473" lon="3.59176">
        <ele>1177</ele>
        <time>2016-04-28T08:09:18Z</time>
      </trkpt>
      <trkpt lat="44.41469" lon="3.59179">
        <ele>1177</ele>
        <time>2016-04-28T08:09:27Z</time>
      </trkpt>
      <trkpt lat="44.41465" lon="3.59183">
        <ele>1178</ele>
        <time>2016-04-28T08:09:33Z</time>
      </trkpt>
      <trkpt lat="44.4146" lon="3.59184">
        <ele>1178</ele>
        <time>2016-04-28T08:09:39Z</time>
      </trkpt>
      <trkpt lat="44.41457" lon="3.5919">
        <ele>1180</ele>
        <time>2016-04-28T08:09:47Z</time>
      </trkpt>
      <trkpt lat="44.41456" lon="3.59196">
        <ele>1180</ele>
        <time>2016-04-28T08:09:52Z</time>
      </trkpt>
      <trkpt lat="44.41452" lon="3.59201">
        <ele>1182</ele>
        <time>2016-04-28T08:09:58Z</time>
      </trkpt>
      <trkpt lat="44.41447" lon="3.59201">
        <ele>1182</ele>
        <time>2016-04-28T08:10:04Z</time>
      </trkpt>
      <trkpt lat="44.41446" lon="3.59205">
        <ele>1183</ele>
        <time>2016-04-28T08:10:30Z</time>
      </trkpt>
      <trkpt lat="44.41444" lon="3.59212">
        <ele>1183</ele>
        <time>2016-04-28T08:10:35Z</time>
      </trkpt>
      <trkpt lat="44.41443" lon="3.59219">
        <ele>1182</ele>
        <time>2016-04-28T08:10:41Z</time>
      </trkpt>
      <trkpt lat="44.41441" lon="3.59225">
        <ele>1182</ele>
        <time>2016-04-28T08:10:46Z</time>
      </trkpt>
      <trkpt lat="44.41441" lon="3.59232">
        <ele>1182</ele>
        <time>2016-04-28T08:10:51Z</time>
      </trkpt>
      <trkpt lat="44.41438" lon="3.59239">
        <ele>1183</ele>
        <time>2016-04-28T08:10:56Z</time>
      </trkpt>
      <trkpt lat="44.41435" lon="3.59244">
        <ele>1183</ele>
        <time>2016-04-28T08:11:01Z</time>
      </trkpt>
      <trkpt lat="44.41429" lon="3.59244">
        <ele>1182</ele>
        <time>2016-04-28T08:11:06Z</time>
      </trkpt>
      <trkpt lat="44.41425" lon="3.59241">
        <ele>1182</ele>
        <time>2016-04-28T08:11:09Z</time>
      </trkpt>
      <trkpt lat="44.41398" lon="3.59211">
        <ele>1176</ele>
        <time>2016-04-28T08:11:39Z</time>
      </trkpt>
      <trkpt lat="44.41391" lon="3.59201">
        <ele>1176</ele>
        <time>2016-04-28T08:11:53Z</time>
      </trkpt>
      <trkpt lat="44.41388" lon="3.59196">
        <ele>1176</ele>
        <time>2016-04-28T08:11:59Z</time>
      </trkpt>
      <trkpt lat="44.4138" lon="3.59186">
        <ele>1175</ele>
        <time>2016-04-28T08:12:09Z</time>
      </trkpt>
      <trkpt lat="44.41377" lon="3.59181">
        <ele>1175</ele>
        <time>2016-04-28T08:12:14Z</time>
      </trkpt>
      <trkpt lat="44.41373" lon="3.59177">
        <ele>1177</ele>
        <time>2016-04-28T08:12:19Z</time>
      </trkpt>
      <trkpt lat="44.41369" lon="3.59172">
        <ele>1177</ele>
        <time>2016-04-28T08:12:23Z</time>
      </trkpt>
      <trkpt lat="44.4135" lon="3.5914">
        <ele>1174</ele>
        <time>2016-04-28T08:12:56Z</time>
      </trkpt>
      <trkpt lat="44.41346" lon="3.59136">
        <ele>1174</ele>
        <time>2016-04-28T08:13:02Z</time>
      </trkpt>
      <trkpt lat="44.41339" lon="3.59125">
        <ele>1173</ele>
        <time>2016-04-28T08:13:14Z</time>
      </trkpt>
      <trkpt lat="44.41337" lon="3.59119">
        <ele>1174</ele>
        <time>2016-04-28T08:13:19Z</time>
      </trkpt>
      <trkpt lat="44.41333" lon="3.59114">
        <ele>1174</ele>
        <time>2016-04-28T08:13:24Z</time>
      </trkpt>
      <trkpt lat="44.41322" lon="3.59102">
        <ele>1172</ele>
        <time>2016-04-28T08:13:37Z</time>
      </trkpt>
      <trkpt lat="44.41316" lon="3.59091">
        <ele>1169</ele>
        <time>2016-04-28T08:13:46Z</time>
      </trkpt>
      <trkpt lat="44.41312" lon="3.59087">
        <ele>1169</ele>
        <time>2016-04-28T08:13:50Z</time>
      </trkpt>
      <trkpt lat="44.41308" lon="3.59083">
        <ele>1169</ele>
        <time>2016-04-28T08:13:54Z</time>
      </trkpt>
      <trkpt lat="44.41298" lon="3.59069">
        <ele>1170</ele>
        <time>2016-04-28T08:14:06Z</time>
      </trkpt>
      <trkpt lat="44.41293" lon="3.59065">
        <ele>1170</ele>
        <time>2016-04-28T08:14:10Z</time>
      </trkpt>
      <trkpt lat="44.41285" lon="3.59058">
        <ele>1170</ele>
        <time>2016-04-28T08:14:19Z</time>
      </trkpt>
      <trkpt lat="44.41255" lon="3.59033">
        <ele>1166</ele>
        <time>2016-04-28T08:14:53Z</time>
      </trkpt>
      <trkpt lat="44.41234" lon="3.59016">
        <ele>1161</ele>
        <time>2016-04-28T08:15:14Z</time>
      </trkpt>
      <trkpt lat="44.41226" lon="3.59009">
        <ele>1160</ele>
        <time>2016-04-28T08:15:22Z</time>
      </trkpt>
      <trkpt lat="44.41221" lon="3.59007">
        <ele>1161</ele>
        <time>2016-04-28T08:15:28Z</time>
      </trkpt>
      <trkpt lat="44.41217" lon="3.59003">
        <ele>1162</ele>
        <time>2016-04-28T08:15:33Z</time>
      </trkpt>
      <trkpt lat="44.41212" lon="3.59002">
        <ele>1162</ele>
        <time>2016-04-28T08:15:38Z</time>
      </trkpt>
      <trkpt lat="44.41208" lon="3.59001">
        <ele>1162</ele>
        <time>2016-04-28T08:15:42Z</time>
      </trkpt>
      <trkpt lat="44.41204" lon="3.58998">
        <ele>1162</ele>
        <time>2016-04-28T08:15:46Z</time>
      </trkpt>
      <trkpt lat="44.41199" lon="3.58994">
        <ele>1163</ele>
        <time>2016-04-28T08:15:50Z</time>
      </trkpt>
      <trkpt lat="44.41195" lon="3.5899">
        <ele>1163</ele>
        <time>2016-04-28T08:15:55Z</time>
      </trkpt>
      <trkpt lat="44.41164" lon="3.58964">
        <ele>1153</ele>
        <time>2016-04-28T08:16:29Z</time>
      </trkpt>
      <trkpt lat="44.41155" lon="3.58958">
        <ele>1152</ele>
        <time>2016-04-28T08:16:38Z</time>
      </trkpt>
      <trkpt lat="44.4115" lon="3.58956">
        <ele>1151</ele>
        <time>2016-04-28T08:16:42Z</time>
      </trkpt>
      <trkpt lat="44.41136" lon="3.58949">
        <ele>1153</ele>
        <time>2016-04-28T08:16:56Z</time>
      </trkpt>
      <trkpt lat="44.41132" lon="3.58946">
        <ele>1152</ele>
        <time>2016-04-28T08:17:00Z</time>
      </trkpt>
      <trkpt lat="44.41103" lon="3.5893">
        <ele>1148</ele>
        <time>2016-04-28T08:17:30Z</time>
      </trkpt>
      <trkpt lat="44.41089" lon="3.58924">
        <ele>1148</ele>
        <time>2016-04-28T08:17:46Z</time>
      </trkpt>
      <trkpt lat="44.41071" lon="3.58914">
        <ele>1143</ele>
        <time>2016-04-28T08:18:04Z</time>
      </trkpt>
      <trkpt lat="44.41066" lon="3.58911">
        <ele>1143</ele>
        <time>2016-04-28T08:18:10Z</time>
      </trkpt>
      <trkpt lat="44.4104" lon="3.5889">
        <ele>1137</ele>
        <time>2016-04-28T08:18:41Z</time>
      </trkpt>
      <trkpt lat="44.41021" lon="3.58869">
        <ele>1134</ele>
        <time>2016-04-28T08:19:12Z</time>
      </trkpt>
      <trkpt lat="44.41013" lon="3.58862">
        <ele>1132</ele>
        <time>2016-04-28T08:19:24Z</time>
      </trkpt>
      <trkpt lat="44.4101" lon="3.58857">
        <ele>1132</ele>
        <time>2016-04-28T08:19:35Z</time>
      </trkpt>
      <trkpt lat="44.40987" lon="3.5883">
        <ele>1124</ele>
        <time>2016-04-28T08:20:09Z</time>
      </trkpt>
      <trkpt lat="44.40984" lon="3.58825">
        <ele>1123</ele>
        <time>2016-04-28T08:20:15Z</time>
      </trkpt>
      <trkpt lat="44.40969" lon="3.58799">
        <ele>1114</ele>
        <time>2016-04-28T08:20:47Z</time>
      </trkpt>
      <trkpt lat="44.40965" lon="3.58794">
        <ele>1113</ele>
        <time>2016-04-28T08:20:53Z</time>
      </trkpt>
      <trkpt lat="44.40962" lon="3.58788">
        <ele>1114</ele>
        <time>2016-04-28T08:20:59Z</time>
      </trkpt>
      <trkpt lat="44.40958" lon="3.58784">
        <ele>1114</ele>
        <time>2016-04-28T08:21:06Z</time>
      </trkpt>
      <trkpt lat="44.40954" lon="3.58784">
        <ele>1114</ele>
        <time>2016-04-28T08:21:11Z</time>
      </trkpt>
      <trkpt lat="44.40946" lon="3.58778">
        <ele>1114</ele>
        <time>2016-04-28T08:21:23Z</time>
      </trkpt>
      <trkpt lat="44.40942" lon="3.58773">
        <ele>1114</ele>
        <time>2016-04-28T08:21:30Z</time>
      </trkpt>
      <trkpt lat="44.40939" lon="3.58767">
        <ele>1113</ele>
        <time>2016-04-28T08:21:36Z</time>
      </trkpt>
      <trkpt lat="44.40931" lon="3.5875">
        <ele>1108</ele>
        <time>2016-04-28T08:21:55Z</time>
      </trkpt>
      <trkpt lat="44.40907" lon="3.58724">
        <ele>1099</ele>
        <time>2016-04-28T08:22:31Z</time>
      </trkpt>
      <trkpt lat="44.40891" lon="3.5869">
        <ele>1094</ele>
        <time>2016-04-28T08:23:05Z</time>
      </trkpt>
      <trkpt lat="44.40888" lon="3.58684">
        <ele>1094</ele>
        <time>2016-04-28T08:23:11Z</time>
      </trkpt>
      <trkpt lat="44.40885" lon="3.58672">
        <ele>1094</ele>
        <time>2016-04-28T08:23:25Z</time>
      </trkpt>
      <trkpt lat="44.40882" lon="3.58651">
        <ele>1091</ele>
        <time>2016-04-28T08:23:44Z</time>
      </trkpt>
      <trkpt lat="44.40878" lon="3.58649">
        <ele>1091</ele>
        <time>2016-04-28T08:23:51Z</time>
      </trkpt>
      <trkpt lat="44.40879" lon="3.58641">
        <ele>1090</ele>
        <time>2016-04-28T08:24:29Z</time>
      </trkpt>
      <trkpt lat="44.4087" lon="3.58594">
        <ele>1083</ele>
        <time>2016-04-28T08:25:02Z</time>
      </trkpt>
      <trkpt lat="44.40867" lon="3.58574">
        <ele>1081</ele>
        <time>2016-04-28T08:25:15Z</time>
      </trkpt>
      <trkpt lat="44.40864" lon="3.58568">
        <ele>1081</ele>
        <time>2016-04-28T08:25:21Z</time>
      </trkpt>
      <trkpt lat="44.4085" lon="3.58542">
        <ele>1083</ele>
        <time>2016-04-28T08:25:53Z</time>
      </trkpt>
      <trkpt lat="44.40848" lon="3.58538">
        <ele>1083</ele>
        <time>2016-04-28T08:26:05Z</time>
      </trkpt>
      <trkpt lat="44.40844" lon="3.58532">
        <ele>1083</ele>
        <time>2016-04-28T08:26:10Z</time>
      </trkpt>
      <trkpt lat="44.4084" lon="3.58528">
        <ele>1082</ele>
        <time>2016-04-28T08:26:15Z</time>
      </trkpt>
      <trkpt lat="44.40839" lon="3.58526">
        <ele>1084</ele>
        <time>2016-04-28T08:26:52Z</time>
      </trkpt>
      <trkpt lat="44.40836" lon="3.5852">
        <ele>1084</ele>
        <time>2016-04-28T08:27:01Z</time>
      </trkpt>
      <trkpt lat="44.40834" lon="3.58515">
        <ele>1085</ele>
        <time>2016-04-28T08:27:07Z</time>
      </trkpt>
      <trkpt lat="44.40831" lon="3.58508">
        <ele>1085</ele>
        <time>2016-04-28T08:27:13Z</time>
      </trkpt>
      <trkpt lat="44.40827" lon="3.58505">
        <ele>1085</ele>
        <time>2016-04-28T08:27:18Z</time>
      </trkpt>
      <trkpt lat="44.40823" lon="3.585">
        <ele>1084</ele>
        <time>2016-04-28T08:27:24Z</time>
      </trkpt>
      <trkpt lat="44.40819" lon="3.58497">
        <ele>1085</ele>
        <time>2016-04-28T08:27:30Z</time>
      </trkpt>
      <trkpt lat="44.40815" lon="3.58491">
        <ele>1085</ele>
        <time>2016-04-28T08:27:36Z</time>
      </trkpt>
      <trkpt lat="44.40808" lon="3.58474">
        <ele>1082</ele>
        <time>2016-04-28T08:27:51Z</time>
      </trkpt>
      <trkpt lat="44.40805" lon="3.58468">
        <ele>1083</ele>
        <time>2016-04-28T08:27:58Z</time>
      </trkpt>
      <trkpt lat="44.40803" lon="3.58463">
        <ele>1084</ele>
        <time>2016-04-28T08:28:02Z</time>
      </trkpt>
      <trkpt lat="44.40798" lon="3.5846">
        <ele>1083</ele>
        <time>2016-04-28T08:28:08Z</time>
      </trkpt>
      <trkpt lat="44.40794" lon="3.58456">
        <ele>1083</ele>
        <time>2016-04-28T08:28:13Z</time>
      </trkpt>
      <trkpt lat="44.40791" lon="3.58451">
        <ele>1083</ele>
        <time>2016-04-28T08:28:18Z</time>
      </trkpt>
      <trkpt lat="44.40789" lon="3.58445">
        <ele>1082</ele>
        <time>2016-04-28T08:28:23Z</time>
      </trkpt>
      <trkpt lat="44.4078" lon="3.58436">
        <ele>1082</ele>
        <time>2016-04-28T08:28:33Z</time>
      </trkpt>
      <trkpt lat="44.40771" lon="3.58429">
        <ele>1079</ele>
        <time>2016-04-28T08:28:44Z</time>
      </trkpt>
      <trkpt lat="44.40768" lon="3.58423">
        <ele>1077</ele>
        <time>2016-04-28T08:28:49Z</time>
      </trkpt>
      <trkpt lat="44.40765" lon="3.58418">
        <ele>1076</ele>
        <time>2016-04-28T08:28:54Z</time>
      </trkpt>
      <trkpt lat="44.4076" lon="3.58406">
        <ele>1076</ele>
        <time>2016-04-28T08:29:04Z</time>
      </trkpt>
      <trkpt lat="44.40756" lon="3.58402">
        <ele>1077</ele>
        <time>2016-04-28T08:29:09Z</time>
      </trkpt>
      <trkpt lat="44.40754" lon="3.58395">
        <ele>1078</ele>
        <time>2016-04-28T08:29:14Z</time>
      </trkpt>
      <trkpt lat="44.40752" lon="3.58387">
        <ele>1078</ele>
        <time>2016-04-28T08:29:19Z</time>
      </trkpt>
      <trkpt lat="44.4075" lon="3.58382">
        <ele>1077</ele>
        <time>2016-04-28T08:29:25Z</time>
      </trkpt>
      <trkpt lat="44.40744" lon="3.58371">
        <ele>1083</ele>
        <time>2016-04-28T08:29:37Z</time>
      </trkpt>
      <trkpt lat="44.4074" lon="3.58365">
        <ele>1084</ele>
        <time>2016-04-28T08:29:43Z</time>
      </trkpt>
      <trkpt lat="44.40737" lon="3.58361">
        <ele>1083</ele>
        <time>2016-04-28T08:29:49Z</time>
      </trkpt>
      <trkpt lat="44.40724" lon="3.58352">
        <ele>1079</ele>
        <time>2016-04-28T08:30:06Z</time>
      </trkpt>
      <trkpt lat="44.40715" lon="3.58351">
        <ele>1082</ele>
        <time>2016-04-28T08:30:20Z</time>
      </trkpt>
      <trkpt lat="44.40712" lon="3.58347">
        <ele>1083</ele>
        <time>2016-04-28T08:30:27Z</time>
      </trkpt>
      <trkpt lat="44.40711" lon="3.58344">
        <ele>1083</ele>
        <time>2016-04-28T08:30:38Z</time>
      </trkpt>
      <trkpt lat="44.40684" lon="3.58324">
        <ele>1071</ele>
        <time>2016-04-28T08:31:12Z</time>
      </trkpt>
      <trkpt lat="44.40676" lon="3.58315">
        <ele>1070</ele>
        <time>2016-04-28T08:31:21Z</time>
      </trkpt>
      <trkpt lat="44.40672" lon="3.58312">
        <ele>1070</ele>
        <time>2016-04-28T08:31:26Z</time>
      </trkpt>
      <trkpt lat="44.40668" lon="3.58311">
        <ele>1070</ele>
        <time>2016-04-28T08:31:31Z</time>
      </trkpt>
      <trkpt lat="44.40663" lon="3.58308">
        <ele>1069</ele>
        <time>2016-04-28T08:31:36Z</time>
      </trkpt>
      <trkpt lat="44.40658" lon="3.58306">
        <ele>1069</ele>
        <time>2016-04-28T08:31:41Z</time>
      </trkpt>
      <trkpt lat="44.4065" lon="3.58298">
        <ele>1068</ele>
        <time>2016-04-28T08:31:51Z</time>
      </trkpt>
      <trkpt lat="44.40642" lon="3.58291">
        <ele>1067</ele>
        <time>2016-04-28T08:32:04Z</time>
      </trkpt>
      <trkpt lat="44.40627" lon="3.58274">
        <ele>1059</ele>
        <time>2016-04-28T08:32:36Z</time>
      </trkpt>
      <trkpt lat="44.40608" lon="3.58255">
        <ele>1053</ele>
        <time>2016-04-28T08:33:07Z</time>
      </trkpt>
      <trkpt lat="44.40598" lon="3.58252">
        <ele>1052</ele>
        <time>2016-04-28T08:33:16Z</time>
      </trkpt>
      <trkpt lat="44.40586" lon="3.58239">
        <ele>1051</ele>
        <time>2016-04-28T08:33:32Z</time>
      </trkpt>
      <trkpt lat="44.40581" lon="3.58235">
        <ele>1051</ele>
        <time>2016-04-28T08:33:37Z</time>
      </trkpt>
      <trkpt lat="44.40577" lon="3.58232">
        <ele>1051</ele>
        <time>2016-04-28T08:33:42Z</time>
      </trkpt>
      <trkpt lat="44.40573" lon="3.58228">
        <ele>1050</ele>
        <time>2016-04-28T08:33:47Z</time>
      </trkpt>
      <trkpt lat="44.40552" lon="3.58212">
        <ele>1045</ele>
        <time>2016-04-28T08:34:13Z</time>
      </trkpt>
      <trkpt lat="44.40554" lon="3.58209">
        <ele>1045</ele>
        <time>2016-04-28T08:34:21Z</time>
      </trkpt>
      <trkpt lat="44.40548" lon="3.58208">
        <ele>1045</ele>
        <time>2016-04-28T08:34:36Z</time>
      </trkpt>
      <trkpt lat="44.40543" lon="3.58202">
        <ele>1046</ele>
        <time>2016-04-28T08:34:50Z</time>
      </trkpt>
      <trkpt lat="44.40538" lon="3.58199">
        <ele>1047</ele>
        <time>2016-04-28T08:34:54Z</time>
      </trkpt>
      <trkpt lat="44.40513" lon="3.58177">
        <ele>1040</ele>
        <time>2016-04-28T08:35:31Z</time>
      </trkpt>
      <trkpt lat="44.405" lon="3.58165">
        <ele>1038</ele>
        <time>2016-04-28T08:35:46Z</time>
      </trkpt>
      <trkpt lat="44.40498" lon="3.58163">
        <ele>1038</ele>
        <time>2016-04-28T08:35:52Z</time>
      </trkpt>
      <trkpt lat="44.40494" lon="3.58159">
        <ele>1038</ele>
        <time>2016-04-28T08:36:30Z</time>
      </trkpt>
      <trkpt lat="44.4049" lon="3.58155">
        <ele>1038</ele>
        <time>2016-04-28T08:36:35Z</time>
      </trkpt>
      <trkpt lat="44.40479" lon="3.58143">
        <ele>1039</ele>
        <time>2016-04-28T08:36:53Z</time>
      </trkpt>
      <trkpt lat="44.4047" lon="3.58136">
        <ele>1039</ele>
        <time>2016-04-28T08:37:02Z</time>
      </trkpt>
      <trkpt lat="44.40442" lon="3.5812">
        <ele>1032</ele>
        <time>2016-04-28T08:37:34Z</time>
      </trkpt>
      <trkpt lat="44.40433" lon="3.58119">
        <ele>1029</ele>
        <time>2016-04-28T08:37:53Z</time>
      </trkpt>
      <trkpt lat="44.40424" lon="3.58116">
        <ele>1029</ele>
        <time>2016-04-28T08:38:02Z</time>
      </trkpt>
      <trkpt lat="44.40414" lon="3.58112">
        <ele>1028</ele>
        <time>2016-04-28T08:38:12Z</time>
      </trkpt>
      <trkpt lat="44.40408" lon="3.58112">
        <ele>1029</ele>
        <time>2016-04-28T08:38:21Z</time>
      </trkpt>
      <trkpt lat="44.40403" lon="3.58112">
        <ele>1029</ele>
        <time>2016-04-28T08:38:27Z</time>
      </trkpt>
      <trkpt lat="44.40375" lon="3.58108">
        <ele>1024</ele>
        <time>2016-04-28T08:39:01Z</time>
      </trkpt>
      <trkpt lat="44.4037" lon="3.58107">
        <ele>1023</ele>
        <time>2016-04-28T08:39:07Z</time>
      </trkpt>
      <trkpt lat="44.40365" lon="3.58104">
        <ele>1023</ele>
        <time>2016-04-28T08:39:11Z</time>
      </trkpt>
      <trkpt lat="44.40361" lon="3.58101">
        <ele>1024</ele>
        <time>2016-04-28T08:39:17Z</time>
      </trkpt>
      <trkpt lat="44.40355" lon="3.58099">
        <ele>1024</ele>
        <time>2016-04-28T08:39:23Z</time>
      </trkpt>
      <trkpt lat="44.40351" lon="3.58097">
        <ele>1023</ele>
        <time>2016-04-28T08:39:28Z</time>
      </trkpt>
      <trkpt lat="44.40346" lon="3.58096">
        <ele>1023</ele>
        <time>2016-04-28T08:39:35Z</time>
      </trkpt>
      <trkpt lat="44.40342" lon="3.58091">
        <ele>1023</ele>
        <time>2016-04-28T08:39:42Z</time>
      </trkpt>
      <trkpt lat="44.4032" lon="3.58075">
        <ele>1015</ele>
        <time>2016-04-28T08:40:09Z</time>
      </trkpt>
      <trkpt lat="44.4031" lon="3.58073">
        <ele>1015</ele>
        <time>2016-04-28T08:40:23Z</time>
      </trkpt>
      <trkpt lat="44.40306" lon="3.58075">
        <ele>1014</ele>
        <time>2016-04-28T08:40:28Z</time>
      </trkpt>
      <trkpt lat="44.40301" lon="3.58073">
        <ele>1014</ele>
        <time>2016-04-28T08:40:35Z</time>
      </trkpt>
      <trkpt lat="44.40297" lon="3.58071">
        <ele>1014</ele>
        <time>2016-04-28T08:40:43Z</time>
      </trkpt>
      <trkpt lat="44.40284" lon="3.58063">
        <ele>1012</ele>
        <time>2016-04-28T08:41:01Z</time>
      </trkpt>
      <trkpt lat="44.40274" lon="3.58064">
        <ele>1009</ele>
        <time>2016-04-28T08:41:13Z</time>
      </trkpt>
      <trkpt lat="44.4027" lon="3.58066">
        <ele>1009</ele>
        <time>2016-04-28T08:41:22Z</time>
      </trkpt>
      <trkpt lat="44.40266" lon="3.5807">
        <ele>1008</ele>
        <time>2016-04-28T08:41:30Z</time>
      </trkpt>
      <trkpt lat="44.40264" lon="3.58076">
        <ele>1007</ele>
        <time>2016-04-28T08:41:36Z</time>
      </trkpt>
      <trkpt lat="44.40263" lon="3.58071">
        <ele>1006</ele>
        <time>2016-04-28T08:42:45Z</time>
      </trkpt>
      <trkpt lat="44.4026" lon="3.58069">
        <ele>1007</ele>
        <time>2016-04-28T08:43:02Z</time>
      </trkpt>
      <trkpt lat="44.40259" lon="3.58065">
        <ele>1009</ele>
        <time>2016-04-28T08:44:04Z</time>
      </trkpt>
      <trkpt lat="44.40256" lon="3.58059">
        <ele>1009</ele>
        <time>2016-04-28T08:44:17Z</time>
      </trkpt>
      <trkpt lat="44.40255" lon="3.58052">
        <ele>1009</ele>
        <time>2016-04-28T08:44:22Z</time>
      </trkpt>
      <trkpt lat="44.40254" lon="3.58048">
        <ele>1009</ele>
        <time>2016-04-28T08:44:29Z</time>
      </trkpt>
      <trkpt lat="44.40256" lon="3.58043">
        <ele>1009</ele>
        <time>2016-04-28T08:44:37Z</time>
      </trkpt>
      <trkpt lat="44.40257" lon="3.58037">
        <ele>1010</ele>
        <time>2016-04-28T08:44:41Z</time>
      </trkpt>
      <trkpt lat="44.40255" lon="3.5803">
        <ele>1011</ele>
        <time>2016-04-28T08:44:48Z</time>
      </trkpt>
      <trkpt lat="44.40254" lon="3.58024">
        <ele>1011</ele>
        <time>2016-04-28T08:44:53Z</time>
      </trkpt>
      <trkpt lat="44.40254" lon="3.58016">
        <ele>1009</ele>
        <time>2016-04-28T08:45:01Z</time>
      </trkpt>
      <trkpt lat="44.40256" lon="3.5801">
        <ele>1010</ele>
        <time>2016-04-28T08:45:07Z</time>
      </trkpt>
      <trkpt lat="44.40257" lon="3.58003">
        <ele>1010</ele>
        <time>2016-04-28T08:45:11Z</time>
      </trkpt>
      <trkpt lat="44.40258" lon="3.57997">
        <ele>1010</ele>
        <time>2016-04-28T08:45:17Z</time>
      </trkpt>
      <trkpt lat="44.40261" lon="3.57983">
        <ele>1009</ele>
        <time>2016-04-28T08:45:26Z</time>
      </trkpt>
      <trkpt lat="44.40264" lon="3.57969">
        <ele>1009</ele>
        <time>2016-04-28T08:45:37Z</time>
      </trkpt>
      <trkpt lat="44.40268" lon="3.57956">
        <ele>1010</ele>
        <time>2016-04-28T08:45:47Z</time>
      </trkpt>
      <trkpt lat="44.40272" lon="3.57943">
        <ele>1012</ele>
        <time>2016-04-28T08:45:57Z</time>
      </trkpt>
      <trkpt lat="44.40278" lon="3.57932">
        <ele>1012</ele>
        <time>2016-04-28T08:46:07Z</time>
      </trkpt>
      <trkpt lat="44.40286" lon="3.57921">
        <ele>1012</ele>
        <time>2016-04-28T08:46:20Z</time>
      </trkpt>
      <trkpt lat="44.40292" lon="3.57911">
        <ele>1013</ele>
        <time>2016-04-28T08:46:29Z</time>
      </trkpt>
      <trkpt lat="44.40295" lon="3.57905">
        <ele>1014</ele>
        <time>2016-04-28T08:46:35Z</time>
      </trkpt>
      <trkpt lat="44.40298" lon="3.579">
        <ele>1014</ele>
        <time>2016-04-28T08:46:39Z</time>
      </trkpt>
      <trkpt lat="44.40301" lon="3.57895">
        <ele>1015</ele>
        <time>2016-04-28T08:46:44Z</time>
      </trkpt>
      <trkpt lat="44.40305" lon="3.5789">
        <ele>1014</ele>
        <time>2016-04-28T08:46:52Z</time>
      </trkpt>
      <trkpt lat="44.40309" lon="3.57886">
        <ele>1015</ele>
        <time>2016-04-28T08:46:58Z</time>
      </trkpt>
      <trkpt lat="44.40317" lon="3.57878">
        <ele>1015</ele>
        <time>2016-04-28T08:47:08Z</time>
      </trkpt>
      <trkpt lat="44.40334" lon="3.57862">
        <ele>1018</ele>
        <time>2016-04-28T08:47:37Z</time>
      </trkpt>
      <trkpt lat="44.40343" lon="3.57856">
        <ele>1018</ele>
        <time>2016-04-28T08:47:45Z</time>
      </trkpt>
      <trkpt lat="44.40358" lon="3.5785">
        <ele>1023</ele>
        <time>2016-04-28T08:47:58Z</time>
      </trkpt>
      <trkpt lat="44.40362" lon="3.57848">
        <ele>1024</ele>
        <time>2016-04-28T08:48:02Z</time>
      </trkpt>
      <trkpt lat="44.40367" lon="3.57846">
        <ele>1024</ele>
        <time>2016-04-28T08:48:06Z</time>
      </trkpt>
      <trkpt lat="44.40382" lon="3.57841">
        <ele>1017</ele>
        <time>2016-04-28T08:48:22Z</time>
      </trkpt>
      <trkpt lat="44.40384" lon="3.57839">
        <ele>1018</ele>
        <time>2016-04-28T08:48:55Z</time>
      </trkpt>
      <trkpt lat="44.40389" lon="3.57838">
        <ele>1017</ele>
        <time>2016-04-28T08:49:03Z</time>
      </trkpt>
      <trkpt lat="44.40405" lon="3.57842">
        <ele>1011</ele>
        <time>2016-04-28T08:49:21Z</time>
      </trkpt>
      <trkpt lat="44.4041" lon="3.57842">
        <ele>1011</ele>
        <time>2016-04-28T08:49:26Z</time>
      </trkpt>
      <trkpt lat="44.40424" lon="3.57847">
        <ele>1011</ele>
        <time>2016-04-28T08:49:39Z</time>
      </trkpt>
      <trkpt lat="44.40453" lon="3.57856">
        <ele>1014</ele>
        <time>2016-04-28T08:50:05Z</time>
      </trkpt>
      <trkpt lat="44.40458" lon="3.57856">
        <ele>1014</ele>
        <time>2016-04-28T08:50:09Z</time>
      </trkpt>
      <trkpt lat="44.40463" lon="3.57857">
        <ele>1013</ele>
        <time>2016-04-28T08:50:13Z</time>
      </trkpt>
      <trkpt lat="44.40472" lon="3.57861">
        <ele>1014</ele>
        <time>2016-04-28T08:50:21Z</time>
      </trkpt>
      <trkpt lat="44.40487" lon="3.57865">
        <ele>1012</ele>
        <time>2016-04-28T08:50:35Z</time>
      </trkpt>
      <trkpt lat="44.40491" lon="3.57867">
        <ele>1012</ele>
        <time>2016-04-28T08:50:40Z</time>
      </trkpt>
      <trkpt lat="44.40516" lon="3.57871">
        <ele>1008</ele>
        <time>2016-04-28T08:51:05Z</time>
      </trkpt>
      <trkpt lat="44.40525" lon="3.57876">
        <ele>1008</ele>
        <time>2016-04-28T08:51:15Z</time>
      </trkpt>
      <trkpt lat="44.40529" lon="3.57879">
        <ele>1008</ele>
        <time>2016-04-28T08:51:21Z</time>
      </trkpt>
      <trkpt lat="44.40534" lon="3.5788">
        <ele>1009</ele>
        <time>2016-04-28T08:51:27Z</time>
      </trkpt>
      <trkpt lat="44.40539" lon="3.5788">
        <ele>1010</ele>
        <time>2016-04-28T08:51:33Z</time>
      </trkpt>
      <trkpt lat="44.40544" lon="3.57877">
        <ele>1012</ele>
        <time>2016-04-28T08:51:39Z</time>
      </trkpt>
      <trkpt lat="44.40547" lon="3.57873">
        <ele>1011</ele>
        <time>2016-04-28T08:51:44Z</time>
      </trkpt>
      <trkpt lat="44.4055" lon="3.57868">
        <ele>1009</ele>
        <time>2016-04-28T08:51:50Z</time>
      </trkpt>
      <trkpt lat="44.40554" lon="3.57863">
        <ele>1009</ele>
        <time>2016-04-28T08:51:55Z</time>
      </trkpt>
      <trkpt lat="44.40557" lon="3.57859">
        <ele>1009</ele>
        <time>2016-04-28T08:52:00Z</time>
      </trkpt>
      <trkpt lat="44.4056" lon="3.57854">
        <ele>1010</ele>
        <time>2016-04-28T08:52:06Z</time>
      </trkpt>
      <trkpt lat="44.40563" lon="3.57848">
        <ele>1010</ele>
        <time>2016-04-28T08:52:12Z</time>
      </trkpt>
      <trkpt lat="44.40563" lon="3.57842">
        <ele>1009</ele>
        <time>2016-04-28T08:52:18Z</time>
      </trkpt>
      <trkpt lat="44.40561" lon="3.5784">
        <ele>1006</ele>
        <time>2016-04-28T08:52:37Z</time>
      </trkpt>
      <trkpt lat="44.40559" lon="3.57838">
        <ele>1004</ele>
        <time>2016-04-28T08:52:54Z</time>
      </trkpt>
      <trkpt lat="44.40561" lon="3.57841">
        <ele>1010</ele>
        <time>2016-04-28T09:14:13Z</time>
      </trkpt>
      <trkpt lat="44.40564" lon="3.57844">
        <ele>1009</ele>
        <time>2016-04-28T09:16:06Z</time>
      </trkpt>
      <trkpt lat="44.40567" lon="3.57841">
        <ele>1009</ele>
        <time>2016-04-28T09:17:55Z</time>
      </trkpt>
      <trkpt lat="44.40568" lon="3.57837">
        <ele>1009</ele>
        <time>2016-04-28T09:18:06Z</time>
      </trkpt>
      <trkpt lat="44.40567" lon="3.57834">
        <ele>1001</ele>
        <time>2016-04-28T09:18:17Z</time>
      </trkpt>
      <trkpt lat="44.4057" lon="3.57826">
        <ele>998</ele>
        <time>2016-04-28T09:18:36Z</time>
      </trkpt>
      <trkpt lat="44.40576" lon="3.57808">
        <ele>996</ele>
        <time>2016-04-28T09:18:53Z</time>
      </trkpt>
      <trkpt lat="44.40584" lon="3.5779">
        <ele>1001</ele>
        <time>2016-04-28T09:19:08Z</time>
      </trkpt>
      <trkpt lat="44.40589" lon="3.57778">
        <ele>1000</ele>
        <time>2016-04-28T09:19:17Z</time>
      </trkpt>
      <trkpt lat="44.4059" lon="3.57764">
        <ele>999</ele>
        <time>2016-04-28T09:19:26Z</time>
      </trkpt>
      <trkpt lat="44.4059" lon="3.57757">
        <ele>999</ele>
        <time>2016-04-28T09:19:31Z</time>
      </trkpt>
      <trkpt lat="44.40586" lon="3.57736">
        <ele>997</ele>
        <time>2016-04-28T09:19:48Z</time>
      </trkpt>
      <trkpt lat="44.40585" lon="3.57729">
        <ele>997</ele>
        <time>2016-04-28T09:19:53Z</time>
      </trkpt>
      <trkpt lat="44.40584" lon="3.57723">
        <ele>997</ele>
        <time>2016-04-28T09:19:58Z</time>
      </trkpt>
      <trkpt lat="44.40581" lon="3.5769">
        <ele>1001</ele>
        <time>2016-04-28T09:20:25Z</time>
      </trkpt>
      <trkpt lat="44.4058" lon="3.57683">
        <ele>1001</ele>
        <time>2016-04-28T09:20:30Z</time>
      </trkpt>
      <trkpt lat="44.40581" lon="3.57677">
        <ele>1001</ele>
        <time>2016-04-28T09:20:37Z</time>
      </trkpt>
      <trkpt lat="44.40585" lon="3.57673">
        <ele>1000</ele>
        <time>2016-04-28T09:20:43Z</time>
      </trkpt>
      <trkpt lat="44.40589" lon="3.57674">
        <ele>999</ele>
        <time>2016-04-28T09:20:48Z</time>
      </trkpt>
      <trkpt lat="44.40594" lon="3.57677">
        <ele>999</ele>
        <time>2016-04-28T09:20:54Z</time>
      </trkpt>
      <trkpt lat="44.40608" lon="3.57683">
        <ele>1000</ele>
        <time>2016-04-28T09:21:08Z</time>
      </trkpt>
      <trkpt lat="44.40616" lon="3.57689">
        <ele>1001</ele>
        <time>2016-04-28T09:21:18Z</time>
      </trkpt>
      <trkpt lat="44.40631" lon="3.57692">
        <ele>1002</ele>
        <time>2016-04-28T09:21:34Z</time>
      </trkpt>
      <trkpt lat="44.40641" lon="3.57692">
        <ele>1004</ele>
        <time>2016-04-28T09:21:45Z</time>
      </trkpt>
      <trkpt lat="44.4065" lon="3.57694">
        <ele>1004</ele>
        <time>2016-04-28T09:21:55Z</time>
      </trkpt>
      <trkpt lat="44.4066" lon="3.57693">
        <ele>1004</ele>
        <time>2016-04-28T09:22:06Z</time>
      </trkpt>
      <trkpt lat="44.40665" lon="3.57693">
        <ele>1003</ele>
        <time>2016-04-28T09:22:11Z</time>
      </trkpt>
      <trkpt lat="44.40699" lon="3.57687">
        <ele>1007</ele>
        <time>2016-04-28T09:22:45Z</time>
      </trkpt>
      <trkpt lat="44.40713" lon="3.57682">
        <ele>1010</ele>
        <time>2016-04-28T09:23:01Z</time>
      </trkpt>
      <trkpt lat="44.40718" lon="3.57682">
        <ele>1010</ele>
        <time>2016-04-28T09:23:06Z</time>
      </trkpt>
      <trkpt lat="44.40722" lon="3.5768">
        <ele>1007</ele>
        <time>2016-04-28T09:23:14Z</time>
      </trkpt>
      <trkpt lat="44.40727" lon="3.57682">
        <ele>1006</ele>
        <time>2016-04-28T09:23:20Z</time>
      </trkpt>
      <trkpt lat="44.40732" lon="3.57681">
        <ele>1005</ele>
        <time>2016-04-28T09:23:29Z</time>
      </trkpt>
      <trkpt lat="44.40736" lon="3.57679">
        <ele>1008</ele>
        <time>2016-04-28T09:24:08Z</time>
      </trkpt>
      <trkpt lat="44.40759" lon="3.57674">
        <ele>1009</ele>
        <time>2016-04-28T09:24:31Z</time>
      </trkpt>
      <trkpt lat="44.40774" lon="3.57675">
        <ele>1008</ele>
        <time>2016-04-28T09:24:44Z</time>
      </trkpt>
      <trkpt lat="44.40784" lon="3.57674">
        <ele>1008</ele>
        <time>2016-04-28T09:24:54Z</time>
      </trkpt>
      <trkpt lat="44.40789" lon="3.57673">
        <ele>1009</ele>
        <time>2016-04-28T09:24:59Z</time>
      </trkpt>
      <trkpt lat="44.40807" lon="3.57669">
        <ele>1012</ele>
        <time>2016-04-28T09:25:19Z</time>
      </trkpt>
      <trkpt lat="44.40812" lon="3.5767">
        <ele>1011</ele>
        <time>2016-04-28T09:25:23Z</time>
      </trkpt>
      <trkpt lat="44.40817" lon="3.57671">
        <ele>1011</ele>
        <time>2016-04-28T09:25:28Z</time>
      </trkpt>
      <trkpt lat="44.4084" lon="3.57673">
        <ele>1021</ele>
        <time>2016-04-28T09:26:02Z</time>
      </trkpt>
      <trkpt lat="44.40863" lon="3.57683">
        <ele>1034</ele>
        <time>2016-04-28T09:26:32Z</time>
      </trkpt>
      <trkpt lat="44.40881" lon="3.57689">
        <ele>1045</ele>
        <time>2016-04-28T09:26:55Z</time>
      </trkpt>
      <trkpt lat="44.40894" lon="3.57698">
        <ele>1039</ele>
        <time>2016-04-28T09:27:13Z</time>
      </trkpt>
      <trkpt lat="44.40898" lon="3.57702">
        <ele>1039</ele>
        <time>2016-04-28T09:27:19Z</time>
      </trkpt>
      <trkpt lat="44.40904" lon="3.57701">
        <ele>1040</ele>
        <time>2016-04-28T09:27:24Z</time>
      </trkpt>
      <trkpt lat="44.40913" lon="3.57705">
        <ele>1039</ele>
        <time>2016-04-28T09:27:36Z</time>
      </trkpt>
      <trkpt lat="44.40918" lon="3.57704">
        <ele>1039</ele>
        <time>2016-04-28T09:27:42Z</time>
      </trkpt>
      <trkpt lat="44.40923" lon="3.57705">
        <ele>1040</ele>
        <time>2016-04-28T09:27:49Z</time>
      </trkpt>
      <trkpt lat="44.40942" lon="3.577">
        <ele>1044</ele>
        <time>2016-04-28T09:28:11Z</time>
      </trkpt>
      <trkpt lat="44.40947" lon="3.57699">
        <ele>1043</ele>
        <time>2016-04-28T09:28:18Z</time>
      </trkpt>
      <trkpt lat="44.40961" lon="3.57697">
        <ele>1047</ele>
        <time>2016-04-28T09:28:34Z</time>
      </trkpt>
      <trkpt lat="44.40966" lon="3.57696">
        <ele>1047</ele>
        <time>2016-04-28T09:28:41Z</time>
      </trkpt>
      <trkpt lat="44.40971" lon="3.57697">
        <ele>1046</ele>
        <time>2016-04-28T09:28:47Z</time>
      </trkpt>
      <trkpt lat="44.40975" lon="3.57697">
        <ele>1046</ele>
        <time>2016-04-28T09:28:52Z</time>
      </trkpt>
      <trkpt lat="44.40995" lon="3.5769">
        <ele>1042</ele>
        <time>2016-04-28T09:29:14Z</time>
      </trkpt>
      <trkpt lat="44.41013" lon="3.57679">
        <ele>1045</ele>
        <time>2016-04-28T09:29:35Z</time>
      </trkpt>
      <trkpt lat="44.41017" lon="3.57676">
        <ele>1044</ele>
        <time>2016-04-28T09:29:41Z</time>
      </trkpt>
      <trkpt lat="44.41019" lon="3.57681">
        <ele>1044</ele>
        <time>2016-04-28T09:29:46Z</time>
      </trkpt>
      <trkpt lat="44.41022" lon="3.57678">
        <ele>1044</ele>
        <time>2016-04-28T09:29:57Z</time>
      </trkpt>
      <trkpt lat="44.41024" lon="3.57672">
        <ele>1044</ele>
        <time>2016-04-28T09:30:03Z</time>
      </trkpt>
      <trkpt lat="44.4103" lon="3.57668">
        <ele>1045</ele>
        <time>2016-04-28T09:30:16Z</time>
      </trkpt>
      <trkpt lat="44.41035" lon="3.57669">
        <ele>1046</ele>
        <time>2016-04-28T09:30:21Z</time>
      </trkpt>
      <trkpt lat="44.41039" lon="3.57665">
        <ele>1046</ele>
        <time>2016-04-28T09:30:28Z</time>
      </trkpt>
      <trkpt lat="44.41042" lon="3.5766">
        <ele>1046</ele>
        <time>2016-04-28T09:30:37Z</time>
      </trkpt>
      <trkpt lat="44.4105" lon="3.57654">
        <ele>1043</ele>
        <time>2016-04-28T09:30:50Z</time>
      </trkpt>
      <trkpt lat="44.41058" lon="3.57646">
        <ele>1045</ele>
        <time>2016-04-28T09:31:05Z</time>
      </trkpt>
      <trkpt lat="44.41062" lon="3.57643">
        <ele>1045</ele>
        <time>2016-04-28T09:31:13Z</time>
      </trkpt>
      <trkpt lat="44.41066" lon="3.57638">
        <ele>1044</ele>
        <time>2016-04-28T09:31:20Z</time>
      </trkpt>
      <trkpt lat="44.4107" lon="3.57639">
        <ele>1044</ele>
        <time>2016-04-28T09:31:40Z</time>
      </trkpt>
      <trkpt lat="44.41075" lon="3.57641">
        <ele>1042</ele>
        <time>2016-04-28T09:31:48Z</time>
      </trkpt>
      <trkpt lat="44.41106" lon="3.5765">
        <ele>1033</ele>
        <time>2016-04-28T09:32:15Z</time>
      </trkpt>
      <trkpt lat="44.41114" lon="3.57646">
        <ele>1033</ele>
        <time>2016-04-28T09:32:30Z</time>
      </trkpt>
      <trkpt lat="44.41116" lon="3.57649">
        <ele>1033</ele>
        <time>2016-04-28T09:32:36Z</time>
      </trkpt>
      <trkpt lat="44.4112" lon="3.57647">
        <ele>1033</ele>
        <time>2016-04-28T09:32:41Z</time>
      </trkpt>
      <trkpt lat="44.41137" lon="3.57634">
        <ele>1030</ele>
        <time>2016-04-28T09:32:57Z</time>
      </trkpt>
      <trkpt lat="44.4114" lon="3.57628">
        <ele>1029</ele>
        <time>2016-04-28T09:33:02Z</time>
      </trkpt>
      <trkpt lat="44.41143" lon="3.57623">
        <ele>1029</ele>
        <time>2016-04-28T09:33:06Z</time>
      </trkpt>
      <trkpt lat="44.41145" lon="3.57616">
        <ele>1029</ele>
        <time>2016-04-28T09:33:10Z</time>
      </trkpt>
      <trkpt lat="44.4115" lon="3.5759">
        <ele>1027</ele>
        <time>2016-04-28T09:33:26Z</time>
      </trkpt>
      <trkpt lat="44.41152" lon="3.57574">
        <ele>1028</ele>
        <time>2016-04-28T09:33:36Z</time>
      </trkpt>
      <trkpt lat="44.41153" lon="3.57568">
        <ele>1027</ele>
        <time>2016-04-28T09:33:40Z</time>
      </trkpt>
      <trkpt lat="44.41156" lon="3.57562">
        <ele>1027</ele>
        <time>2016-04-28T09:33:44Z</time>
      </trkpt>
      <trkpt lat="44.41158" lon="3.57555">
        <ele>1027</ele>
        <time>2016-04-28T09:33:49Z</time>
      </trkpt>
      <trkpt lat="44.41159" lon="3.5755">
        <ele>1027</ele>
        <time>2016-04-28T09:33:57Z</time>
      </trkpt>
      <trkpt lat="44.41161" lon="3.57515">
        <ele>1022</ele>
        <time>2016-04-28T09:34:30Z</time>
      </trkpt>
      <trkpt lat="44.41162" lon="3.57508">
        <ele>1022</ele>
        <time>2016-04-28T09:34:35Z</time>
      </trkpt>
      <trkpt lat="44.41165" lon="3.57494">
        <ele>1020</ele>
        <time>2016-04-28T09:34:46Z</time>
      </trkpt>
      <trkpt lat="44.41169" lon="3.57481">
        <ele>1020</ele>
        <time>2016-04-28T09:34:54Z</time>
      </trkpt>
      <trkpt lat="44.41175" lon="3.5747">
        <ele>1022</ele>
        <time>2016-04-28T09:35:02Z</time>
      </trkpt>
      <trkpt lat="44.41179" lon="3.57465">
        <ele>1022</ele>
        <time>2016-04-28T09:35:07Z</time>
      </trkpt>
      <trkpt lat="44.41183" lon="3.57459">
        <ele>1021</ele>
        <time>2016-04-28T09:35:12Z</time>
      </trkpt>
      <trkpt lat="44.41187" lon="3.57454">
        <ele>1021</ele>
        <time>2016-04-28T09:35:17Z</time>
      </trkpt>
      <trkpt lat="44.41189" lon="3.57449">
        <ele>1020</ele>
        <time>2016-04-28T09:35:27Z</time>
      </trkpt>
      <trkpt lat="44.41193" lon="3.57447">
        <ele>1020</ele>
        <time>2016-04-28T09:35:45Z</time>
      </trkpt>
      <trkpt lat="44.41194" lon="3.5744">
        <ele>1020</ele>
        <time>2016-04-28T09:35:53Z</time>
      </trkpt>
      <trkpt lat="44.41197" lon="3.57434">
        <ele>1020</ele>
        <time>2016-04-28T09:35:59Z</time>
      </trkpt>
      <trkpt lat="44.41201" lon="3.57427">
        <ele>1020</ele>
        <time>2016-04-28T09:36:11Z</time>
      </trkpt>
      <trkpt lat="44.41204" lon="3.57422">
        <ele>1020</ele>
        <time>2016-04-28T09:36:16Z</time>
      </trkpt>
      <trkpt lat="44.41207" lon="3.57416">
        <ele>1019</ele>
        <time>2016-04-28T09:36:21Z</time>
      </trkpt>
      <trkpt lat="44.4121" lon="3.57411">
        <ele>1019</ele>
        <time>2016-04-28T09:36:26Z</time>
      </trkpt>
      <trkpt lat="44.41214" lon="3.57407">
        <ele>1019</ele>
        <time>2016-04-28T09:36:30Z</time>
      </trkpt>
      <trkpt lat="44.41223" lon="3.57399">
        <ele>1017</ele>
        <time>2016-04-28T09:36:39Z</time>
      </trkpt>
      <trkpt lat="44.41226" lon="3.57393">
        <ele>1017</ele>
        <time>2016-04-28T09:36:44Z</time>
      </trkpt>
      <trkpt lat="44.41242" lon="3.57366">
        <ele>1014</ele>
        <time>2016-04-28T09:37:09Z</time>
      </trkpt>
      <trkpt lat="44.41246" lon="3.57369">
        <ele>1014</ele>
        <time>2016-04-28T09:37:24Z</time>
      </trkpt>
      <trkpt lat="44.4125" lon="3.57364">
        <ele>1013</ele>
        <time>2016-04-28T09:37:30Z</time>
      </trkpt>
      <trkpt lat="44.41259" lon="3.57348">
        <ele>1010</ele>
        <time>2016-04-28T09:37:42Z</time>
      </trkpt>
      <trkpt lat="44.41262" lon="3.57342">
        <ele>1010</ele>
        <time>2016-04-28T09:37:47Z</time>
      </trkpt>
      <trkpt lat="44.41264" lon="3.57336">
        <ele>1010</ele>
        <time>2016-04-28T09:37:51Z</time>
      </trkpt>
      <trkpt lat="44.41267" lon="3.57329">
        <ele>1011</ele>
        <time>2016-04-28T09:37:55Z</time>
      </trkpt>
      <trkpt lat="44.41272" lon="3.57318">
        <ele>1010</ele>
        <time>2016-04-28T09:38:03Z</time>
      </trkpt>
      <trkpt lat="44.41275" lon="3.57305">
        <ele>1011</ele>
        <time>2016-04-28T09:38:11Z</time>
      </trkpt>
      <trkpt lat="44.41278" lon="3.57292">
        <ele>1013</ele>
        <time>2016-04-28T09:38:24Z</time>
      </trkpt>
      <trkpt lat="44.41279" lon="3.57286">
        <ele>1013</ele>
        <time>2016-04-28T09:38:28Z</time>
      </trkpt>
      <trkpt lat="44.41281" lon="3.5728">
        <ele>1012</ele>
        <time>2016-04-28T09:38:32Z</time>
      </trkpt>
      <trkpt lat="44.41283" lon="3.57274">
        <ele>1012</ele>
        <time>2016-04-28T09:38:36Z</time>
      </trkpt>
      <trkpt lat="44.41286" lon="3.5726">
        <ele>1014</ele>
        <time>2016-04-28T09:38:45Z</time>
      </trkpt>
      <trkpt lat="44.41289" lon="3.57254">
        <ele>1013</ele>
        <time>2016-04-28T09:38:49Z</time>
      </trkpt>
      <trkpt lat="44.41293" lon="3.57242">
        <ele>1011</ele>
        <time>2016-04-28T09:38:57Z</time>
      </trkpt>
      <trkpt lat="44.41295" lon="3.57236">
        <ele>1011</ele>
        <time>2016-04-28T09:39:01Z</time>
      </trkpt>
      <trkpt lat="44.41296" lon="3.5723">
        <ele>1012</ele>
        <time>2016-04-28T09:39:05Z</time>
      </trkpt>
      <trkpt lat="44.41299" lon="3.57208">
        <ele>1011</ele>
        <time>2016-04-28T09:39:17Z</time>
      </trkpt>
      <trkpt lat="44.413" lon="3.57205">
        <ele>1009</ele>
        <time>2016-04-28T09:39:24Z</time>
      </trkpt>
      <trkpt lat="44.41302" lon="3.57198">
        <ele>1009</ele>
        <time>2016-04-28T09:39:30Z</time>
      </trkpt>
      <trkpt lat="44.41303" lon="3.57191">
        <ele>1010</ele>
        <time>2016-04-28T09:39:35Z</time>
      </trkpt>
      <trkpt lat="44.41306" lon="3.57185">
        <ele>1010</ele>
        <time>2016-04-28T09:39:40Z</time>
      </trkpt>
      <trkpt lat="44.41308" lon="3.57172">
        <ele>1012</ele>
        <time>2016-04-28T09:39:52Z</time>
      </trkpt>
      <trkpt lat="44.41309" lon="3.57165">
        <ele>1011</ele>
        <time>2016-04-28T09:40:00Z</time>
      </trkpt>
      <trkpt lat="44.41308" lon="3.57159">
        <ele>1011</ele>
        <time>2016-04-28T09:40:07Z</time>
      </trkpt>
      <trkpt lat="44.41307" lon="3.57152">
        <ele>1011</ele>
        <time>2016-04-28T09:40:14Z</time>
      </trkpt>
      <trkpt lat="44.41303" lon="3.57146">
        <ele>1011</ele>
        <time>2016-04-28T09:40:41Z</time>
      </trkpt>
      <trkpt lat="44.41297" lon="3.57149">
        <ele>1011</ele>
        <time>2016-04-28T09:40:59Z</time>
      </trkpt>
      <trkpt lat="44.41283" lon="3.57146">
        <ele>1010</ele>
        <time>2016-04-28T09:41:13Z</time>
      </trkpt>
      <trkpt lat="44.41278" lon="3.57146">
        <ele>1010</ele>
        <time>2016-04-28T09:41:18Z</time>
      </trkpt>
      <trkpt lat="44.41258" lon="3.57144">
        <ele>1013</ele>
        <time>2016-04-28T09:41:40Z</time>
      </trkpt>
      <trkpt lat="44.41248" lon="3.57146">
        <ele>1012</ele>
        <time>2016-04-28T09:41:50Z</time>
      </trkpt>
      <trkpt lat="44.41219" lon="3.57144">
        <ele>1007</ele>
        <time>2016-04-28T09:42:22Z</time>
      </trkpt>
      <trkpt lat="44.41215" lon="3.57147">
        <ele>1007</ele>
        <time>2016-04-28T09:42:28Z</time>
      </trkpt>
      <trkpt lat="44.4121" lon="3.57144">
        <ele>1008</ele>
        <time>2016-04-28T09:42:35Z</time>
      </trkpt>
      <trkpt lat="44.412" lon="3.57143">
        <ele>1007</ele>
        <time>2016-04-28T09:42:49Z</time>
      </trkpt>
      <trkpt lat="44.41196" lon="3.5714">
        <ele>1007</ele>
        <time>2016-04-28T09:42:57Z</time>
      </trkpt>
      <trkpt lat="44.41195" lon="3.57136">
        <ele>1005</ele>
        <time>2016-04-28T09:43:29Z</time>
      </trkpt>
      <trkpt lat="44.41191" lon="3.57131">
        <ele>1004</ele>
        <time>2016-04-28T09:43:35Z</time>
      </trkpt>
      <trkpt lat="44.41182" lon="3.57126">
        <ele>1003</ele>
        <time>2016-04-28T09:43:46Z</time>
      </trkpt>
      <trkpt lat="44.41177" lon="3.57126">
        <ele>1002</ele>
        <time>2016-04-28T09:43:53Z</time>
      </trkpt>
      <trkpt lat="44.41173" lon="3.57123">
        <ele>1002</ele>
        <time>2016-04-28T09:43:59Z</time>
      </trkpt>
      <trkpt lat="44.41168" lon="3.57123">
        <ele>1003</ele>
        <time>2016-04-28T09:44:06Z</time>
      </trkpt>
      <trkpt lat="44.41164" lon="3.57119">
        <ele>1003</ele>
        <time>2016-04-28T09:44:14Z</time>
      </trkpt>
      <trkpt lat="44.4116" lon="3.57114">
        <ele>1003</ele>
        <time>2016-04-28T09:44:22Z</time>
      </trkpt>
      <trkpt lat="44.41152" lon="3.57109">
        <ele>1003</ele>
        <time>2016-04-28T09:44:32Z</time>
      </trkpt>
      <trkpt lat="44.41145" lon="3.57101">
        <ele>1001</ele>
        <time>2016-04-28T09:44:45Z</time>
      </trkpt>
      <trkpt lat="44.4114" lon="3.57103">
        <ele>999</ele>
        <time>2016-04-28T09:44:52Z</time>
      </trkpt>
      <trkpt lat="44.41134" lon="3.571">
        <ele>1002</ele>
        <time>2016-04-28T09:45:04Z</time>
      </trkpt>
      <trkpt lat="44.41131" lon="3.57095">
        <ele>1001</ele>
        <time>2016-04-28T09:45:10Z</time>
      </trkpt>
      <trkpt lat="44.41128" lon="3.5709">
        <ele>1001</ele>
        <time>2016-04-28T09:45:16Z</time>
      </trkpt>
      <trkpt lat="44.41125" lon="3.57084">
        <ele>1002</ele>
        <time>2016-04-28T09:45:21Z</time>
      </trkpt>
      <trkpt lat="44.4112" lon="3.57084">
        <ele>1003</ele>
        <time>2016-04-28T09:45:28Z</time>
      </trkpt>
      <trkpt lat="44.41115" lon="3.57086">
        <ele>1004</ele>
        <time>2016-04-28T09:47:08Z</time>
      </trkpt>
      <trkpt lat="44.41104" lon="3.57084">
        <ele>1004</ele>
        <time>2016-04-28T09:47:25Z</time>
      </trkpt>
      <trkpt lat="44.41095" lon="3.57081">
        <ele>1004</ele>
        <time>2016-04-28T09:47:33Z</time>
      </trkpt>
      <trkpt lat="44.4109" lon="3.57081">
        <ele>1005</ele>
        <time>2016-04-28T09:47:37Z</time>
      </trkpt>
      <trkpt lat="44.41085" lon="3.5708">
        <ele>1005</ele>
        <time>2016-04-28T09:47:43Z</time>
      </trkpt>
      <trkpt lat="44.41081" lon="3.57078">
        <ele>1003</ele>
        <time>2016-04-28T09:47:48Z</time>
      </trkpt>
      <trkpt lat="44.41074" lon="3.57068">
        <ele>1003</ele>
        <time>2016-04-28T09:47:57Z</time>
      </trkpt>
      <trkpt lat="44.41068" lon="3.57055">
        <ele>1002</ele>
        <time>2016-04-28T09:48:08Z</time>
      </trkpt>
      <trkpt lat="44.41065" lon="3.57049">
        <ele>1003</ele>
        <time>2016-04-28T09:48:13Z</time>
      </trkpt>
      <trkpt lat="44.41062" lon="3.57045">
        <ele>1003</ele>
        <time>2016-04-28T09:48:17Z</time>
      </trkpt>
      <trkpt lat="44.41057" lon="3.57042">
        <ele>1003</ele>
        <time>2016-04-28T09:48:21Z</time>
      </trkpt>
      <trkpt lat="44.41053" lon="3.57038">
        <ele>1003</ele>
        <time>2016-04-28T09:48:25Z</time>
      </trkpt>
      <trkpt lat="44.41049" lon="3.57035">
        <ele>1002</ele>
        <time>2016-04-28T09:48:29Z</time>
      </trkpt>
      <trkpt lat="44.41045" lon="3.5703">
        <ele>1003</ele>
        <time>2016-04-28T09:48:33Z</time>
      </trkpt>
      <trkpt lat="44.41043" lon="3.57024">
        <ele>1004</ele>
        <time>2016-04-28T09:48:37Z</time>
      </trkpt>
      <trkpt lat="44.4104" lon="3.57019">
        <ele>1004</ele>
        <time>2016-04-28T09:48:42Z</time>
      </trkpt>
      <trkpt lat="44.41027" lon="3.56997">
        <ele>996</ele>
        <time>2016-04-28T09:49:02Z</time>
      </trkpt>
      <trkpt lat="44.41024" lon="3.56991">
        <ele>996</ele>
        <time>2016-04-28T09:49:06Z</time>
      </trkpt>
      <trkpt lat="44.41024" lon="3.56984">
        <ele>996</ele>
        <time>2016-04-28T09:49:10Z</time>
      </trkpt>
      <trkpt lat="44.41025" lon="3.56978">
        <ele>996</ele>
        <time>2016-04-28T09:49:14Z</time>
      </trkpt>
      <trkpt lat="44.41031" lon="3.56945">
        <ele>995</ele>
        <time>2016-04-28T09:49:36Z</time>
      </trkpt>
      <trkpt lat="44.41029" lon="3.56911">
        <ele>992</ele>
        <time>2016-04-28T09:49:56Z</time>
      </trkpt>
      <trkpt lat="44.41027" lon="3.56905">
        <ele>992</ele>
        <time>2016-04-28T09:50:00Z</time>
      </trkpt>
      <trkpt lat="44.41022" lon="3.56891">
        <ele>994</ele>
        <time>2016-04-28T09:50:10Z</time>
      </trkpt>
      <trkpt lat="44.41019" lon="3.56885">
        <ele>994</ele>
        <time>2016-04-28T09:50:14Z</time>
      </trkpt>
      <trkpt lat="44.41017" lon="3.5688">
        <ele>994</ele>
        <time>2016-04-28T09:50:18Z</time>
      </trkpt>
      <trkpt lat="44.41002" lon="3.56856">
        <ele>988</ele>
        <time>2016-04-28T09:50:51Z</time>
      </trkpt>
      <trkpt lat="44.40995" lon="3.56848">
        <ele>988</ele>
        <time>2016-04-28T09:51:01Z</time>
      </trkpt>
      <trkpt lat="44.40985" lon="3.56847">
        <ele>988</ele>
        <time>2016-04-28T09:51:11Z</time>
      </trkpt>
      <trkpt lat="44.4098" lon="3.56847">
        <ele>988</ele>
        <time>2016-04-28T09:51:16Z</time>
      </trkpt>
      <trkpt lat="44.40976" lon="3.56847">
        <ele>987</ele>
        <time>2016-04-28T09:51:25Z</time>
      </trkpt>
      <trkpt lat="44.40972" lon="3.56844">
        <ele>987</ele>
        <time>2016-04-28T09:51:32Z</time>
      </trkpt>
      <trkpt lat="44.40968" lon="3.5684">
        <ele>988</ele>
        <time>2016-04-28T09:51:40Z</time>
      </trkpt>
      <trkpt lat="44.40964" lon="3.56839">
        <ele>989</ele>
        <time>2016-04-28T09:51:47Z</time>
      </trkpt>
      <trkpt lat="44.40958" lon="3.56838">
        <ele>989</ele>
        <time>2016-04-28T09:51:53Z</time>
      </trkpt>
      <trkpt lat="44.4093" lon="3.56828">
        <ele>986</ele>
        <time>2016-04-28T09:52:28Z</time>
      </trkpt>
      <trkpt lat="44.40921" lon="3.56823">
        <ele>985</ele>
        <time>2016-04-28T09:52:39Z</time>
      </trkpt>
      <trkpt lat="44.40911" lon="3.5682">
        <ele>981</ele>
        <time>2016-04-28T09:52:50Z</time>
      </trkpt>
      <trkpt lat="44.40896" lon="3.56826">
        <ele>979</ele>
        <time>2016-04-28T09:53:04Z</time>
      </trkpt>
      <trkpt lat="44.40891" lon="3.56826">
        <ele>979</ele>
        <time>2016-04-28T09:53:08Z</time>
      </trkpt>
      <trkpt lat="44.40886" lon="3.56825">
        <ele>978</ele>
        <time>2016-04-28T09:53:12Z</time>
      </trkpt>
      <trkpt lat="44.40881" lon="3.56824">
        <ele>978</ele>
        <time>2016-04-28T09:53:16Z</time>
      </trkpt>
      <trkpt lat="44.40876" lon="3.56823">
        <ele>978</ele>
        <time>2016-04-28T09:53:20Z</time>
      </trkpt>
      <trkpt lat="44.40867" lon="3.56819">
        <ele>978</ele>
        <time>2016-04-28T09:53:30Z</time>
      </trkpt>
      <trkpt lat="44.40838" lon="3.56815">
        <ele>981</ele>
        <time>2016-04-28T09:54:03Z</time>
      </trkpt>
      <trkpt lat="44.40827" lon="3.56817">
        <ele>985</ele>
        <time>2016-04-28T09:54:46Z</time>
      </trkpt>
      <trkpt lat="44.40811" lon="3.56834">
        <ele>979</ele>
        <time>2016-04-28T09:55:03Z</time>
      </trkpt>
      <trkpt lat="44.40801" lon="3.56837">
        <ele>974</ele>
        <time>2016-04-28T09:55:18Z</time>
      </trkpt>
      <trkpt lat="44.408" lon="3.56843">
        <ele>973</ele>
        <time>2016-04-28T09:55:23Z</time>
      </trkpt>
      <trkpt lat="44.40801" lon="3.5685">
        <ele>972</ele>
        <time>2016-04-28T09:55:28Z</time>
      </trkpt>
      <trkpt lat="44.40801" lon="3.56857">
        <ele>973</ele>
        <time>2016-04-28T09:55:34Z</time>
      </trkpt>
      <trkpt lat="44.40798" lon="3.56863">
        <ele>973</ele>
        <time>2016-04-28T09:55:40Z</time>
      </trkpt>
      <trkpt lat="44.40794" lon="3.56903">
        <ele>965</ele>
        <time>2016-04-28T09:56:14Z</time>
      </trkpt>
      <trkpt lat="44.40787" lon="3.56936">
        <ele>957</ele>
        <time>2016-04-28T09:56:46Z</time>
      </trkpt>
      <trkpt lat="44.4079" lon="3.56942">
        <ele>956</ele>
        <time>2016-04-28T09:56:53Z</time>
      </trkpt>
      <trkpt lat="44.40786" lon="3.56946">
        <ele>956</ele>
        <time>2016-04-28T09:56:58Z</time>
      </trkpt>
      <trkpt lat="44.40782" lon="3.56948">
        <ele>956</ele>
        <time>2016-04-28T09:57:04Z</time>
      </trkpt>
      <trkpt lat="44.40779" lon="3.56953">
        <ele>956</ele>
        <time>2016-04-28T09:57:09Z</time>
      </trkpt>
      <trkpt lat="44.40774" lon="3.56955">
        <ele>956</ele>
        <time>2016-04-28T09:57:15Z</time>
      </trkpt>
      <trkpt lat="44.40771" lon="3.56951">
        <ele>956</ele>
        <time>2016-04-28T09:57:21Z</time>
      </trkpt>
      <trkpt lat="44.4077" lon="3.56945">
        <ele>956</ele>
        <time>2016-04-28T09:57:26Z</time>
      </trkpt>
      <trkpt lat="44.40769" lon="3.56937">
        <ele>954</ele>
        <time>2016-04-28T09:57:32Z</time>
      </trkpt>
      <trkpt lat="44.40765" lon="3.56933">
        <ele>953</ele>
        <time>2016-04-28T09:57:38Z</time>
      </trkpt>
      <trkpt lat="44.40762" lon="3.56906">
        <ele>948</ele>
        <time>2016-04-28T09:57:59Z</time>
      </trkpt>
      <trkpt lat="44.40753" lon="3.5689">
        <ele>946</ele>
        <time>2016-04-28T09:58:16Z</time>
      </trkpt>
      <trkpt lat="44.4075" lon="3.56886">
        <ele>947</ele>
        <time>2016-04-28T09:58:21Z</time>
      </trkpt>
      <trkpt lat="44.40747" lon="3.5688">
        <ele>947</ele>
        <time>2016-04-28T09:58:26Z</time>
      </trkpt>
      <trkpt lat="44.40743" lon="3.56877">
        <ele>946</ele>
        <time>2016-04-28T09:58:31Z</time>
      </trkpt>
      <trkpt lat="44.40741" lon="3.56883">
        <ele>947</ele>
        <time>2016-04-28T09:58:39Z</time>
      </trkpt>
      <trkpt lat="44.40743" lon="3.56903">
        <ele>944</ele>
        <time>2016-04-28T09:58:59Z</time>
      </trkpt>
      <trkpt lat="44.40739" lon="3.56907">
        <ele>943</ele>
        <time>2016-04-28T09:59:06Z</time>
      </trkpt>
      <trkpt lat="44.40734" lon="3.56911">
        <ele>943</ele>
        <time>2016-04-28T09:59:12Z</time>
      </trkpt>
      <trkpt lat="44.40727" lon="3.5692">
        <ele>940</ele>
        <time>2016-04-28T09:59:20Z</time>
      </trkpt>
      <trkpt lat="44.40723" lon="3.56924">
        <ele>941</ele>
        <time>2016-04-28T09:59:24Z</time>
      </trkpt>
      <trkpt lat="44.40719" lon="3.56927">
        <ele>941</ele>
        <time>2016-04-28T09:59:29Z</time>
      </trkpt>
      <trkpt lat="44.40714" lon="3.56929">
        <ele>941</ele>
        <time>2016-04-28T09:59:37Z</time>
      </trkpt>
      <trkpt lat="44.40708" lon="3.56929">
        <ele>939</ele>
        <time>2016-04-28T09:59:43Z</time>
      </trkpt>
      <trkpt lat="44.40693" lon="3.56926">
        <ele>937</ele>
        <time>2016-04-28T09:59:57Z</time>
      </trkpt>
      <trkpt lat="44.40675" lon="3.56916">
        <ele>936</ele>
        <time>2016-04-28T10:00:20Z</time>
      </trkpt>
      <trkpt lat="44.40656" lon="3.56912">
        <ele>938</ele>
        <time>2016-04-28T10:00:41Z</time>
      </trkpt>
      <trkpt lat="44.40645" lon="3.56912">
        <ele>934</ele>
        <time>2016-04-28T10:00:59Z</time>
      </trkpt>
      <trkpt lat="44.40642" lon="3.56909">
        <ele>933</ele>
        <time>2016-04-28T10:01:05Z</time>
      </trkpt>
      <trkpt lat="44.40633" lon="3.56904">
        <ele>929</ele>
        <time>2016-04-28T10:01:18Z</time>
      </trkpt>
      <trkpt lat="44.40636" lon="3.56899">
        <ele>929</ele>
        <time>2016-04-28T10:01:25Z</time>
      </trkpt>
      <trkpt lat="44.4064" lon="3.56895">
        <ele>928</ele>
        <time>2016-04-28T10:01:30Z</time>
      </trkpt>
      <trkpt lat="44.40643" lon="3.5689">
        <ele>926</ele>
        <time>2016-04-28T10:01:37Z</time>
      </trkpt>
      <trkpt lat="44.40647" lon="3.56885">
        <ele>926</ele>
        <time>2016-04-28T10:01:44Z</time>
      </trkpt>
      <trkpt lat="44.40651" lon="3.56883">
        <ele>924</ele>
        <time>2016-04-28T10:01:51Z</time>
      </trkpt>
      <trkpt lat="44.40658" lon="3.56874">
        <ele>922</ele>
        <time>2016-04-28T10:02:01Z</time>
      </trkpt>
      <trkpt lat="44.40667" lon="3.56866">
        <ele>924</ele>
        <time>2016-04-28T10:02:14Z</time>
      </trkpt>
      <trkpt lat="44.40669" lon="3.5686">
        <ele>925</ele>
        <time>2016-04-28T10:02:20Z</time>
      </trkpt>
      <trkpt lat="44.40669" lon="3.56852">
        <ele>925</ele>
        <time>2016-04-28T10:02:27Z</time>
      </trkpt>
      <trkpt lat="44.40666" lon="3.56846">
        <ele>925</ele>
        <time>2016-04-28T10:02:32Z</time>
      </trkpt>
      <trkpt lat="44.40662" lon="3.56842">
        <ele>925</ele>
        <time>2016-04-28T10:02:39Z</time>
      </trkpt>
      <trkpt lat="44.4066" lon="3.56836">
        <ele>926</ele>
        <time>2016-04-28T10:02:44Z</time>
      </trkpt>
      <trkpt lat="44.40661" lon="3.56819">
        <ele>928</ele>
        <time>2016-04-28T10:03:01Z</time>
      </trkpt>
      <trkpt lat="44.40661" lon="3.56813">
        <ele>925</ele>
        <time>2016-04-28T10:03:10Z</time>
      </trkpt>
      <trkpt lat="44.4065" lon="3.56782">
        <ele>908</ele>
        <time>2016-04-28T10:03:43Z</time>
      </trkpt>
      <trkpt lat="44.40647" lon="3.5677">
        <ele>900</ele>
        <time>2016-04-28T10:04:00Z</time>
      </trkpt>
      <trkpt lat="44.40648" lon="3.56764">
        <ele>898</ele>
        <time>2016-04-28T10:04:08Z</time>
      </trkpt>
      <trkpt lat="44.40644" lon="3.56762">
        <ele>899</ele>
        <time>2016-04-28T10:04:15Z</time>
      </trkpt>
      <trkpt lat="44.40644" lon="3.56769">
        <ele>899</ele>
        <time>2016-04-28T10:04:23Z</time>
      </trkpt>
      <trkpt lat="44.40641" lon="3.56774">
        <ele>897</ele>
        <time>2016-04-28T10:04:30Z</time>
      </trkpt>
      <trkpt lat="44.40638" lon="3.56779">
        <ele>897</ele>
        <time>2016-04-28T10:04:37Z</time>
      </trkpt>
      <trkpt lat="44.40633" lon="3.56789">
        <ele>900</ele>
        <time>2016-04-28T10:04:49Z</time>
      </trkpt>
      <trkpt lat="44.40633" lon="3.56804">
        <ele>899</ele>
        <time>2016-04-28T10:05:02Z</time>
      </trkpt>
      <trkpt lat="44.40631" lon="3.56811">
        <ele>897</ele>
        <time>2016-04-28T10:05:07Z</time>
      </trkpt>
      <trkpt lat="44.40627" lon="3.56814">
        <ele>897</ele>
        <time>2016-04-28T10:05:12Z</time>
      </trkpt>
      <trkpt lat="44.40621" lon="3.56816">
        <ele>897</ele>
        <time>2016-04-28T10:05:16Z</time>
      </trkpt>
      <trkpt lat="44.4061" lon="3.56817">
        <ele>896</ele>
        <time>2016-04-28T10:05:24Z</time>
      </trkpt>
      <trkpt lat="44.40605" lon="3.56815">
        <ele>896</ele>
        <time>2016-04-28T10:05:28Z</time>
      </trkpt>
      <trkpt lat="44.40601" lon="3.56811">
        <ele>895</ele>
        <time>2016-04-28T10:05:34Z</time>
      </trkpt>
      <trkpt lat="44.40597" lon="3.56811">
        <ele>895</ele>
        <time>2016-04-28T10:05:39Z</time>
      </trkpt>
      <trkpt lat="44.40591" lon="3.5681">
        <ele>896</ele>
        <time>2016-04-28T10:05:45Z</time>
      </trkpt>
      <trkpt lat="44.40582" lon="3.56814">
        <ele>894</ele>
        <time>2016-04-28T10:05:55Z</time>
      </trkpt>
      <trkpt lat="44.40573" lon="3.56807">
        <ele>895</ele>
        <time>2016-04-28T10:06:08Z</time>
      </trkpt>
      <trkpt lat="44.40569" lon="3.56805">
        <ele>896</ele>
        <time>2016-04-28T10:06:12Z</time>
      </trkpt>
      <trkpt lat="44.40564" lon="3.56802">
        <ele>896</ele>
        <time>2016-04-28T10:06:17Z</time>
      </trkpt>
      <trkpt lat="44.4056" lon="3.56797">
        <ele>896</ele>
        <time>2016-04-28T10:06:22Z</time>
      </trkpt>
      <trkpt lat="44.40556" lon="3.56793">
        <ele>895</ele>
        <time>2016-04-28T10:06:27Z</time>
      </trkpt>
      <trkpt lat="44.40553" lon="3.56788">
        <ele>894</ele>
        <time>2016-04-28T10:06:36Z</time>
      </trkpt>
      <trkpt lat="44.40549" lon="3.56787">
        <ele>893</ele>
        <time>2016-04-28T10:06:44Z</time>
      </trkpt>
      <trkpt lat="44.40545" lon="3.56782">
        <ele>893</ele>
        <time>2016-04-28T10:06:50Z</time>
      </trkpt>
      <trkpt lat="44.40535" lon="3.56781">
        <ele>891</ele>
        <time>2016-04-28T10:07:02Z</time>
      </trkpt>
      <trkpt lat="44.40529" lon="3.56778">
        <ele>887</ele>
        <time>2016-04-28T10:07:36Z</time>
      </trkpt>
      <trkpt lat="44.40523" lon="3.56777">
        <ele>888</ele>
        <time>2016-04-28T10:07:49Z</time>
      </trkpt>
      <trkpt lat="44.40518" lon="3.56775">
        <ele>888</ele>
        <time>2016-04-28T10:07:57Z</time>
      </trkpt>
      <trkpt lat="44.40515" lon="3.56771">
        <ele>889</ele>
        <time>2016-04-28T10:08:03Z</time>
      </trkpt>
      <trkpt lat="44.40511" lon="3.56771">
        <ele>888</ele>
        <time>2016-04-28T10:08:12Z</time>
      </trkpt>
      <trkpt lat="44.40508" lon="3.56767">
        <ele>885</ele>
        <time>2016-04-28T10:08:24Z</time>
      </trkpt>
      <trkpt lat="44.40503" lon="3.56756">
        <ele>883</ele>
        <time>2016-04-28T10:08:42Z</time>
      </trkpt>
      <trkpt lat="44.40506" lon="3.56756">
        <ele>881</ele>
        <time>2016-04-28T10:08:48Z</time>
      </trkpt>
      <trkpt lat="44.4051" lon="3.56756">
        <ele>880</ele>
        <time>2016-04-28T10:08:57Z</time>
      </trkpt>
      <trkpt lat="44.40512" lon="3.56758">
        <ele>879</ele>
        <time>2016-04-28T10:09:09Z</time>
      </trkpt>
      <trkpt lat="44.40517" lon="3.56758">
        <ele>876</ele>
        <time>2016-04-28T10:09:19Z</time>
      </trkpt>
      <trkpt lat="44.40522" lon="3.56758">
        <ele>876</ele>
        <time>2016-04-28T10:09:26Z</time>
      </trkpt>
      <trkpt lat="44.40526" lon="3.56758">
        <ele>874</ele>
        <time>2016-04-28T10:09:33Z</time>
      </trkpt>
      <trkpt lat="44.40531" lon="3.56758">
        <ele>874</ele>
        <time>2016-04-28T10:09:40Z</time>
      </trkpt>
      <trkpt lat="44.4054" lon="3.56756">
        <ele>879</ele>
        <time>2016-04-28T10:09:54Z</time>
      </trkpt>
      <trkpt lat="44.40544" lon="3.56758">
        <ele>879</ele>
        <time>2016-04-28T10:10:00Z</time>
      </trkpt>
      <trkpt lat="44.40548" lon="3.56754">
        <ele>881</ele>
        <time>2016-04-28T10:10:07Z</time>
      </trkpt>
      <trkpt lat="44.40551" lon="3.56749">
        <ele>882</ele>
        <time>2016-04-28T10:10:13Z</time>
      </trkpt>
      <trkpt lat="44.40549" lon="3.56743">
        <ele>882</ele>
        <time>2016-04-28T10:10:19Z</time>
      </trkpt>
      <trkpt lat="44.40543" lon="3.56732">
        <ele>880</ele>
        <time>2016-04-28T10:10:29Z</time>
      </trkpt>
      <trkpt lat="44.4054" lon="3.56732">
        <ele>878</ele>
        <time>2016-04-28T10:10:35Z</time>
      </trkpt>
      <trkpt lat="44.40513" lon="3.56732">
        <ele>871</ele>
        <time>2016-04-28T10:11:05Z</time>
      </trkpt>
      <trkpt lat="44.40516" lon="3.56728">
        <ele>869</ele>
        <time>2016-04-28T10:11:25Z</time>
      </trkpt>
      <trkpt lat="44.40521" lon="3.5673">
        <ele>869</ele>
        <time>2016-04-28T10:11:34Z</time>
      </trkpt>
      <trkpt lat="44.40523" lon="3.56728">
        <ele>870</ele>
        <time>2016-04-28T10:11:40Z</time>
      </trkpt>
      <trkpt lat="44.40531" lon="3.56723">
        <ele>871</ele>
        <time>2016-04-28T10:11:54Z</time>
      </trkpt>
      <trkpt lat="44.40532" lon="3.56716">
        <ele>872</ele>
        <time>2016-04-28T10:12:04Z</time>
      </trkpt>
      <trkpt lat="44.40528" lon="3.56712">
        <ele>873</ele>
        <time>2016-04-28T10:12:12Z</time>
      </trkpt>
      <trkpt lat="44.40522" lon="3.56712">
        <ele>873</ele>
        <time>2016-04-28T10:12:16Z</time>
      </trkpt>
      <trkpt lat="44.40518" lon="3.56708">
        <ele>872</ele>
        <time>2016-04-28T10:12:22Z</time>
      </trkpt>
      <trkpt lat="44.40509" lon="3.56702">
        <ele>871</ele>
        <time>2016-04-28T10:12:35Z</time>
      </trkpt>
      <trkpt lat="44.40506" lon="3.56697">
        <ele>868</ele>
        <time>2016-04-28T10:12:44Z</time>
      </trkpt>
      <trkpt lat="44.40483" lon="3.56685">
        <ele>858</ele>
        <time>2016-04-28T10:13:13Z</time>
      </trkpt>
      <trkpt lat="44.40478" lon="3.56686">
        <ele>858</ele>
        <time>2016-04-28T10:13:19Z</time>
      </trkpt>
      <trkpt lat="44.40474" lon="3.56682">
        <ele>858</ele>
        <time>2016-04-28T10:13:24Z</time>
      </trkpt>
      <trkpt lat="44.40461" lon="3.5667">
        <ele>856</ele>
        <time>2016-04-28T10:13:42Z</time>
      </trkpt>
      <trkpt lat="44.40452" lon="3.56667">
        <ele>849</ele>
        <time>2016-04-28T10:14:00Z</time>
      </trkpt>
      <trkpt lat="44.40456" lon="3.56662">
        <ele>848</ele>
        <time>2016-04-28T10:14:05Z</time>
      </trkpt>
      <trkpt lat="44.40469" lon="3.56655">
        <ele>843</ele>
        <time>2016-04-28T10:14:24Z</time>
      </trkpt>
      <trkpt lat="44.40478" lon="3.56652">
        <ele>846</ele>
        <time>2016-04-28T10:14:37Z</time>
      </trkpt>
      <trkpt lat="44.40492" lon="3.56649">
        <ele>841</ele>
        <time>2016-04-28T10:14:53Z</time>
      </trkpt>
      <trkpt lat="44.40497" lon="3.56648">
        <ele>841</ele>
        <time>2016-04-28T10:14:58Z</time>
      </trkpt>
      <trkpt lat="44.40501" lon="3.56648">
        <ele>842</ele>
        <time>2016-04-28T10:15:03Z</time>
      </trkpt>
      <trkpt lat="44.40506" lon="3.56647">
        <ele>842</ele>
        <time>2016-04-28T10:15:08Z</time>
      </trkpt>
      <trkpt lat="44.40506" lon="3.56641">
        <ele>841</ele>
        <time>2016-04-28T10:15:15Z</time>
      </trkpt>
      <trkpt lat="44.40501" lon="3.5664">
        <ele>841</ele>
        <time>2016-04-28T10:15:21Z</time>
      </trkpt>
      <trkpt lat="44.40497" lon="3.56637">
        <ele>840</ele>
        <time>2016-04-28T10:15:30Z</time>
      </trkpt>
      <trkpt lat="44.40494" lon="3.56637">
        <ele>838</ele>
        <time>2016-04-28T10:15:38Z</time>
      </trkpt>
      <trkpt lat="44.40492" lon="3.56631">
        <ele>835</ele>
        <time>2016-04-28T10:15:45Z</time>
      </trkpt>
      <trkpt lat="44.40476" lon="3.56615">
        <ele>829</ele>
        <time>2016-04-28T10:16:12Z</time>
      </trkpt>
      <trkpt lat="44.40471" lon="3.56613">
        <ele>829</ele>
        <time>2016-04-28T10:16:18Z</time>
      </trkpt>
      <trkpt lat="44.40468" lon="3.56609">
        <ele>827</ele>
        <time>2016-04-28T10:16:25Z</time>
      </trkpt>
      <trkpt lat="44.40464" lon="3.56604">
        <ele>827</ele>
        <time>2016-04-28T10:16:31Z</time>
      </trkpt>
      <trkpt lat="44.40456" lon="3.56597">
        <ele>828</ele>
        <time>2016-04-28T10:16:46Z</time>
      </trkpt>
      <trkpt lat="44.40451" lon="3.56599">
        <ele>829</ele>
        <time>2016-04-28T10:16:53Z</time>
      </trkpt>
      <trkpt lat="44.40447" lon="3.56596">
        <ele>829</ele>
        <time>2016-04-28T10:17:01Z</time>
      </trkpt>
      <trkpt lat="44.40442" lon="3.56596">
        <ele>828</ele>
        <time>2016-04-28T10:17:08Z</time>
      </trkpt>
      <trkpt lat="44.40439" lon="3.56591">
        <ele>823</ele>
        <time>2016-04-28T10:17:18Z</time>
      </trkpt>
      <trkpt lat="44.4044" lon="3.56588">
        <ele>821</ele>
        <time>2016-04-28T10:17:24Z</time>
      </trkpt>
      <trkpt lat="44.40444" lon="3.5658">
        <ele>816</ele>
        <time>2016-04-28T10:17:37Z</time>
      </trkpt>
      <trkpt lat="44.40445" lon="3.56572">
        <ele>815</ele>
        <time>2016-04-28T10:17:44Z</time>
      </trkpt>
      <trkpt lat="44.40442" lon="3.56568">
        <ele>818</ele>
        <time>2016-04-28T10:17:53Z</time>
      </trkpt>
      <trkpt lat="44.40438" lon="3.56568">
        <ele>820</ele>
        <time>2016-04-28T10:18:01Z</time>
      </trkpt>
      <trkpt lat="44.40431" lon="3.56568">
        <ele>818</ele>
        <time>2016-04-28T10:18:16Z</time>
      </trkpt>
      <trkpt lat="44.40428" lon="3.56561">
        <ele>817</ele>
        <time>2016-04-28T10:18:22Z</time>
      </trkpt>
      <trkpt lat="44.40423" lon="3.56563">
        <ele>813</ele>
        <time>2016-04-28T10:18:28Z</time>
      </trkpt>
      <trkpt lat="44.40414" lon="3.56561">
        <ele>805</ele>
        <time>2016-04-28T10:18:40Z</time>
      </trkpt>
      <trkpt lat="44.40403" lon="3.56547">
        <ele>800</ele>
        <time>2016-04-28T10:19:00Z</time>
      </trkpt>
      <trkpt lat="44.40395" lon="3.56529">
        <ele>795</ele>
        <time>2016-04-28T10:19:18Z</time>
      </trkpt>
      <trkpt lat="44.40399" lon="3.56524">
        <ele>793</ele>
        <time>2016-04-28T10:19:27Z</time>
      </trkpt>
      <trkpt lat="44.40403" lon="3.56523">
        <ele>792</ele>
        <time>2016-04-28T10:19:35Z</time>
      </trkpt>
      <trkpt lat="44.40408" lon="3.56523">
        <ele>791</ele>
        <time>2016-04-28T10:19:44Z</time>
      </trkpt>
      <trkpt lat="44.40413" lon="3.56522">
        <ele>792</ele>
        <time>2016-04-28T10:19:51Z</time>
      </trkpt>
      <trkpt lat="44.40417" lon="3.5652">
        <ele>791</ele>
        <time>2016-04-28T10:19:57Z</time>
      </trkpt>
      <trkpt lat="44.40418" lon="3.56519">
        <ele>792</ele>
        <time>2016-04-28T10:20:22Z</time>
      </trkpt>
      <trkpt lat="44.40415" lon="3.56514">
        <ele>791</ele>
        <time>2016-04-28T10:20:30Z</time>
      </trkpt>
      <trkpt lat="44.40411" lon="3.5651">
        <ele>791</ele>
        <time>2016-04-28T10:20:35Z</time>
      </trkpt>
      <trkpt lat="44.40408" lon="3.56504">
        <ele>790</ele>
        <time>2016-04-28T10:20:41Z</time>
      </trkpt>
      <trkpt lat="44.40404" lon="3.56502">
        <ele>790</ele>
        <time>2016-04-28T10:20:48Z</time>
      </trkpt>
      <trkpt lat="44.40399" lon="3.565">
        <ele>790</ele>
        <time>2016-04-28T10:20:56Z</time>
      </trkpt>
      <trkpt lat="44.40395" lon="3.56499">
        <ele>789</ele>
        <time>2016-04-28T10:21:02Z</time>
      </trkpt>
      <trkpt lat="44.40391" lon="3.56497">
        <ele>789</ele>
        <time>2016-04-28T10:21:08Z</time>
      </trkpt>
      <trkpt lat="44.40385" lon="3.56498">
        <ele>791</ele>
        <time>2016-04-28T10:21:14Z</time>
      </trkpt>
      <trkpt lat="44.40384" lon="3.56492">
        <ele>791</ele>
        <time>2016-04-28T10:21:21Z</time>
      </trkpt>
      <trkpt lat="44.40387" lon="3.56486">
        <ele>790</ele>
        <time>2016-04-28T10:21:27Z</time>
      </trkpt>
      <trkpt lat="44.40385" lon="3.56482">
        <ele>790</ele>
        <time>2016-04-28T10:21:36Z</time>
      </trkpt>
      <trkpt lat="44.40381" lon="3.5648">
        <ele>789</ele>
        <time>2016-04-28T10:21:43Z</time>
      </trkpt>
      <trkpt lat="44.40378" lon="3.56474">
        <ele>789</ele>
        <time>2016-04-28T10:21:48Z</time>
      </trkpt>
      <trkpt lat="44.40379" lon="3.5646">
        <ele>782</ele>
        <time>2016-04-28T10:22:00Z</time>
      </trkpt>
      <trkpt lat="44.40375" lon="3.56455">
        <ele>781</ele>
        <time>2016-04-28T10:22:07Z</time>
      </trkpt>
      <trkpt lat="44.4037" lon="3.56453">
        <ele>781</ele>
        <time>2016-04-28T10:22:12Z</time>
      </trkpt>
      <trkpt lat="44.40366" lon="3.56449">
        <ele>782</ele>
        <time>2016-04-28T10:22:17Z</time>
      </trkpt>
      <trkpt lat="44.40366" lon="3.56442">
        <ele>784</ele>
        <time>2016-04-28T10:22:22Z</time>
      </trkpt>
      <trkpt lat="44.40368" lon="3.56436">
        <ele>785</ele>
        <time>2016-04-28T10:22:26Z</time>
      </trkpt>
      <trkpt lat="44.4037" lon="3.5643">
        <ele>784</ele>
        <time>2016-04-28T10:22:30Z</time>
      </trkpt>
      <trkpt lat="44.4037" lon="3.56423">
        <ele>784</ele>
        <time>2016-04-28T10:22:35Z</time>
      </trkpt>
      <trkpt lat="44.40367" lon="3.56418">
        <ele>784</ele>
        <time>2016-04-28T10:22:41Z</time>
      </trkpt>
      <trkpt lat="44.40354" lon="3.56409">
        <ele>779</ele>
        <time>2016-04-28T10:22:57Z</time>
      </trkpt>
      <trkpt lat="44.40352" lon="3.56404">
        <ele>777</ele>
        <time>2016-04-28T10:23:02Z</time>
      </trkpt>
      <trkpt lat="44.40347" lon="3.56403">
        <ele>777</ele>
        <time>2016-04-28T10:23:09Z</time>
      </trkpt>
      <trkpt lat="44.40337" lon="3.56401">
        <ele>779</ele>
        <time>2016-04-28T10:23:22Z</time>
      </trkpt>
      <trkpt lat="44.40329" lon="3.56395">
        <ele>777</ele>
        <time>2016-04-28T10:23:35Z</time>
      </trkpt>
      <trkpt lat="44.40324" lon="3.56393">
        <ele>777</ele>
        <time>2016-04-28T10:23:41Z</time>
      </trkpt>
      <trkpt lat="44.40319" lon="3.56392">
        <ele>777</ele>
        <time>2016-04-28T10:23:47Z</time>
      </trkpt>
      <trkpt lat="44.40314" lon="3.56394">
        <ele>777</ele>
        <time>2016-04-28T10:23:54Z</time>
      </trkpt>
      <trkpt lat="44.40311" lon="3.56398">
        <ele>776</ele>
        <time>2016-04-28T10:24:01Z</time>
      </trkpt>
      <trkpt lat="44.40309" lon="3.56405">
        <ele>775</ele>
        <time>2016-04-28T10:24:07Z</time>
      </trkpt>
      <trkpt lat="44.40303" lon="3.56411">
        <ele>771</ele>
        <time>2016-04-28T10:24:51Z</time>
      </trkpt>
      <trkpt lat="44.40298" lon="3.56413">
        <ele>769</ele>
        <time>2016-04-28T10:25:01Z</time>
      </trkpt>
      <trkpt lat="44.40294" lon="3.56417">
        <ele>770</ele>
        <time>2016-04-28T10:25:08Z</time>
      </trkpt>
      <trkpt lat="44.40292" lon="3.56423">
        <ele>768</ele>
        <time>2016-04-28T10:25:17Z</time>
      </trkpt>
      <trkpt lat="44.40287" lon="3.56424">
        <ele>768</ele>
        <time>2016-04-28T10:25:25Z</time>
      </trkpt>
      <trkpt lat="44.40283" lon="3.56421">
        <ele>768</ele>
        <time>2016-04-28T10:25:29Z</time>
      </trkpt>
      <trkpt lat="44.4028" lon="3.56415">
        <ele>767</ele>
        <time>2016-04-28T10:25:34Z</time>
      </trkpt>
      <trkpt lat="44.40279" lon="3.56407">
        <ele>767</ele>
        <time>2016-04-28T10:25:39Z</time>
      </trkpt>
      <trkpt lat="44.40277" lon="3.56394">
        <ele>764</ele>
        <time>2016-04-28T10:25:53Z</time>
      </trkpt>
      <trkpt lat="44.40273" lon="3.5639">
        <ele>762</ele>
        <time>2016-04-28T10:26:02Z</time>
      </trkpt>
      <trkpt lat="44.40269" lon="3.56391">
        <ele>762</ele>
        <time>2016-04-28T10:26:10Z</time>
      </trkpt>
      <trkpt lat="44.40264" lon="3.56388">
        <ele>759</ele>
        <time>2016-04-28T10:26:17Z</time>
      </trkpt>
      <trkpt lat="44.40264" lon="3.56381">
        <ele>758</ele>
        <time>2016-04-28T10:26:24Z</time>
      </trkpt>
      <trkpt lat="44.40266" lon="3.56368">
        <ele>756</ele>
        <time>2016-04-28T10:26:35Z</time>
      </trkpt>
      <trkpt lat="44.40269" lon="3.56363">
        <ele>754</ele>
        <time>2016-04-28T10:26:41Z</time>
      </trkpt>
      <trkpt lat="44.4027" lon="3.56356">
        <ele>753</ele>
        <time>2016-04-28T10:26:47Z</time>
      </trkpt>
      <trkpt lat="44.40272" lon="3.56354">
        <ele>752</ele>
        <time>2016-04-28T10:26:59Z</time>
      </trkpt>
      <trkpt lat="44.40273" lon="3.5635">
        <ele>752</ele>
        <time>2016-04-28T10:27:25Z</time>
      </trkpt>
      <trkpt lat="44.4027" lon="3.56344">
        <ele>752</ele>
        <time>2016-04-28T10:27:31Z</time>
      </trkpt>
      <trkpt lat="44.40266" lon="3.5634">
        <ele>753</ele>
        <time>2016-04-28T10:27:38Z</time>
      </trkpt>
      <trkpt lat="44.40262" lon="3.56337">
        <ele>753</ele>
        <time>2016-04-28T10:27:43Z</time>
      </trkpt>
      <trkpt lat="44.40258" lon="3.56332">
        <ele>752</ele>
        <time>2016-04-28T10:27:49Z</time>
      </trkpt>
      <trkpt lat="44.40251" lon="3.56322">
        <ele>749</ele>
        <time>2016-04-28T10:28:00Z</time>
      </trkpt>
      <trkpt lat="44.40246" lon="3.56322">
        <ele>749</ele>
        <time>2016-04-28T10:28:08Z</time>
      </trkpt>
      <trkpt lat="44.40237" lon="3.56324">
        <ele>750</ele>
        <time>2016-04-28T10:28:16Z</time>
      </trkpt>
      <trkpt lat="44.40227" lon="3.56331">
        <ele>753</ele>
        <time>2016-04-28T10:28:24Z</time>
      </trkpt>
      <trkpt lat="44.40222" lon="3.56333">
        <ele>753</ele>
        <time>2016-04-28T10:28:29Z</time>
      </trkpt>
      <trkpt lat="44.40212" lon="3.56341">
        <ele>751</ele>
        <time>2016-04-28T10:28:38Z</time>
      </trkpt>
      <trkpt lat="44.40203" lon="3.56342">
        <ele>751</ele>
        <time>2016-04-28T10:28:46Z</time>
      </trkpt>
      <trkpt lat="44.40201" lon="3.56348">
        <ele>751</ele>
        <time>2016-04-28T10:28:55Z</time>
      </trkpt>
      <trkpt lat="44.402" lon="3.56354">
        <ele>750</ele>
        <time>2016-04-28T10:29:01Z</time>
      </trkpt>
      <trkpt lat="44.40196" lon="3.56359">
        <ele>750</ele>
        <time>2016-04-28T10:29:05Z</time>
      </trkpt>
      <trkpt lat="44.40185" lon="3.56365">
        <ele>750</ele>
        <time>2016-04-28T10:29:15Z</time>
      </trkpt>
      <trkpt lat="44.40174" lon="3.56379">
        <ele>752</ele>
        <time>2016-04-28T10:29:28Z</time>
      </trkpt>
      <trkpt lat="44.4017" lon="3.56381">
        <ele>752</ele>
        <time>2016-04-28T10:29:33Z</time>
      </trkpt>
      <trkpt lat="44.40165" lon="3.56383">
        <ele>752</ele>
        <time>2016-04-28T10:29:39Z</time>
      </trkpt>
      <trkpt lat="44.40159" lon="3.56383">
        <ele>752</ele>
        <time>2016-04-28T10:29:43Z</time>
      </trkpt>
      <trkpt lat="44.40149" lon="3.5639">
        <ele>753</ele>
        <time>2016-04-28T10:29:52Z</time>
      </trkpt>
      <trkpt lat="44.40144" lon="3.5639">
        <ele>754</ele>
        <time>2016-04-28T10:29:56Z</time>
      </trkpt>
      <trkpt lat="44.40134" lon="3.56393">
        <ele>758</ele>
        <time>2016-04-28T10:30:10Z</time>
      </trkpt>
      <trkpt lat="44.40126" lon="3.56399">
        <ele>759</ele>
        <time>2016-04-28T10:30:17Z</time>
      </trkpt>
      <trkpt lat="44.40118" lon="3.56404">
        <ele>756</ele>
        <time>2016-04-28T10:30:26Z</time>
      </trkpt>
      <trkpt lat="44.40106" lon="3.56426">
        <ele>742</ele>
        <time>2016-04-28T10:30:46Z</time>
      </trkpt>
      <trkpt lat="44.40086" lon="3.56432">
        <ele>731</ele>
        <time>2016-04-28T10:31:03Z</time>
      </trkpt>
      <trkpt lat="44.40081" lon="3.56431">
        <ele>730</ele>
        <time>2016-04-28T10:31:07Z</time>
      </trkpt>
      <trkpt lat="44.40076" lon="3.56432">
        <ele>729</ele>
        <time>2016-04-28T10:31:12Z</time>
      </trkpt>
      <trkpt lat="44.40073" lon="3.56437">
        <ele>729</ele>
        <time>2016-04-28T10:31:18Z</time>
      </trkpt>
      <trkpt lat="44.40069" lon="3.5644">
        <ele>730</ele>
        <time>2016-04-28T10:31:26Z</time>
      </trkpt>
      <trkpt lat="44.40064" lon="3.5644">
        <ele>730</ele>
        <time>2016-04-28T10:31:31Z</time>
      </trkpt>
      <trkpt lat="44.40062" lon="3.56434">
        <ele>729</ele>
        <time>2016-04-28T10:31:38Z</time>
      </trkpt>
      <trkpt lat="44.4006" lon="3.56434">
        <ele>731</ele>
        <time>2016-04-28T10:31:54Z</time>
      </trkpt>
      <trkpt lat="44.40055" lon="3.56438">
        <ele>733</ele>
        <time>2016-04-28T10:32:00Z</time>
      </trkpt>
      <trkpt lat="44.40051" lon="3.56437">
        <ele>736</ele>
        <time>2016-04-28T10:32:06Z</time>
      </trkpt>
      <trkpt lat="44.40041" lon="3.56431">
        <ele>740</ele>
        <time>2016-04-28T10:32:17Z</time>
      </trkpt>
      <trkpt lat="44.40036" lon="3.56427">
        <ele>740</ele>
        <time>2016-04-28T10:32:22Z</time>
      </trkpt>
      <trkpt lat="44.40031" lon="3.56427">
        <ele>740</ele>
        <time>2016-04-28T10:32:26Z</time>
      </trkpt>
      <trkpt lat="44.40021" lon="3.56424">
        <ele>746</ele>
        <time>2016-04-28T10:32:39Z</time>
      </trkpt>
      <trkpt lat="44.40017" lon="3.56421">
        <ele>746</ele>
        <time>2016-04-28T10:32:44Z</time>
      </trkpt>
      <trkpt lat="44.39992" lon="3.56405">
        <ele>731</ele>
        <time>2016-04-28T10:33:14Z</time>
      </trkpt>
      <trkpt lat="44.39989" lon="3.56393">
        <ele>727</ele>
        <time>2016-04-28T10:33:23Z</time>
      </trkpt>
      <trkpt lat="44.39979" lon="3.56387">
        <ele>725</ele>
        <time>2016-04-28T10:33:32Z</time>
      </trkpt>
      <trkpt lat="44.3998" lon="3.56384">
        <ele>724</ele>
        <time>2016-04-28T10:33:39Z</time>
      </trkpt>
      <trkpt lat="44.39975" lon="3.56382">
        <ele>724</ele>
        <time>2016-04-28T10:34:13Z</time>
      </trkpt>
      <trkpt lat="44.3997" lon="3.56382">
        <ele>724</ele>
        <time>2016-04-28T10:34:18Z</time>
      </trkpt>
      <trkpt lat="44.39961" lon="3.56386">
        <ele>726</ele>
        <time>2016-04-28T10:34:26Z</time>
      </trkpt>
      <trkpt lat="44.39956" lon="3.56384">
        <ele>728</ele>
        <time>2016-04-28T10:34:33Z</time>
      </trkpt>
      <trkpt lat="44.39931" lon="3.56362">
        <ele>723</ele>
        <time>2016-04-28T10:35:00Z</time>
      </trkpt>
      <trkpt lat="44.39928" lon="3.56356">
        <ele>724</ele>
        <time>2016-04-28T10:35:04Z</time>
      </trkpt>
      <trkpt lat="44.39923" lon="3.56352">
        <ele>723</ele>
        <time>2016-04-28T10:35:10Z</time>
      </trkpt>
      <trkpt lat="44.39919" lon="3.56348">
        <ele>722</ele>
        <time>2016-04-28T10:35:15Z</time>
      </trkpt>
      <trkpt lat="44.39913" lon="3.56338">
        <ele>719</ele>
        <time>2016-04-28T10:35:25Z</time>
      </trkpt>
      <trkpt lat="44.39914" lon="3.56326">
        <ele>716</ele>
        <time>2016-04-28T10:35:41Z</time>
      </trkpt>
      <trkpt lat="44.39918" lon="3.56329">
        <ele>715</ele>
        <time>2016-04-28T10:35:47Z</time>
      </trkpt>
      <trkpt lat="44.39921" lon="3.56334">
        <ele>715</ele>
        <time>2016-04-28T10:35:52Z</time>
      </trkpt>
      <trkpt lat="44.39925" lon="3.56338">
        <ele>715</ele>
        <time>2016-04-28T10:35:58Z</time>
      </trkpt>
      <trkpt lat="44.39927" lon="3.56344">
        <ele>717</ele>
        <time>2016-04-28T10:36:04Z</time>
      </trkpt>
      <trkpt lat="44.39925" lon="3.56348">
        <ele>720</ele>
        <time>2016-04-28T10:36:12Z</time>
      </trkpt>
      <trkpt lat="44.39922" lon="3.56342">
        <ele>720</ele>
        <time>2016-04-28T10:36:17Z</time>
      </trkpt>
      <trkpt lat="44.39918" lon="3.56337">
        <ele>720</ele>
        <time>2016-04-28T10:36:23Z</time>
      </trkpt>
      <trkpt lat="44.39916" lon="3.56331">
        <ele>720</ele>
        <time>2016-04-28T10:36:30Z</time>
      </trkpt>
      <trkpt lat="44.39913" lon="3.56304">
        <ele>716</ele>
        <time>2016-04-28T10:36:55Z</time>
      </trkpt>
      <trkpt lat="44.3991" lon="3.56299">
        <ele>715</ele>
        <time>2016-04-28T10:37:01Z</time>
      </trkpt>
      <trkpt lat="44.39903" lon="3.56274">
        <ele>718</ele>
        <time>2016-04-28T10:37:27Z</time>
      </trkpt>
      <trkpt lat="44.39903" lon="3.56267">
        <ele>719</ele>
        <time>2016-04-28T10:37:31Z</time>
      </trkpt>
      <trkpt lat="44.39906" lon="3.56247">
        <ele>721</ele>
        <time>2016-04-28T10:37:43Z</time>
      </trkpt>
      <trkpt lat="44.39907" lon="3.56239">
        <ele>721</ele>
        <time>2016-04-28T10:37:48Z</time>
      </trkpt>
      <trkpt lat="44.39906" lon="3.56218">
        <ele>720</ele>
        <time>2016-04-28T10:38:03Z</time>
      </trkpt>
      <trkpt lat="44.39906" lon="3.56211">
        <ele>720</ele>
        <time>2016-04-28T10:38:08Z</time>
      </trkpt>
      <trkpt lat="44.39906" lon="3.56204">
        <ele>721</ele>
        <time>2016-04-28T10:38:13Z</time>
      </trkpt>
      <trkpt lat="44.39903" lon="3.56199">
        <ele>721</ele>
        <time>2016-04-28T10:38:18Z</time>
      </trkpt>
      <trkpt lat="44.39901" lon="3.56196">
        <ele>720</ele>
        <time>2016-04-28T10:38:24Z</time>
      </trkpt>
      <trkpt lat="44.39896" lon="3.56191">
        <ele>720</ele>
        <time>2016-04-28T10:38:35Z</time>
      </trkpt>
      <trkpt lat="44.39892" lon="3.56187">
        <ele>720</ele>
        <time>2016-04-28T10:38:40Z</time>
      </trkpt>
      <trkpt lat="44.39891" lon="3.5618">
        <ele>720</ele>
        <time>2016-04-28T10:38:45Z</time>
      </trkpt>
      <trkpt lat="44.39892" lon="3.56165">
        <ele>722</ele>
        <time>2016-04-28T10:38:54Z</time>
      </trkpt>
      <trkpt lat="44.39892" lon="3.56157">
        <ele>722</ele>
        <time>2016-04-28T10:38:58Z</time>
      </trkpt>
      <trkpt lat="44.39893" lon="3.5615">
        <ele>721</ele>
        <time>2016-04-28T10:39:02Z</time>
      </trkpt>
      <trkpt lat="44.3989" lon="3.56144">
        <ele>721</ele>
        <time>2016-04-28T10:39:06Z</time>
      </trkpt>
      <trkpt lat="44.39888" lon="3.56137">
        <ele>721</ele>
        <time>2016-04-28T10:39:11Z</time>
      </trkpt>
      <trkpt lat="44.39887" lon="3.56123">
        <ele>722</ele>
        <time>2016-04-28T10:39:19Z</time>
      </trkpt>
      <trkpt lat="44.39883" lon="3.56118">
        <ele>721</ele>
        <time>2016-04-28T10:39:23Z</time>
      </trkpt>
      <trkpt lat="44.39878" lon="3.56114">
        <ele>721</ele>
        <time>2016-04-28T10:39:28Z</time>
      </trkpt>
      <trkpt lat="44.39875" lon="3.56109">
        <ele>721</ele>
        <time>2016-04-28T10:39:33Z</time>
      </trkpt>
      <trkpt lat="44.39873" lon="3.56103">
        <ele>721</ele>
        <time>2016-04-28T10:39:37Z</time>
      </trkpt>
      <trkpt lat="44.39865" lon="3.56094">
        <ele>720</ele>
        <time>2016-04-28T10:39:45Z</time>
      </trkpt>
      <trkpt lat="44.39864" lon="3.56081">
        <ele>716</ele>
        <time>2016-04-28T10:39:54Z</time>
      </trkpt>
      <trkpt lat="44.39861" lon="3.56075">
        <ele>715</ele>
        <time>2016-04-28T10:39:59Z</time>
      </trkpt>
      <trkpt lat="44.39861" lon="3.56069">
        <ele>714</ele>
        <time>2016-04-28T10:40:04Z</time>
      </trkpt>
      <trkpt lat="44.39863" lon="3.56064">
        <ele>713</ele>
        <time>2016-04-28T10:40:52Z</time>
      </trkpt>
      <trkpt lat="44.3986" lon="3.56056">
        <ele>710</ele>
        <time>2016-04-28T10:41:14Z</time>
      </trkpt>
      <trkpt lat="44.39855" lon="3.56053">
        <ele>709</ele>
        <time>2016-04-28T10:41:28Z</time>
      </trkpt>
      <trkpt lat="44.39851" lon="3.56053">
        <ele>709</ele>
        <time>2016-04-28T10:41:39Z</time>
      </trkpt>
      <trkpt lat="44.39847" lon="3.56053">
        <ele>709</ele>
        <time>2016-04-28T10:42:20Z</time>
      </trkpt>
      <trkpt lat="44.39845" lon="3.56053">
        <ele>713</ele>
        <time>2016-04-28T10:44:21Z</time>
      </trkpt>
      <trkpt lat="44.39847" lon="3.56049">
        <ele>709</ele>
        <time>2016-04-28T10:44:59Z</time>
      </trkpt>
      <trkpt lat="44.39846" lon="3.56052">
        <ele>699</ele>
        <time>2016-04-28T11:07:23Z</time>
      </trkpt>
      <trkpt lat="44.39841" lon="3.56054">
        <ele>699</ele>
        <time>2016-04-28T11:07:43Z</time>
      </trkpt>
      <trkpt lat="44.39842" lon="3.5605">
        <ele>717</ele>
        <time>2016-04-28T11:08:49Z</time>
      </trkpt>
      <trkpt lat="44.39845" lon="3.56047">
        <ele>713</ele>
        <time>2016-04-28T11:12:53Z</time>
      </trkpt>
      <trkpt lat="44.39844" lon="3.56048">
        <ele>714</ele>
        <time>2016-04-28T11:14:54Z</time>
      </trkpt>
      <trkpt lat="44.39839" lon="3.56045">
        <ele>714</ele>
        <time>2016-04-28T11:15:03Z</time>
      </trkpt>
      <trkpt lat="44.39835" lon="3.56043">
        <ele>714</ele>
        <time>2016-04-28T11:15:10Z</time>
      </trkpt>
      <trkpt lat="44.39833" lon="3.56037">
        <ele>714</ele>
        <time>2016-04-28T11:15:17Z</time>
      </trkpt>
      <trkpt lat="44.39813" lon="3.56015">
        <ele>719</ele>
        <time>2016-04-28T11:15:41Z</time>
      </trkpt>
      <trkpt lat="44.3981" lon="3.56009">
        <ele>719</ele>
        <time>2016-04-28T11:15:45Z</time>
      </trkpt>
      <trkpt lat="44.39795" lon="3.5599">
        <ele>715</ele>
        <time>2016-04-28T11:16:05Z</time>
      </trkpt>
      <trkpt lat="44.39792" lon="3.55985">
        <ele>715</ele>
        <time>2016-04-28T11:16:10Z</time>
      </trkpt>
      <trkpt lat="44.39788" lon="3.55983">
        <ele>715</ele>
        <time>2016-04-28T11:16:15Z</time>
      </trkpt>
      <trkpt lat="44.39779" lon="3.55974">
        <ele>715</ele>
        <time>2016-04-28T11:16:26Z</time>
      </trkpt>
      <trkpt lat="44.39775" lon="3.5597">
        <ele>715</ele>
        <time>2016-04-28T11:16:33Z</time>
      </trkpt>
      <trkpt lat="44.3977" lon="3.55966">
        <ele>713</ele>
        <time>2016-04-28T11:16:39Z</time>
      </trkpt>
      <trkpt lat="44.39766" lon="3.55963">
        <ele>713</ele>
        <time>2016-04-28T11:16:45Z</time>
      </trkpt>
      <trkpt lat="44.39752" lon="3.55942">
        <ele>718</ele>
        <time>2016-04-28T11:17:05Z</time>
      </trkpt>
      <trkpt lat="44.3975" lon="3.55936">
        <ele>718</ele>
        <time>2016-04-28T11:17:11Z</time>
      </trkpt>
      <trkpt lat="44.39738" lon="3.55925">
        <ele>713</ele>
        <time>2016-04-28T11:17:26Z</time>
      </trkpt>
      <trkpt lat="44.39732" lon="3.55905">
        <ele>712</ele>
        <time>2016-04-28T11:17:43Z</time>
      </trkpt>
      <trkpt lat="44.39731" lon="3.55897">
        <ele>710</ele>
        <time>2016-04-28T11:17:48Z</time>
      </trkpt>
      <trkpt lat="44.39728" lon="3.55893">
        <ele>709</ele>
        <time>2016-04-28T11:17:52Z</time>
      </trkpt>
      <trkpt lat="44.39724" lon="3.55888">
        <ele>710</ele>
        <time>2016-04-28T11:17:56Z</time>
      </trkpt>
      <trkpt lat="44.39719" lon="3.55885">
        <ele>709</ele>
        <time>2016-04-28T11:18:01Z</time>
      </trkpt>
      <trkpt lat="44.39717" lon="3.55881">
        <ele>710</ele>
        <time>2016-04-28T11:18:22Z</time>
      </trkpt>
      <trkpt lat="44.39712" lon="3.55875">
        <ele>709</ele>
        <time>2016-04-28T11:18:34Z</time>
      </trkpt>
      <trkpt lat="44.39708" lon="3.55872">
        <ele>709</ele>
        <time>2016-04-28T11:18:38Z</time>
      </trkpt>
      <trkpt lat="44.39684" lon="3.55861">
        <ele>717</ele>
        <time>2016-04-28T11:19:01Z</time>
      </trkpt>
      <trkpt lat="44.39674" lon="3.55853">
        <ele>717</ele>
        <time>2016-04-28T11:19:12Z</time>
      </trkpt>
      <trkpt lat="44.39669" lon="3.55849">
        <ele>716</ele>
        <time>2016-04-28T11:19:16Z</time>
      </trkpt>
      <trkpt lat="44.39649" lon="3.55831">
        <ele>710</ele>
        <time>2016-04-28T11:19:39Z</time>
      </trkpt>
      <trkpt lat="44.39647" lon="3.55825">
        <ele>710</ele>
        <time>2016-04-28T11:19:44Z</time>
      </trkpt>
      <trkpt lat="44.39643" lon="3.5582">
        <ele>712</ele>
        <time>2016-04-28T11:19:50Z</time>
      </trkpt>
      <trkpt lat="44.39639" lon="3.55816">
        <ele>712</ele>
        <time>2016-04-28T11:19:56Z</time>
      </trkpt>
      <trkpt lat="44.39638" lon="3.5581">
        <ele>711</ele>
        <time>2016-04-28T11:20:06Z</time>
      </trkpt>
      <trkpt lat="44.3964" lon="3.558">
        <ele>713</ele>
        <time>2016-04-28T11:20:19Z</time>
      </trkpt>
      <trkpt lat="44.3964" lon="3.55794">
        <ele>712</ele>
        <time>2016-04-28T11:20:27Z</time>
      </trkpt>
      <trkpt lat="44.39643" lon="3.55788">
        <ele>712</ele>
        <time>2016-04-28T11:20:34Z</time>
      </trkpt>
      <trkpt lat="44.39644" lon="3.55782">
        <ele>712</ele>
        <time>2016-04-28T11:20:43Z</time>
      </trkpt>
      <trkpt lat="44.39647" lon="3.55769">
        <ele>710</ele>
        <time>2016-04-28T11:20:56Z</time>
      </trkpt>
      <trkpt lat="44.39651" lon="3.55764">
        <ele>708</ele>
        <time>2016-04-28T11:21:03Z</time>
      </trkpt>
      <trkpt lat="44.39655" lon="3.55761">
        <ele>707</ele>
        <time>2016-04-28T11:21:08Z</time>
      </trkpt>
      <trkpt lat="44.39658" lon="3.55755">
        <ele>707</ele>
        <time>2016-04-28T11:21:14Z</time>
      </trkpt>
      <trkpt lat="44.39662" lon="3.55751">
        <ele>705</ele>
        <time>2016-04-28T11:21:19Z</time>
      </trkpt>
      <trkpt lat="44.39666" lon="3.5574">
        <ele>700</ele>
        <time>2016-04-28T11:21:34Z</time>
      </trkpt>
      <trkpt lat="44.39668" lon="3.5572">
        <ele>702</ele>
        <time>2016-04-28T11:21:51Z</time>
      </trkpt>
      <trkpt lat="44.39671" lon="3.55715">
        <ele>703</ele>
        <time>2016-04-28T11:21:57Z</time>
      </trkpt>
      <trkpt lat="44.39674" lon="3.55709">
        <ele>702</ele>
        <time>2016-04-28T11:22:03Z</time>
      </trkpt>
      <trkpt lat="44.39676" lon="3.55709">
        <ele>701</ele>
        <time>2016-04-28T11:22:10Z</time>
      </trkpt>
      <trkpt lat="44.39679" lon="3.55704">
        <ele>701</ele>
        <time>2016-04-28T11:22:16Z</time>
      </trkpt>
      <trkpt lat="44.39681" lon="3.55697">
        <ele>699</ele>
        <time>2016-04-28T11:22:22Z</time>
      </trkpt>
      <trkpt lat="44.39684" lon="3.55686">
        <ele>699</ele>
        <time>2016-04-28T11:22:33Z</time>
      </trkpt>
      <trkpt lat="44.39695" lon="3.55664">
        <ele>694</ele>
        <time>2016-04-28T11:22:51Z</time>
      </trkpt>
      <trkpt lat="44.39699" lon="3.55659">
        <ele>694</ele>
        <time>2016-04-28T11:22:56Z</time>
      </trkpt>
      <trkpt lat="44.39707" lon="3.55647">
        <ele>693</ele>
        <time>2016-04-28T11:23:11Z</time>
      </trkpt>
      <trkpt lat="44.39709" lon="3.55642">
        <ele>692</ele>
        <time>2016-04-28T11:23:16Z</time>
      </trkpt>
      <trkpt lat="44.39727" lon="3.55616">
        <ele>685</ele>
        <time>2016-04-28T11:23:38Z</time>
      </trkpt>
      <trkpt lat="44.39731" lon="3.5561">
        <ele>685</ele>
        <time>2016-04-28T11:23:44Z</time>
      </trkpt>
      <trkpt lat="44.39737" lon="3.55601">
        <ele>686</ele>
        <time>2016-04-28T11:23:53Z</time>
      </trkpt>
      <trkpt lat="44.39742" lon="3.55603">
        <ele>687</ele>
        <time>2016-04-28T11:24:14Z</time>
      </trkpt>
      <trkpt lat="44.39744" lon="3.55596">
        <ele>686</ele>
        <time>2016-04-28T11:24:22Z</time>
      </trkpt>
      <trkpt lat="44.39749" lon="3.55578">
        <ele>683</ele>
        <time>2016-04-28T11:24:35Z</time>
      </trkpt>
      <trkpt lat="44.39754" lon="3.55566">
        <ele>684</ele>
        <time>2016-04-28T11:24:43Z</time>
      </trkpt>
      <trkpt lat="44.39758" lon="3.55562">
        <ele>684</ele>
        <time>2016-04-28T11:24:47Z</time>
      </trkpt>
      <trkpt lat="44.39761" lon="3.55557">
        <ele>683</ele>
        <time>2016-04-28T11:24:51Z</time>
      </trkpt>
      <trkpt lat="44.39763" lon="3.5555">
        <ele>683</ele>
        <time>2016-04-28T11:24:56Z</time>
      </trkpt>
      <trkpt lat="44.39766" lon="3.55545">
        <ele>682</ele>
        <time>2016-04-28T11:25:01Z</time>
      </trkpt>
      <trkpt lat="44.39769" lon="3.55539">
        <ele>682</ele>
        <time>2016-04-28T11:25:06Z</time>
      </trkpt>
      <trkpt lat="44.39769" lon="3.55532">
        <ele>681</ele>
        <time>2016-04-28T11:25:13Z</time>
      </trkpt>
      <trkpt lat="44.39778" lon="3.55508">
        <ele>676</ele>
        <time>2016-04-28T11:25:30Z</time>
      </trkpt>
      <trkpt lat="44.39785" lon="3.55499">
        <ele>676</ele>
        <time>2016-04-28T11:25:38Z</time>
      </trkpt>
      <trkpt lat="44.39798" lon="3.55486">
        <ele>677</ele>
        <time>2016-04-28T11:25:53Z</time>
      </trkpt>
      <trkpt lat="44.39802" lon="3.55482">
        <ele>677</ele>
        <time>2016-04-28T11:25:58Z</time>
      </trkpt>
      <trkpt lat="44.39814" lon="3.5547">
        <ele>673</ele>
        <time>2016-04-28T11:26:13Z</time>
      </trkpt>
      <trkpt lat="44.39818" lon="3.55465">
        <ele>673</ele>
        <time>2016-04-28T11:26:18Z</time>
      </trkpt>
      <trkpt lat="44.39822" lon="3.55461">
        <ele>673</ele>
        <time>2016-04-28T11:26:23Z</time>
      </trkpt>
      <trkpt lat="44.39825" lon="3.55456">
        <ele>674</ele>
        <time>2016-04-28T11:26:28Z</time>
      </trkpt>
      <trkpt lat="44.39827" lon="3.55449">
        <ele>673</ele>
        <time>2016-04-28T11:26:33Z</time>
      </trkpt>
      <trkpt lat="44.39825" lon="3.55443">
        <ele>673</ele>
        <time>2016-04-28T11:26:37Z</time>
      </trkpt>
      <trkpt lat="44.39822" lon="3.55434">
        <ele>675</ele>
        <time>2016-04-28T11:27:00Z</time>
      </trkpt>
      <trkpt lat="44.39822" lon="3.55421">
        <ele>674</ele>
        <time>2016-04-28T11:27:18Z</time>
      </trkpt>
      <trkpt lat="44.39826" lon="3.55417">
        <ele>675</ele>
        <time>2016-04-28T11:27:24Z</time>
      </trkpt>
      <trkpt lat="44.39834" lon="3.55409">
        <ele>679</ele>
        <time>2016-04-28T11:27:37Z</time>
      </trkpt>
      <trkpt lat="44.39836" lon="3.55404">
        <ele>678</ele>
        <time>2016-04-28T11:27:43Z</time>
      </trkpt>
      <trkpt lat="44.39838" lon="3.55398">
        <ele>678</ele>
        <time>2016-04-28T11:27:49Z</time>
      </trkpt>
      <trkpt lat="44.39839" lon="3.55391">
        <ele>679</ele>
        <time>2016-04-28T11:27:55Z</time>
      </trkpt>
      <trkpt lat="44.39836" lon="3.55386">
        <ele>679</ele>
        <time>2016-04-28T11:28:03Z</time>
      </trkpt>
      <trkpt lat="44.39832" lon="3.55386">
        <ele>684</ele>
        <time>2016-04-28T11:28:41Z</time>
      </trkpt>
      <trkpt lat="44.3983" lon="3.55387">
        <ele>684</ele>
        <time>2016-04-28T11:28:47Z</time>
      </trkpt>
      <trkpt lat="44.39825" lon="3.55388">
        <ele>683</ele>
        <time>2016-04-28T11:28:55Z</time>
      </trkpt>
      <trkpt lat="44.39821" lon="3.55392">
        <ele>682</ele>
        <time>2016-04-28T11:29:02Z</time>
      </trkpt>
      <trkpt lat="44.39822" lon="3.55397">
        <ele>683</ele>
        <time>2016-04-28T11:29:16Z</time>
      </trkpt>
      <trkpt lat="44.39818" lon="3.554">
        <ele>684</ele>
        <time>2016-04-28T11:29:25Z</time>
      </trkpt>
      <trkpt lat="44.39808" lon="3.55405">
        <ele>687</ele>
        <time>2016-04-28T11:29:32Z</time>
      </trkpt>
      <trkpt lat="44.39805" lon="3.55411">
        <ele>689</ele>
        <time>2016-04-28T11:29:36Z</time>
      </trkpt>
      <trkpt lat="44.39794" lon="3.55421">
        <ele>690</ele>
        <time>2016-04-28T11:29:48Z</time>
      </trkpt>
      <trkpt lat="44.39786" lon="3.55428">
        <ele>693</ele>
        <time>2016-04-28T11:30:01Z</time>
      </trkpt>
      <trkpt lat="44.39782" lon="3.55432">
        <ele>693</ele>
        <time>2016-04-28T11:30:06Z</time>
      </trkpt>
      <trkpt lat="44.39771" lon="3.55437">
        <ele>691</ele>
        <time>2016-04-28T11:30:16Z</time>
      </trkpt>
      <trkpt lat="44.39763" lon="3.55442">
        <ele>691</ele>
        <time>2016-04-28T11:30:24Z</time>
      </trkpt>
      <trkpt lat="44.39757" lon="3.55444">
        <ele>691</ele>
        <time>2016-04-28T11:30:28Z</time>
      </trkpt>
      <trkpt lat="44.39753" lon="3.55449">
        <ele>692</ele>
        <time>2016-04-28T11:30:34Z</time>
      </trkpt>
      <trkpt lat="44.39749" lon="3.55451">
        <ele>691</ele>
        <time>2016-04-28T11:30:39Z</time>
      </trkpt>
      <trkpt lat="44.39746" lon="3.55458">
        <ele>691</ele>
        <time>2016-04-28T11:30:44Z</time>
      </trkpt>
      <trkpt lat="44.39725" lon="3.55475">
        <ele>684</ele>
        <time>2016-04-28T11:31:04Z</time>
      </trkpt>
      <trkpt lat="44.39715" lon="3.55492">
        <ele>687</ele>
        <time>2016-04-28T11:31:18Z</time>
      </trkpt>
      <trkpt lat="44.39712" lon="3.55497">
        <ele>688</ele>
        <time>2016-04-28T11:31:22Z</time>
      </trkpt>
      <trkpt lat="44.39705" lon="3.55507">
        <ele>688</ele>
        <time>2016-04-28T11:31:31Z</time>
      </trkpt>
      <trkpt lat="44.39701" lon="3.55512">
        <ele>688</ele>
        <time>2016-04-28T11:31:36Z</time>
      </trkpt>
      <trkpt lat="44.39682" lon="3.55535">
        <ele>687</ele>
        <time>2016-04-28T11:32:00Z</time>
      </trkpt>
      <trkpt lat="44.3968" lon="3.55542">
        <ele>688</ele>
        <time>2016-04-28T11:32:05Z</time>
      </trkpt>
      <trkpt lat="44.39675" lon="3.55547">
        <ele>688</ele>
        <time>2016-04-28T11:32:10Z</time>
      </trkpt>
      <trkpt lat="44.39669" lon="3.55558">
        <ele>686</ele>
        <time>2016-04-28T11:32:19Z</time>
      </trkpt>
      <trkpt lat="44.3966" lon="3.55563">
        <ele>683</ele>
        <time>2016-04-28T11:32:27Z</time>
      </trkpt>
      <trkpt lat="44.39652" lon="3.55573">
        <ele>681</ele>
        <time>2016-04-28T11:32:37Z</time>
      </trkpt>
      <trkpt lat="44.39643" lon="3.5558">
        <ele>681</ele>
        <time>2016-04-28T11:32:45Z</time>
      </trkpt>
      <trkpt lat="44.39637" lon="3.55589">
        <ele>684</ele>
        <time>2016-04-28T11:32:55Z</time>
      </trkpt>
      <trkpt lat="44.39632" lon="3.5559">
        <ele>684</ele>
        <time>2016-04-28T11:32:59Z</time>
      </trkpt>
      <trkpt lat="44.39623" lon="3.55596">
        <ele>684</ele>
        <time>2016-04-28T11:33:07Z</time>
      </trkpt>
      <trkpt lat="44.39615" lon="3.55608">
        <ele>682</ele>
        <time>2016-04-28T11:33:15Z</time>
      </trkpt>
      <trkpt lat="44.39611" lon="3.55612">
        <ele>683</ele>
        <time>2016-04-28T11:33:19Z</time>
      </trkpt>
      <trkpt lat="44.39607" lon="3.55616">
        <ele>682</ele>
        <time>2016-04-28T11:33:24Z</time>
      </trkpt>
      <trkpt lat="44.39591" lon="3.55642">
        <ele>671</ele>
        <time>2016-04-28T11:33:48Z</time>
      </trkpt>
      <trkpt lat="44.39586" lon="3.55645">
        <ele>670</ele>
        <time>2016-04-28T11:33:54Z</time>
      </trkpt>
      <trkpt lat="44.39581" lon="3.55647">
        <ele>672</ele>
        <time>2016-04-28T11:33:59Z</time>
      </trkpt>
      <trkpt lat="44.39577" lon="3.55651">
        <ele>672</ele>
        <time>2016-04-28T11:34:04Z</time>
      </trkpt>
      <trkpt lat="44.39573" lon="3.55656">
        <ele>673</ele>
        <time>2016-04-28T11:34:09Z</time>
      </trkpt>
      <trkpt lat="44.3956" lon="3.55658">
        <ele>674</ele>
        <time>2016-04-28T11:34:21Z</time>
      </trkpt>
      <trkpt lat="44.39545" lon="3.5565">
        <ele>675</ele>
        <time>2016-04-28T11:34:35Z</time>
      </trkpt>
      <trkpt lat="44.39542" lon="3.55645">
        <ele>676</ele>
        <time>2016-04-28T11:34:39Z</time>
      </trkpt>
      <trkpt lat="44.39538" lon="3.5564">
        <ele>677</ele>
        <time>2016-04-28T11:34:44Z</time>
      </trkpt>
      <trkpt lat="44.3953" lon="3.5563">
        <ele>676</ele>
        <time>2016-04-28T11:34:54Z</time>
      </trkpt>
      <trkpt lat="44.39528" lon="3.55625">
        <ele>676</ele>
        <time>2016-04-28T11:34:59Z</time>
      </trkpt>
      <trkpt lat="44.39525" lon="3.5562">
        <ele>676</ele>
        <time>2016-04-28T11:35:04Z</time>
      </trkpt>
      <trkpt lat="44.39522" lon="3.55614">
        <ele>676</ele>
        <time>2016-04-28T11:35:09Z</time>
      </trkpt>
      <trkpt lat="44.3952" lon="3.55607">
        <ele>676</ele>
        <time>2016-04-28T11:35:14Z</time>
      </trkpt>
      <trkpt lat="44.39519" lon="3.556">
        <ele>676</ele>
        <time>2016-04-28T11:35:19Z</time>
      </trkpt>
      <trkpt lat="44.3952" lon="3.55593">
        <ele>676</ele>
        <time>2016-04-28T11:35:23Z</time>
      </trkpt>
      <trkpt lat="44.39521" lon="3.55566">
        <ele>671</ele>
        <time>2016-04-28T11:35:42Z</time>
      </trkpt>
      <trkpt lat="44.39518" lon="3.5556">
        <ele>672</ele>
        <time>2016-04-28T11:35:46Z</time>
      </trkpt>
      <trkpt lat="44.39516" lon="3.55554">
        <ele>672</ele>
        <time>2016-04-28T11:35:50Z</time>
      </trkpt>
      <trkpt lat="44.39512" lon="3.55553">
        <ele>674</ele>
        <time>2016-04-28T11:35:56Z</time>
      </trkpt>
      <trkpt lat="44.39504" lon="3.5556">
        <ele>676</ele>
        <time>2016-04-28T11:36:05Z</time>
      </trkpt>
      <trkpt lat="44.39503" lon="3.55567">
        <ele>676</ele>
        <time>2016-04-28T11:36:10Z</time>
      </trkpt>
      <trkpt lat="44.39506" lon="3.55573">
        <ele>674</ele>
        <time>2016-04-28T11:36:16Z</time>
      </trkpt>
      <trkpt lat="44.39507" lon="3.5558">
        <ele>674</ele>
        <time>2016-04-28T11:36:23Z</time>
      </trkpt>
      <trkpt lat="44.39505" lon="3.55586">
        <ele>673</ele>
        <time>2016-04-28T11:36:31Z</time>
      </trkpt>
      <trkpt lat="44.39506" lon="3.55593">
        <ele>673</ele>
        <time>2016-04-28T11:36:38Z</time>
      </trkpt>
      <trkpt lat="44.39506" lon="3.55621">
        <ele>668</ele>
        <time>2016-04-28T11:37:03Z</time>
      </trkpt>
      <trkpt lat="44.39506" lon="3.55629">
        <ele>668</ele>
        <time>2016-04-28T11:37:09Z</time>
      </trkpt>
      <trkpt lat="44.39507" lon="3.55635">
        <ele>668</ele>
        <time>2016-04-28T11:37:14Z</time>
      </trkpt>
      <trkpt lat="44.39513" lon="3.55654">
        <ele>669</ele>
        <time>2016-04-28T11:37:28Z</time>
      </trkpt>
      <trkpt lat="44.39511" lon="3.55661">
        <ele>669</ele>
        <time>2016-04-28T11:37:33Z</time>
      </trkpt>
      <trkpt lat="44.39508" lon="3.55688">
        <ele>668</ele>
        <time>2016-04-28T11:37:50Z</time>
      </trkpt>
      <trkpt lat="44.39505" lon="3.55694">
        <ele>668</ele>
        <time>2016-04-28T11:37:54Z</time>
      </trkpt>
      <trkpt lat="44.39491" lon="3.55715">
        <ele>666</ele>
        <time>2016-04-28T11:38:08Z</time>
      </trkpt>
      <trkpt lat="44.39484" lon="3.55725">
        <ele>662</ele>
        <time>2016-04-28T11:38:31Z</time>
      </trkpt>
      <trkpt lat="44.39476" lon="3.55734">
        <ele>662</ele>
        <time>2016-04-28T11:38:44Z</time>
      </trkpt>
      <trkpt lat="44.39471" lon="3.55748">
        <ele>664</ele>
        <time>2016-04-28T11:39:02Z</time>
      </trkpt>
      <trkpt lat="44.39467" lon="3.55752">
        <ele>665</ele>
        <time>2016-04-28T11:39:07Z</time>
      </trkpt>
      <trkpt lat="44.39459" lon="3.5576">
        <ele>664</ele>
        <time>2016-04-28T11:39:16Z</time>
      </trkpt>
      <trkpt lat="44.39452" lon="3.55772">
        <ele>663</ele>
        <time>2016-04-28T11:39:26Z</time>
      </trkpt>
      <trkpt lat="44.39427" lon="3.55793">
        <ele>647</ele>
        <time>2016-04-28T11:39:53Z</time>
      </trkpt>
      <trkpt lat="44.39408" lon="3.55796">
        <ele>651</ele>
        <time>2016-04-28T11:40:10Z</time>
      </trkpt>
      <trkpt lat="44.39402" lon="3.55796">
        <ele>651</ele>
        <time>2016-04-28T11:40:14Z</time>
      </trkpt>
      <trkpt lat="44.39397" lon="3.55795">
        <ele>649</ele>
        <time>2016-04-28T11:40:19Z</time>
      </trkpt>
      <trkpt lat="44.39392" lon="3.55793">
        <ele>649</ele>
        <time>2016-04-28T11:40:24Z</time>
      </trkpt>
      <trkpt lat="44.39368" lon="3.55803">
        <ele>658</ele>
        <time>2016-04-28T11:40:43Z</time>
      </trkpt>
      <trkpt lat="44.39357" lon="3.55801">
        <ele>658</ele>
        <time>2016-04-28T11:40:50Z</time>
      </trkpt>
      <trkpt lat="44.39348" lon="3.55798">
        <ele>661</ele>
        <time>2016-04-28T11:40:58Z</time>
      </trkpt>
      <trkpt lat="44.39343" lon="3.55797">
        <ele>661</ele>
        <time>2016-04-28T11:41:02Z</time>
      </trkpt>
      <trkpt lat="44.39338" lon="3.55795">
        <ele>661</ele>
        <time>2016-04-28T11:41:06Z</time>
      </trkpt>
      <trkpt lat="44.39334" lon="3.5579">
        <ele>660</ele>
        <time>2016-04-28T11:41:10Z</time>
      </trkpt>
      <trkpt lat="44.39321" lon="3.5576">
        <ele>654</ele>
        <time>2016-04-28T11:41:31Z</time>
      </trkpt>
      <trkpt lat="44.39312" lon="3.55756">
        <ele>657</ele>
        <time>2016-04-28T11:41:40Z</time>
      </trkpt>
      <trkpt lat="44.39306" lon="3.55756">
        <ele>657</ele>
        <time>2016-04-28T11:41:44Z</time>
      </trkpt>
      <trkpt lat="44.3929" lon="3.55756">
        <ele>660</ele>
        <time>2016-04-28T11:41:55Z</time>
      </trkpt>
      <trkpt lat="44.39285" lon="3.55753">
        <ele>660</ele>
        <time>2016-04-28T11:41:59Z</time>
      </trkpt>
      <trkpt lat="44.3927" lon="3.55748">
        <ele>659</ele>
        <time>2016-04-28T11:42:11Z</time>
      </trkpt>
      <trkpt lat="44.39265" lon="3.5575">
        <ele>659</ele>
        <time>2016-04-28T11:42:15Z</time>
      </trkpt>
      <trkpt lat="44.39233" lon="3.55767">
        <ele>668</ele>
        <time>2016-04-28T11:42:43Z</time>
      </trkpt>
      <trkpt lat="44.39228" lon="3.55767">
        <ele>668</ele>
        <time>2016-04-28T11:42:47Z</time>
      </trkpt>
      <trkpt lat="44.39221" lon="3.55758">
        <ele>664</ele>
        <time>2016-04-28T11:42:53Z</time>
      </trkpt>
      <trkpt lat="44.39218" lon="3.55746">
        <ele>659</ele>
        <time>2016-04-28T11:42:59Z</time>
      </trkpt>
      <trkpt lat="44.39218" lon="3.55733">
        <ele>655</ele>
        <time>2016-04-28T11:43:06Z</time>
      </trkpt>
      <trkpt lat="44.39217" lon="3.55727">
        <ele>654</ele>
        <time>2016-04-28T11:43:10Z</time>
      </trkpt>
      <trkpt lat="44.39214" lon="3.55721">
        <ele>654</ele>
        <time>2016-04-28T11:43:14Z</time>
      </trkpt>
      <trkpt lat="44.39212" lon="3.55715">
        <ele>653</ele>
        <time>2016-04-28T11:43:19Z</time>
      </trkpt>
      <trkpt lat="44.39207" lon="3.55712">
        <ele>652</ele>
        <time>2016-04-28T11:43:24Z</time>
      </trkpt>
      <trkpt lat="44.39204" lon="3.55707">
        <ele>648</ele>
        <time>2016-04-28T11:43:29Z</time>
      </trkpt>
      <trkpt lat="44.39202" lon="3.557">
        <ele>646</ele>
        <time>2016-04-28T11:43:34Z</time>
      </trkpt>
      <trkpt lat="44.39192" lon="3.55685">
        <ele>641</ele>
        <time>2016-04-28T11:43:47Z</time>
      </trkpt>
      <trkpt lat="44.39182" lon="3.55679">
        <ele>642</ele>
        <time>2016-04-28T11:43:58Z</time>
      </trkpt>
      <trkpt lat="44.39168" lon="3.55679">
        <ele>644</ele>
        <time>2016-04-28T11:44:10Z</time>
      </trkpt>
      <trkpt lat="44.39163" lon="3.55678">
        <ele>643</ele>
        <time>2016-04-28T11:44:15Z</time>
      </trkpt>
      <trkpt lat="44.39148" lon="3.55675">
        <ele>646</ele>
        <time>2016-04-28T11:44:29Z</time>
      </trkpt>
      <trkpt lat="44.39143" lon="3.55675">
        <ele>646</ele>
        <time>2016-04-28T11:44:33Z</time>
      </trkpt>
      <trkpt lat="44.39118" lon="3.55679">
        <ele>638</ele>
        <time>2016-04-28T11:44:56Z</time>
      </trkpt>
      <trkpt lat="44.39107" lon="3.55679">
        <ele>639</ele>
        <time>2016-04-28T11:45:06Z</time>
      </trkpt>
      <trkpt lat="44.39094" lon="3.55671">
        <ele>636</ele>
        <time>2016-04-28T11:45:18Z</time>
      </trkpt>
      <trkpt lat="44.39084" lon="3.55673">
        <ele>638</ele>
        <time>2016-04-28T11:45:27Z</time>
      </trkpt>
      <trkpt lat="44.39081" lon="3.55667">
        <ele>636</ele>
        <time>2016-04-28T11:45:31Z</time>
      </trkpt>
      <trkpt lat="44.39068" lon="3.5566">
        <ele>632</ele>
        <time>2016-04-28T11:45:44Z</time>
      </trkpt>
      <trkpt lat="44.39063" lon="3.5566">
        <ele>632</ele>
        <time>2016-04-28T11:45:48Z</time>
      </trkpt>
      <trkpt lat="44.39053" lon="3.5566">
        <ele>635</ele>
        <time>2016-04-28T11:45:57Z</time>
      </trkpt>
      <trkpt lat="44.39044" lon="3.55653">
        <ele>636</ele>
        <time>2016-04-28T11:46:05Z</time>
      </trkpt>
      <trkpt lat="44.3904" lon="3.5565">
        <ele>637</ele>
        <time>2016-04-28T11:46:09Z</time>
      </trkpt>
      <trkpt lat="44.39035" lon="3.5565">
        <ele>638</ele>
        <time>2016-04-28T11:46:13Z</time>
      </trkpt>
      <trkpt lat="44.39031" lon="3.55646">
        <ele>637</ele>
        <time>2016-04-28T11:46:17Z</time>
      </trkpt>
      <trkpt lat="44.39026" lon="3.55645">
        <ele>638</ele>
        <time>2016-04-28T11:46:21Z</time>
      </trkpt>
      <trkpt lat="44.39017" lon="3.55646">
        <ele>641</ele>
        <time>2016-04-28T11:46:29Z</time>
      </trkpt>
      <trkpt lat="44.39012" lon="3.55645">
        <ele>641</ele>
        <time>2016-04-28T11:46:34Z</time>
      </trkpt>
      <trkpt lat="44.39007" lon="3.55648">
        <ele>641</ele>
        <time>2016-04-28T11:46:38Z</time>
      </trkpt>
      <trkpt lat="44.39002" lon="3.55652">
        <ele>642</ele>
        <time>2016-04-28T11:46:42Z</time>
      </trkpt>
      <trkpt lat="44.38998" lon="3.55651">
        <ele>642</ele>
        <time>2016-04-28T11:46:48Z</time>
      </trkpt>
      <trkpt lat="44.38988" lon="3.5565">
        <ele>639</ele>
        <time>2016-04-28T11:46:55Z</time>
      </trkpt>
      <trkpt lat="44.38984" lon="3.55649">
        <ele>639</ele>
        <time>2016-04-28T11:46:59Z</time>
      </trkpt>
      <trkpt lat="44.38978" lon="3.55652">
        <ele>640</ele>
        <time>2016-04-28T11:47:03Z</time>
      </trkpt>
      <trkpt lat="44.38958" lon="3.55653">
        <ele>634</ele>
        <time>2016-04-28T11:47:20Z</time>
      </trkpt>
      <trkpt lat="44.38952" lon="3.55652">
        <ele>635</ele>
        <time>2016-04-28T11:47:25Z</time>
      </trkpt>
      <trkpt lat="44.38942" lon="3.55652">
        <ele>635</ele>
        <time>2016-04-28T11:47:33Z</time>
      </trkpt>
      <trkpt lat="44.38936" lon="3.55651">
        <ele>635</ele>
        <time>2016-04-28T11:47:39Z</time>
      </trkpt>
      <trkpt lat="44.38927" lon="3.55644">
        <ele>631</ele>
        <time>2016-04-28T11:47:47Z</time>
      </trkpt>
      <trkpt lat="44.38923" lon="3.55642">
        <ele>632</ele>
        <time>2016-04-28T11:47:51Z</time>
      </trkpt>
      <trkpt lat="44.38926" lon="3.55641">
        <ele>625</ele>
        <time>2016-04-28T11:48:03Z</time>
      </trkpt>
      <trkpt lat="44.3894" lon="3.55643">
        <ele>618</ele>
        <time>2016-04-28T11:48:18Z</time>
      </trkpt>
      <trkpt lat="44.38944" lon="3.55648">
        <ele>618</ele>
        <time>2016-04-28T11:48:24Z</time>
      </trkpt>
      <trkpt lat="44.38953" lon="3.55653">
        <ele>619</ele>
        <time>2016-04-28T11:48:36Z</time>
      </trkpt>
      <trkpt lat="44.38959" lon="3.55653">
        <ele>619</ele>
        <time>2016-04-28T11:48:41Z</time>
      </trkpt>
      <trkpt lat="44.38964" lon="3.55654">
        <ele>619</ele>
        <time>2016-04-28T11:48:46Z</time>
      </trkpt>
      <trkpt lat="44.3897" lon="3.55656">
        <ele>619</ele>
        <time>2016-04-28T11:48:51Z</time>
      </trkpt>
      <trkpt lat="44.38975" lon="3.55658">
        <ele>618</ele>
        <time>2016-04-28T11:48:56Z</time>
      </trkpt>
      <trkpt lat="44.38983" lon="3.55663">
        <ele>618</ele>
        <time>2016-04-28T11:49:04Z</time>
      </trkpt>
      <trkpt lat="44.38988" lon="3.55665">
        <ele>617</ele>
        <time>2016-04-28T11:49:09Z</time>
      </trkpt>
      <trkpt lat="44.38992" lon="3.55667">
        <ele>617</ele>
        <time>2016-04-28T11:49:13Z</time>
      </trkpt>
      <trkpt lat="44.39006" lon="3.55676">
        <ele>621</ele>
        <time>2016-04-28T11:49:26Z</time>
      </trkpt>
      <trkpt lat="44.39012" lon="3.55677">
        <ele>620</ele>
        <time>2016-04-28T11:49:31Z</time>
      </trkpt>
      <trkpt lat="44.39017" lon="3.55677">
        <ele>618</ele>
        <time>2016-04-28T11:49:34Z</time>
      </trkpt>
      <trkpt lat="44.3902" lon="3.55683">
        <ele>616</ele>
        <time>2016-04-28T11:49:40Z</time>
      </trkpt>
      <trkpt lat="44.39016" lon="3.55685">
        <ele>614</ele>
        <time>2016-04-28T11:49:47Z</time>
      </trkpt>
      <trkpt lat="44.39007" lon="3.55681">
        <ele>613</ele>
        <time>2016-04-28T11:49:56Z</time>
      </trkpt>
      <trkpt lat="44.38997" lon="3.55677">
        <ele>609</ele>
        <time>2016-04-28T11:50:07Z</time>
      </trkpt>
      <trkpt lat="44.38987" lon="3.55679">
        <ele>609</ele>
        <time>2016-04-28T11:50:15Z</time>
      </trkpt>
      <trkpt lat="44.38973" lon="3.55686">
        <ele>612</ele>
        <time>2016-04-28T11:50:27Z</time>
      </trkpt>
      <trkpt lat="44.38968" lon="3.55684">
        <ele>612</ele>
        <time>2016-04-28T11:50:32Z</time>
      </trkpt>
      <trkpt lat="44.38963" lon="3.55682">
        <ele>612</ele>
        <time>2016-04-28T11:50:37Z</time>
      </trkpt>
      <trkpt lat="44.38958" lon="3.55683">
        <ele>612</ele>
        <time>2016-04-28T11:50:43Z</time>
      </trkpt>
      <trkpt lat="44.38949" lon="3.55687">
        <ele>608</ele>
        <time>2016-04-28T11:50:54Z</time>
      </trkpt>
      <trkpt lat="44.38943" lon="3.55691">
        <ele>608</ele>
        <time>2016-04-28T11:50:59Z</time>
      </trkpt>
      <trkpt lat="44.38928" lon="3.55693">
        <ele>610</ele>
        <time>2016-04-28T11:51:10Z</time>
      </trkpt>
      <trkpt lat="44.38919" lon="3.55692">
        <ele>613</ele>
        <time>2016-04-28T11:51:19Z</time>
      </trkpt>
      <trkpt lat="44.38899" lon="3.55672">
        <ele>604</ele>
        <time>2016-04-28T11:51:41Z</time>
      </trkpt>
      <trkpt lat="44.38894" lon="3.55674">
        <ele>603</ele>
        <time>2016-04-28T11:51:45Z</time>
      </trkpt>
      <trkpt lat="44.38889" lon="3.55679">
        <ele>602</ele>
        <time>2016-04-28T11:51:49Z</time>
      </trkpt>
      <trkpt lat="44.38882" lon="3.55675">
        <ele>602</ele>
        <time>2016-04-28T11:51:54Z</time>
      </trkpt>
      <trkpt lat="44.38877" lon="3.55676">
        <ele>602</ele>
        <time>2016-04-28T11:51:59Z</time>
      </trkpt>
      <trkpt lat="44.38873" lon="3.55676">
        <ele>601</ele>
        <time>2016-04-28T11:52:03Z</time>
      </trkpt>
      <trkpt lat="44.38868" lon="3.55675">
        <ele>601</ele>
        <time>2016-04-28T11:52:06Z</time>
      </trkpt>
      <trkpt lat="44.38864" lon="3.55675">
        <ele>601</ele>
        <time>2016-04-28T11:52:10Z</time>
      </trkpt>
      <trkpt lat="44.38859" lon="3.55684">
        <ele>600</ele>
        <time>2016-04-28T11:52:22Z</time>
      </trkpt>
      <trkpt lat="44.38852" lon="3.55695">
        <ele>596</ele>
        <time>2016-04-28T11:52:35Z</time>
      </trkpt>
      <trkpt lat="44.38845" lon="3.55704">
        <ele>595</ele>
        <time>2016-04-28T11:52:44Z</time>
      </trkpt>
      <trkpt lat="44.38831" lon="3.55716">
        <ele>596</ele>
        <time>2016-04-28T11:52:53Z</time>
      </trkpt>
      <trkpt lat="44.38826" lon="3.55718">
        <ele>596</ele>
        <time>2016-04-28T11:52:57Z</time>
      </trkpt>
      <trkpt lat="44.38811" lon="3.55716">
        <ele>584</ele>
        <time>2016-04-28T11:53:16Z</time>
      </trkpt>
      <trkpt lat="44.38807" lon="3.55721">
        <ele>581</ele>
        <time>2016-04-28T11:53:23Z</time>
      </trkpt>
      <trkpt lat="44.388" lon="3.5573">
        <ele>580</ele>
        <time>2016-04-28T11:53:34Z</time>
      </trkpt>
      <trkpt lat="44.38794" lon="3.55744">
        <ele>571</ele>
        <time>2016-04-28T11:54:00Z</time>
      </trkpt>
      <trkpt lat="44.38789" lon="3.55749">
        <ele>573</ele>
        <time>2016-04-28T11:54:11Z</time>
      </trkpt>
      <trkpt lat="44.38787" lon="3.55752">
        <ele>579</ele>
        <time>2016-04-28T11:54:35Z</time>
      </trkpt>
      <trkpt lat="44.38782" lon="3.55751">
        <ele>579</ele>
        <time>2016-04-28T11:54:42Z</time>
      </trkpt>
      <trkpt lat="44.38779" lon="3.55749">
        <ele>577</ele>
        <time>2016-04-28T11:54:53Z</time>
      </trkpt>
      <trkpt lat="44.38774" lon="3.5575">
        <ele>576</ele>
        <time>2016-04-28T11:55:00Z</time>
      </trkpt>
      <trkpt lat="44.38772" lon="3.55744">
        <ele>577</ele>
        <time>2016-04-28T11:55:07Z</time>
      </trkpt>
      <trkpt lat="44.38759" lon="3.55729">
        <ele>576</ele>
        <time>2016-04-28T11:55:22Z</time>
      </trkpt>
      <trkpt lat="44.38743" lon="3.55721">
        <ele>578</ele>
        <time>2016-04-28T11:55:35Z</time>
      </trkpt>
      <trkpt lat="44.38741" lon="3.55715">
        <ele>579</ele>
        <time>2016-04-28T11:55:39Z</time>
      </trkpt>
      <trkpt lat="44.38736" lon="3.55711">
        <ele>579</ele>
        <time>2016-04-28T11:55:43Z</time>
      </trkpt>
      <trkpt lat="44.38727" lon="3.55703">
        <ele>578</ele>
        <time>2016-04-28T11:55:50Z</time>
      </trkpt>
      <trkpt lat="44.38718" lon="3.55696">
        <ele>575</ele>
        <time>2016-04-28T11:55:56Z</time>
      </trkpt>
      <trkpt lat="44.38714" lon="3.55691">
        <ele>575</ele>
        <time>2016-04-28T11:56:00Z</time>
      </trkpt>
      <trkpt lat="44.38711" lon="3.55686">
        <ele>575</ele>
        <time>2016-04-28T11:56:04Z</time>
      </trkpt>
      <trkpt lat="44.38701" lon="3.5567">
        <ele>580</ele>
        <time>2016-04-28T11:56:17Z</time>
      </trkpt>
      <trkpt lat="44.38697" lon="3.55666">
        <ele>580</ele>
        <time>2016-04-28T11:56:21Z</time>
      </trkpt>
      <trkpt lat="44.38692" lon="3.55654">
        <ele>577</ele>
        <time>2016-04-28T11:56:30Z</time>
      </trkpt>
      <trkpt lat="44.38689" lon="3.55649">
        <ele>577</ele>
        <time>2016-04-28T11:56:34Z</time>
      </trkpt>
      <trkpt lat="44.3868" lon="3.5564">
        <ele>578</ele>
        <time>2016-04-28T11:56:44Z</time>
      </trkpt>
      <trkpt lat="44.38672" lon="3.5563">
        <ele>575</ele>
        <time>2016-04-28T11:56:52Z</time>
      </trkpt>
      <trkpt lat="44.3867" lon="3.55625">
        <ele>576</ele>
        <time>2016-04-28T11:56:56Z</time>
      </trkpt>
      <trkpt lat="44.38666" lon="3.55619">
        <ele>576</ele>
        <time>2016-04-28T11:57:01Z</time>
      </trkpt>
      <trkpt lat="44.38662" lon="3.55622">
        <ele>576</ele>
        <time>2016-04-28T11:57:05Z</time>
      </trkpt>
      <trkpt lat="44.38658" lon="3.55619">
        <ele>576</ele>
        <time>2016-04-28T11:57:09Z</time>
      </trkpt>
      <trkpt lat="44.3865" lon="3.55609">
        <ele>579</ele>
        <time>2016-04-28T11:57:18Z</time>
      </trkpt>
      <trkpt lat="44.38646" lon="3.55598">
        <ele>579</ele>
        <time>2016-04-28T11:57:26Z</time>
      </trkpt>
      <trkpt lat="44.38643" lon="3.55592">
        <ele>579</ele>
        <time>2016-04-28T11:57:30Z</time>
      </trkpt>
      <trkpt lat="44.38631" lon="3.55576">
        <ele>575</ele>
        <time>2016-04-28T11:57:42Z</time>
      </trkpt>
      <trkpt lat="44.38622" lon="3.55572">
        <ele>577</ele>
        <time>2016-04-28T11:57:50Z</time>
      </trkpt>
      <trkpt lat="44.38618" lon="3.55567">
        <ele>578</ele>
        <time>2016-04-28T11:57:55Z</time>
      </trkpt>
      <trkpt lat="44.38613" lon="3.55568">
        <ele>579</ele>
        <time>2016-04-28T11:57:59Z</time>
      </trkpt>
      <trkpt lat="44.38609" lon="3.55571">
        <ele>581</ele>
        <time>2016-04-28T11:58:02Z</time>
      </trkpt>
      <trkpt lat="44.38604" lon="3.55568">
        <ele>581</ele>
        <time>2016-04-28T11:58:08Z</time>
      </trkpt>
      <trkpt lat="44.38602" lon="3.55561">
        <ele>582</ele>
        <time>2016-04-28T11:58:12Z</time>
      </trkpt>
      <trkpt lat="44.38599" lon="3.55555">
        <ele>582</ele>
        <time>2016-04-28T11:58:16Z</time>
      </trkpt>
      <trkpt lat="44.38598" lon="3.55548">
        <ele>582</ele>
        <time>2016-04-28T11:58:20Z</time>
      </trkpt>
      <trkpt lat="44.38593" lon="3.55547">
        <ele>584</ele>
        <time>2016-04-28T11:58:27Z</time>
      </trkpt>
      <trkpt lat="44.38588" lon="3.55549">
        <ele>587</ele>
        <time>2016-04-28T11:58:32Z</time>
      </trkpt>
      <trkpt lat="44.38585" lon="3.55545">
        <ele>587</ele>
        <time>2016-04-28T11:58:36Z</time>
      </trkpt>
      <trkpt lat="44.3858" lon="3.55542">
        <ele>587</ele>
        <time>2016-04-28T11:58:40Z</time>
      </trkpt>
      <trkpt lat="44.3856" lon="3.55536">
        <ele>582</ele>
        <time>2016-04-28T11:59:00Z</time>
      </trkpt>
      <trkpt lat="44.38555" lon="3.55536">
        <ele>581</ele>
        <time>2016-04-28T11:59:04Z</time>
      </trkpt>
      <trkpt lat="44.38545" lon="3.55539">
        <ele>584</ele>
        <time>2016-04-28T11:59:14Z</time>
      </trkpt>
      <trkpt lat="44.38535" lon="3.55533">
        <ele>585</ele>
        <time>2016-04-28T11:59:23Z</time>
      </trkpt>
      <trkpt lat="44.3852" lon="3.55539">
        <ele>590</ele>
        <time>2016-04-28T11:59:35Z</time>
      </trkpt>
      <trkpt lat="44.38515" lon="3.55535">
        <ele>589</ele>
        <time>2016-04-28T11:59:41Z</time>
      </trkpt>
      <trkpt lat="44.3851" lon="3.55532">
        <ele>588</ele>
        <time>2016-04-28T11:59:47Z</time>
      </trkpt>
      <trkpt lat="44.38477" lon="3.55509">
        <ele>569</ele>
        <time>2016-04-28T12:00:20Z</time>
      </trkpt>
      <trkpt lat="44.38463" lon="3.55501">
        <ele>566</ele>
        <time>2016-04-28T12:00:36Z</time>
      </trkpt>
      <trkpt lat="44.38457" lon="3.55501">
        <ele>566</ele>
        <time>2016-04-28T12:00:42Z</time>
      </trkpt>
      <trkpt lat="44.38447" lon="3.55495">
        <ele>562</ele>
        <time>2016-04-28T12:00:49Z</time>
      </trkpt>
      <trkpt lat="44.3845" lon="3.55482">
        <ele>559</ele>
        <time>2016-04-28T12:00:56Z</time>
      </trkpt>
      <trkpt lat="44.3845" lon="3.55477">
        <ele>556</ele>
        <time>2016-04-28T12:01:05Z</time>
      </trkpt>
      <trkpt lat="44.38446" lon="3.55476">
        <ele>552</ele>
        <time>2016-04-28T12:01:48Z</time>
      </trkpt>
      <trkpt lat="44.38441" lon="3.55473">
        <ele>551</ele>
        <time>2016-04-28T12:01:53Z</time>
      </trkpt>
      <trkpt lat="44.38433" lon="3.55472">
        <ele>551</ele>
        <time>2016-04-28T12:01:57Z</time>
      </trkpt>
      <trkpt lat="44.3843" lon="3.55466">
        <ele>553</ele>
        <time>2016-04-28T12:02:02Z</time>
      </trkpt>
      <trkpt lat="44.38428" lon="3.55459">
        <ele>554</ele>
        <time>2016-04-28T12:02:06Z</time>
      </trkpt>
      <trkpt lat="44.38422" lon="3.55454">
        <ele>554</ele>
        <time>2016-04-28T12:02:11Z</time>
      </trkpt>
      <trkpt lat="44.3841" lon="3.55427">
        <ele>548</ele>
        <time>2016-04-28T12:02:27Z</time>
      </trkpt>
      <trkpt lat="44.38407" lon="3.55423">
        <ele>548</ele>
        <time>2016-04-28T12:02:31Z</time>
      </trkpt>
      <trkpt lat="44.38401" lon="3.55423">
        <ele>550</ele>
        <time>2016-04-28T12:02:35Z</time>
      </trkpt>
      <trkpt lat="44.38384" lon="3.55428">
        <ele>556</ele>
        <time>2016-04-28T12:02:48Z</time>
      </trkpt>
      <trkpt lat="44.38379" lon="3.55424">
        <ele>556</ele>
        <time>2016-04-28T12:02:54Z</time>
      </trkpt>
      <trkpt lat="44.38375" lon="3.5542">
        <ele>556</ele>
        <time>2016-04-28T12:02:57Z</time>
      </trkpt>
      <trkpt lat="44.3837" lon="3.55419">
        <ele>558</ele>
        <time>2016-04-28T12:03:02Z</time>
      </trkpt>
      <trkpt lat="44.38365" lon="3.55422">
        <ele>561</ele>
        <time>2016-04-28T12:03:06Z</time>
      </trkpt>
      <trkpt lat="44.38356" lon="3.55421">
        <ele>564</ele>
        <time>2016-04-28T12:03:13Z</time>
      </trkpt>
      <trkpt lat="44.38347" lon="3.55427">
        <ele>567</ele>
        <time>2016-04-28T12:03:19Z</time>
      </trkpt>
      <trkpt lat="44.38343" lon="3.55427">
        <ele>568</ele>
        <time>2016-04-28T12:03:23Z</time>
      </trkpt>
      <trkpt lat="44.38337" lon="3.55425">
        <ele>568</ele>
        <time>2016-04-28T12:03:28Z</time>
      </trkpt>
      <trkpt lat="44.38333" lon="3.55423">
        <ele>565</ele>
        <time>2016-04-28T12:03:33Z</time>
      </trkpt>
      <trkpt lat="44.38328" lon="3.55419">
        <ele>565</ele>
        <time>2016-04-28T12:03:37Z</time>
      </trkpt>
      <trkpt lat="44.38324" lon="3.55419">
        <ele>564</ele>
        <time>2016-04-28T12:03:41Z</time>
      </trkpt>
      <trkpt lat="44.38319" lon="3.55416">
        <ele>565</ele>
        <time>2016-04-28T12:03:46Z</time>
      </trkpt>
      <trkpt lat="44.38314" lon="3.55415">
        <ele>566</ele>
        <time>2016-04-28T12:03:50Z</time>
      </trkpt>
      <trkpt lat="44.38309" lon="3.55413">
        <ele>566</ele>
        <time>2016-04-28T12:03:54Z</time>
      </trkpt>
      <trkpt lat="44.38304" lon="3.55413">
        <ele>567</ele>
        <time>2016-04-28T12:03:59Z</time>
      </trkpt>
      <trkpt lat="44.38289" lon="3.55418">
        <ele>571</ele>
        <time>2016-04-28T12:04:11Z</time>
      </trkpt>
      <trkpt lat="44.38286" lon="3.55413">
        <ele>570</ele>
        <time>2016-04-28T12:04:16Z</time>
      </trkpt>
      <trkpt lat="44.38282" lon="3.55407">
        <ele>569</ele>
        <time>2016-04-28T12:04:19Z</time>
      </trkpt>
      <trkpt lat="44.38278" lon="3.55405">
        <ele>569</ele>
        <time>2016-04-28T12:04:23Z</time>
      </trkpt>
      <trkpt lat="44.38276" lon="3.55397">
        <ele>569</ele>
        <time>2016-04-28T12:04:27Z</time>
      </trkpt>
      <trkpt lat="44.38275" lon="3.55391">
        <ele>571</ele>
        <time>2016-04-28T12:04:31Z</time>
      </trkpt>
      <trkpt lat="44.38271" lon="3.55394">
        <ele>572</ele>
        <time>2016-04-28T12:04:33Z</time>
      </trkpt>
      <trkpt lat="44.38266" lon="3.55391">
        <ele>570</ele>
        <time>2016-04-28T12:04:37Z</time>
      </trkpt>
      <trkpt lat="44.38264" lon="3.55384">
        <ele>570</ele>
        <time>2016-04-28T12:04:40Z</time>
      </trkpt>
      <trkpt lat="44.3826" lon="3.55379">
        <ele>568</ele>
        <time>2016-04-28T12:04:44Z</time>
      </trkpt>
      <trkpt lat="44.38254" lon="3.55377">
        <ele>568</ele>
        <time>2016-04-28T12:04:48Z</time>
      </trkpt>
      <trkpt lat="44.38245" lon="3.55371">
        <ele>571</ele>
        <time>2016-04-28T12:04:58Z</time>
      </trkpt>
      <trkpt lat="44.38239" lon="3.55368">
        <ele>571</ele>
        <time>2016-04-28T12:05:02Z</time>
      </trkpt>
      <trkpt lat="44.3823" lon="3.55365">
        <ele>569</ele>
        <time>2016-04-28T12:05:09Z</time>
      </trkpt>
      <trkpt lat="44.38226" lon="3.55359">
        <ele>566</ele>
        <time>2016-04-28T12:05:13Z</time>
      </trkpt>
      <trkpt lat="44.38223" lon="3.55353">
        <ele>565</ele>
        <time>2016-04-28T12:05:17Z</time>
      </trkpt>
      <trkpt lat="44.38221" lon="3.5534">
        <ele>566</ele>
        <time>2016-04-28T12:05:24Z</time>
      </trkpt>
      <trkpt lat="44.38215" lon="3.55329">
        <ele>567</ele>
        <time>2016-04-28T12:05:32Z</time>
      </trkpt>
      <trkpt lat="44.38197" lon="3.55313">
        <ele>562</ele>
        <time>2016-04-28T12:05:49Z</time>
      </trkpt>
      <trkpt lat="44.38197" lon="3.55309">
        <ele>559</ele>
        <time>2016-04-28T12:06:01Z</time>
      </trkpt>
      <trkpt lat="44.38195" lon="3.55303">
        <ele>555</ele>
        <time>2016-04-28T12:06:05Z</time>
      </trkpt>
      <trkpt lat="44.3818" lon="3.55279">
        <ele>545</ele>
        <time>2016-04-28T12:06:20Z</time>
      </trkpt>
      <trkpt lat="44.38165" lon="3.55277">
        <ele>540</ele>
        <time>2016-04-28T12:06:33Z</time>
      </trkpt>
      <trkpt lat="44.38158" lon="3.55268">
        <ele>539</ele>
        <time>2016-04-28T12:06:43Z</time>
      </trkpt>
      <trkpt lat="44.38152" lon="3.5526">
        <ele>540</ele>
        <time>2016-04-28T12:06:59Z</time>
      </trkpt>
      <trkpt lat="44.38146" lon="3.55254">
        <ele>538</ele>
        <time>2016-04-28T12:07:12Z</time>
      </trkpt>
      <trkpt lat="44.38133" lon="3.55246">
        <ele>536</ele>
        <time>2016-04-28T12:07:25Z</time>
      </trkpt>
      <trkpt lat="44.38128" lon="3.55244">
        <ele>536</ele>
        <time>2016-04-28T12:07:30Z</time>
      </trkpt>
      <trkpt lat="44.38119" lon="3.55238">
        <ele>538</ele>
        <time>2016-04-28T12:07:39Z</time>
      </trkpt>
      <trkpt lat="44.38115" lon="3.55234">
        <ele>538</ele>
        <time>2016-04-28T12:07:44Z</time>
      </trkpt>
      <trkpt lat="44.38088" lon="3.55226">
        <ele>531</ele>
        <time>2016-04-28T12:08:08Z</time>
      </trkpt>
      <trkpt lat="44.38083" lon="3.55227">
        <ele>531</ele>
        <time>2016-04-28T12:08:13Z</time>
      </trkpt>
      <trkpt lat="44.38072" lon="3.55228">
        <ele>531</ele>
        <time>2016-04-28T12:08:22Z</time>
      </trkpt>
      <trkpt lat="44.38057" lon="3.55229">
        <ele>534</ele>
        <time>2016-04-28T12:08:37Z</time>
      </trkpt>
      <trkpt lat="44.38053" lon="3.55229">
        <ele>534</ele>
        <time>2016-04-28T12:08:43Z</time>
      </trkpt>
      <trkpt lat="44.38042" lon="3.55228">
        <ele>532</ele>
        <time>2016-04-28T12:08:53Z</time>
      </trkpt>
      <trkpt lat="44.38037" lon="3.55227">
        <ele>531</ele>
        <time>2016-04-28T12:08:57Z</time>
      </trkpt>
      <trkpt lat="44.38032" lon="3.55224">
        <ele>531</ele>
        <time>2016-04-28T12:09:02Z</time>
      </trkpt>
      <trkpt lat="44.38023" lon="3.55218">
        <ele>528</ele>
        <time>2016-04-28T12:09:12Z</time>
      </trkpt>
      <trkpt lat="44.38018" lon="3.55214">
        <ele>528</ele>
        <time>2016-04-28T12:09:16Z</time>
      </trkpt>
      <trkpt lat="44.37984" lon="3.55169">
        <ele>539</ele>
        <time>2016-04-28T12:09:49Z</time>
      </trkpt>
      <trkpt lat="44.37981" lon="3.55162">
        <ele>541</ele>
        <time>2016-04-28T12:09:53Z</time>
      </trkpt>
      <trkpt lat="44.37979" lon="3.55155">
        <ele>539</ele>
        <time>2016-04-28T12:09:57Z</time>
      </trkpt>
      <trkpt lat="44.37977" lon="3.55149">
        <ele>539</ele>
        <time>2016-04-28T12:10:01Z</time>
      </trkpt>
      <trkpt lat="44.3797" lon="3.55141">
        <ele>540</ele>
        <time>2016-04-28T12:10:09Z</time>
      </trkpt>
      <trkpt lat="44.37967" lon="3.55133">
        <ele>539</ele>
        <time>2016-04-28T12:10:13Z</time>
      </trkpt>
      <trkpt lat="44.37964" lon="3.55127">
        <ele>538</ele>
        <time>2016-04-28T12:10:17Z</time>
      </trkpt>
      <trkpt lat="44.37961" lon="3.55122">
        <ele>538</ele>
        <time>2016-04-28T12:10:21Z</time>
      </trkpt>
      <trkpt lat="44.37959" lon="3.55115">
        <ele>539</ele>
        <time>2016-04-28T12:10:25Z</time>
      </trkpt>
      <trkpt lat="44.37957" lon="3.55108">
        <ele>539</ele>
        <time>2016-04-28T12:10:30Z</time>
      </trkpt>
      <trkpt lat="44.37954" lon="3.55088">
        <ele>534</ele>
        <time>2016-04-28T12:10:46Z</time>
      </trkpt>
      <trkpt lat="44.37951" lon="3.55083">
        <ele>535</ele>
        <time>2016-04-28T12:10:52Z</time>
      </trkpt>
      <trkpt lat="44.37946" lon="3.55081">
        <ele>535</ele>
        <time>2016-04-28T12:10:56Z</time>
      </trkpt>
      <trkpt lat="44.37941" lon="3.55079">
        <ele>535</ele>
        <time>2016-04-28T12:11:00Z</time>
      </trkpt>
      <trkpt lat="44.37936" lon="3.55078">
        <ele>535</ele>
        <time>2016-04-28T12:11:04Z</time>
      </trkpt>
      <trkpt lat="44.37932" lon="3.55074">
        <ele>536</ele>
        <time>2016-04-28T12:11:08Z</time>
      </trkpt>
      <trkpt lat="44.37929" lon="3.55069">
        <ele>536</ele>
        <time>2016-04-28T12:11:12Z</time>
      </trkpt>
      <trkpt lat="44.37925" lon="3.55066">
        <ele>537</ele>
        <time>2016-04-28T12:11:16Z</time>
      </trkpt>
      <trkpt lat="44.3792" lon="3.5507">
        <ele>537</ele>
        <time>2016-04-28T12:11:20Z</time>
      </trkpt>
      <trkpt lat="44.37915" lon="3.55072">
        <ele>537</ele>
        <time>2016-04-28T12:11:24Z</time>
      </trkpt>
      <trkpt lat="44.37904" lon="3.55064">
        <ele>532</ele>
        <time>2016-04-28T12:11:34Z</time>
      </trkpt>
      <trkpt lat="44.37895" lon="3.55057">
        <ele>528</ele>
        <time>2016-04-28T12:11:42Z</time>
      </trkpt>
      <trkpt lat="44.37885" lon="3.5506">
        <ele>526</ele>
        <time>2016-04-28T12:11:49Z</time>
      </trkpt>
      <trkpt lat="44.37879" lon="3.5506">
        <ele>526</ele>
        <time>2016-04-28T12:11:53Z</time>
      </trkpt>
      <trkpt lat="44.37875" lon="3.5506">
        <ele>527</ele>
        <time>2016-04-28T12:11:58Z</time>
      </trkpt>
      <trkpt lat="44.37869" lon="3.55058">
        <ele>527</ele>
        <time>2016-04-28T12:12:04Z</time>
      </trkpt>
      <trkpt lat="44.37869" lon="3.55052">
        <ele>526</ele>
        <time>2016-04-28T12:12:12Z</time>
      </trkpt>
      <trkpt lat="44.37869" lon="3.55048">
        <ele>523</ele>
        <time>2016-04-28T12:12:23Z</time>
      </trkpt>
      <trkpt lat="44.37863" lon="3.55052">
        <ele>521</ele>
        <time>2016-04-28T12:12:27Z</time>
      </trkpt>
      <trkpt lat="44.37858" lon="3.55054">
        <ele>521</ele>
        <time>2016-04-28T12:12:31Z</time>
      </trkpt>
      <trkpt lat="44.37853" lon="3.55056">
        <ele>521</ele>
        <time>2016-04-28T12:12:34Z</time>
      </trkpt>
      <trkpt lat="44.37849" lon="3.55053">
        <ele>520</ele>
        <time>2016-04-28T12:12:54Z</time>
      </trkpt>
      <trkpt lat="44.37844" lon="3.55055">
        <ele>521</ele>
        <time>2016-04-28T12:12:58Z</time>
      </trkpt>
      <trkpt lat="44.37834" lon="3.55056">
        <ele>523</ele>
        <time>2016-04-28T12:13:06Z</time>
      </trkpt>
      <trkpt lat="44.37829" lon="3.55053">
        <ele>523</ele>
        <time>2016-04-28T12:13:09Z</time>
      </trkpt>
      <trkpt lat="44.37824" lon="3.55051">
        <ele>523</ele>
        <time>2016-04-28T12:13:13Z</time>
      </trkpt>
      <trkpt lat="44.37819" lon="3.55049">
        <ele>523</ele>
        <time>2016-04-28T12:13:17Z</time>
      </trkpt>
      <trkpt lat="44.37802" lon="3.55034">
        <ele>519</ele>
        <time>2016-04-28T12:13:33Z</time>
      </trkpt>
      <trkpt lat="44.37797" lon="3.55031">
        <ele>520</ele>
        <time>2016-04-28T12:13:38Z</time>
      </trkpt>
      <trkpt lat="44.37792" lon="3.55028">
        <ele>522</ele>
        <time>2016-04-28T12:13:43Z</time>
      </trkpt>
      <trkpt lat="44.37781" lon="3.55029">
        <ele>523</ele>
        <time>2016-04-28T12:13:51Z</time>
      </trkpt>
      <trkpt lat="44.37777" lon="3.55026">
        <ele>523</ele>
        <time>2016-04-28T12:13:56Z</time>
      </trkpt>
      <trkpt lat="44.37778" lon="3.55023">
        <ele>523</ele>
        <time>2016-04-28T12:14:06Z</time>
      </trkpt>
      <trkpt lat="44.37775" lon="3.55019">
        <ele>522</ele>
        <time>2016-04-28T12:14:16Z</time>
      </trkpt>
      <trkpt lat="44.3777" lon="3.55016">
        <ele>523</ele>
        <time>2016-04-28T12:14:20Z</time>
      </trkpt>
      <trkpt lat="44.37766" lon="3.55019">
        <ele>524</ele>
        <time>2016-04-28T12:14:27Z</time>
      </trkpt>
      <trkpt lat="44.37761" lon="3.55016">
        <ele>523</ele>
        <time>2016-04-28T12:14:32Z</time>
      </trkpt>
      <trkpt lat="44.37758" lon="3.55011">
        <ele>522</ele>
        <time>2016-04-28T12:14:37Z</time>
      </trkpt>
      <trkpt lat="44.37753" lon="3.54998">
        <ele>521</ele>
        <time>2016-04-28T12:14:46Z</time>
      </trkpt>
      <trkpt lat="44.37754" lon="3.54996">
        <ele>519</ele>
        <time>2016-04-28T12:15:09Z</time>
      </trkpt>
      <trkpt lat="44.3775" lon="3.54991">
        <ele>516</ele>
        <time>2016-04-28T12:15:29Z</time>
      </trkpt>
      <trkpt lat="44.37747" lon="3.54984">
        <ele>516</ele>
        <time>2016-04-28T12:15:33Z</time>
      </trkpt>
      <trkpt lat="44.37743" lon="3.54982">
        <ele>517</ele>
        <time>2016-04-28T12:15:38Z</time>
      </trkpt>
      <trkpt lat="44.37737" lon="3.5497">
        <ele>519</ele>
        <time>2016-04-28T12:15:47Z</time>
      </trkpt>
      <trkpt lat="44.37734" lon="3.54957">
        <ele>522</ele>
        <time>2016-04-28T12:15:58Z</time>
      </trkpt>
      <trkpt lat="44.3773" lon="3.54953">
        <ele>522</ele>
        <time>2016-04-28T12:16:06Z</time>
      </trkpt>
      <trkpt lat="44.37726" lon="3.54941">
        <ele>522</ele>
        <time>2016-04-28T12:16:17Z</time>
      </trkpt>
      <trkpt lat="44.37722" lon="3.54936">
        <ele>522</ele>
        <time>2016-04-28T12:16:23Z</time>
      </trkpt>
      <trkpt lat="44.37719" lon="3.54931">
        <ele>522</ele>
        <time>2016-04-28T12:16:28Z</time>
      </trkpt>
      <trkpt lat="44.37713" lon="3.54918">
        <ele>520</ele>
        <time>2016-04-28T12:16:38Z</time>
      </trkpt>
      <trkpt lat="44.37711" lon="3.54912">
        <ele>520</ele>
        <time>2016-04-28T12:16:42Z</time>
      </trkpt>
      <trkpt lat="44.3771" lon="3.54905">
        <ele>520</ele>
        <time>2016-04-28T12:16:47Z</time>
      </trkpt>
      <trkpt lat="44.37709" lon="3.54898">
        <ele>521</ele>
        <time>2016-04-28T12:16:52Z</time>
      </trkpt>
      <trkpt lat="44.37707" lon="3.54892">
        <ele>521</ele>
        <time>2016-04-28T12:16:56Z</time>
      </trkpt>
      <trkpt lat="44.37705" lon="3.54879">
        <ele>521</ele>
        <time>2016-04-28T12:17:04Z</time>
      </trkpt>
      <trkpt lat="44.37703" lon="3.54872">
        <ele>522</ele>
        <time>2016-04-28T12:17:09Z</time>
      </trkpt>
      <trkpt lat="44.377" lon="3.54867">
        <ele>523</ele>
        <time>2016-04-28T12:17:13Z</time>
      </trkpt>
      <trkpt lat="44.37698" lon="3.5486">
        <ele>522</ele>
        <time>2016-04-28T12:17:18Z</time>
      </trkpt>
      <trkpt lat="44.37685" lon="3.54815">
        <ele>516</ele>
        <time>2016-04-28T12:17:48Z</time>
      </trkpt>
      <trkpt lat="44.37684" lon="3.54808">
        <ele>515</ele>
        <time>2016-04-28T12:17:52Z</time>
      </trkpt>
      <trkpt lat="44.37685" lon="3.54801">
        <ele>515</ele>
        <time>2016-04-28T12:17:56Z</time>
      </trkpt>
      <trkpt lat="44.37684" lon="3.54794">
        <ele>515</ele>
        <time>2016-04-28T12:18:01Z</time>
      </trkpt>
      <trkpt lat="44.37682" lon="3.54779">
        <ele>514</ele>
        <time>2016-04-28T12:18:11Z</time>
      </trkpt>
      <trkpt lat="44.37679" lon="3.54773">
        <ele>512</ele>
        <time>2016-04-28T12:18:16Z</time>
      </trkpt>
      <trkpt lat="44.37678" lon="3.54768">
        <ele>509</ele>
        <time>2016-04-28T12:18:34Z</time>
      </trkpt>
      <trkpt lat="44.37677" lon="3.54761">
        <ele>510</ele>
        <time>2016-04-28T12:18:39Z</time>
      </trkpt>
      <trkpt lat="44.37666" lon="3.54725">
        <ele>522</ele>
        <time>2016-04-28T12:19:17Z</time>
      </trkpt>
      <trkpt lat="44.37665" lon="3.54718">
        <ele>522</ele>
        <time>2016-04-28T12:19:21Z</time>
      </trkpt>
      <trkpt lat="44.37663" lon="3.54712">
        <ele>522</ele>
        <time>2016-04-28T12:19:25Z</time>
      </trkpt>
      <trkpt lat="44.37663" lon="3.54704">
        <ele>522</ele>
        <time>2016-04-28T12:19:29Z</time>
      </trkpt>
      <trkpt lat="44.3766" lon="3.54699">
        <ele>521</ele>
        <time>2016-04-28T12:19:33Z</time>
      </trkpt>
      <trkpt lat="44.37653" lon="3.54688">
        <ele>523</ele>
        <time>2016-04-28T12:19:42Z</time>
      </trkpt>
      <trkpt lat="44.37651" lon="3.54683">
        <ele>523</ele>
        <time>2016-04-28T12:19:46Z</time>
      </trkpt>
      <trkpt lat="44.37647" lon="3.54678">
        <ele>523</ele>
        <time>2016-04-28T12:19:50Z</time>
      </trkpt>
      <trkpt lat="44.37629" lon="3.5463">
        <ele>514</ele>
        <time>2016-04-28T12:20:21Z</time>
      </trkpt>
      <trkpt lat="44.37627" lon="3.54623">
        <ele>513</ele>
        <time>2016-04-28T12:20:26Z</time>
      </trkpt>
      <trkpt lat="44.37624" lon="3.54617">
        <ele>513</ele>
        <time>2016-04-28T12:20:30Z</time>
      </trkpt>
      <trkpt lat="44.37618" lon="3.54606">
        <ele>512</ele>
        <time>2016-04-28T12:20:38Z</time>
      </trkpt>
      <trkpt lat="44.37612" lon="3.54597">
        <ele>513</ele>
        <time>2016-04-28T12:20:46Z</time>
      </trkpt>
      <trkpt lat="44.37608" lon="3.54592">
        <ele>515</ele>
        <time>2016-04-28T12:20:50Z</time>
      </trkpt>
      <trkpt lat="44.37595" lon="3.54559">
        <ele>524</ele>
        <time>2016-04-28T12:21:10Z</time>
      </trkpt>
      <trkpt lat="44.37592" lon="3.54553">
        <ele>522</ele>
        <time>2016-04-28T12:21:14Z</time>
      </trkpt>
      <trkpt lat="44.37584" lon="3.54534">
        <ele>522</ele>
        <time>2016-04-28T12:21:26Z</time>
      </trkpt>
      <trkpt lat="44.37577" lon="3.54514">
        <ele>518</ele>
        <time>2016-04-28T12:21:39Z</time>
      </trkpt>
      <trkpt lat="44.37565" lon="3.54492">
        <ele>518</ele>
        <time>2016-04-28T12:21:57Z</time>
      </trkpt>
      <trkpt lat="44.37559" lon="3.54463">
        <ele>515</ele>
        <time>2016-04-28T12:22:13Z</time>
      </trkpt>
      <trkpt lat="44.37553" lon="3.54444">
        <ele>515</ele>
        <time>2016-04-28T12:22:26Z</time>
      </trkpt>
      <trkpt lat="44.3754" lon="3.54419">
        <ele>519</ele>
        <time>2016-04-28T12:22:43Z</time>
      </trkpt>
      <trkpt lat="44.37537" lon="3.54404">
        <ele>519</ele>
        <time>2016-04-28T12:22:51Z</time>
      </trkpt>
      <trkpt lat="44.37531" lon="3.54393">
        <ele>520</ele>
        <time>2016-04-28T12:22:59Z</time>
      </trkpt>
      <trkpt lat="44.3753" lon="3.54386">
        <ele>520</ele>
        <time>2016-04-28T12:23:03Z</time>
      </trkpt>
      <trkpt lat="44.37527" lon="3.5438">
        <ele>521</ele>
        <time>2016-04-28T12:23:07Z</time>
      </trkpt>
      <trkpt lat="44.37523" lon="3.54376">
        <ele>521</ele>
        <time>2016-04-28T12:23:11Z</time>
      </trkpt>
      <trkpt lat="44.37519" lon="3.5437">
        <ele>521</ele>
        <time>2016-04-28T12:23:16Z</time>
      </trkpt>
      <trkpt lat="44.37514" lon="3.5435">
        <ele>519</ele>
        <time>2016-04-28T12:23:29Z</time>
      </trkpt>
      <trkpt lat="44.3751" lon="3.54344">
        <ele>520</ele>
        <time>2016-04-28T12:23:33Z</time>
      </trkpt>
      <trkpt lat="44.37508" lon="3.54338">
        <ele>521</ele>
        <time>2016-04-28T12:23:37Z</time>
      </trkpt>
      <trkpt lat="44.37503" lon="3.54334">
        <ele>522</ele>
        <time>2016-04-28T12:23:42Z</time>
      </trkpt>
      <trkpt lat="44.37495" lon="3.54327">
        <ele>521</ele>
        <time>2016-04-28T12:23:50Z</time>
      </trkpt>
      <trkpt lat="44.37487" lon="3.54309">
        <ele>518</ele>
        <time>2016-04-28T12:24:01Z</time>
      </trkpt>
      <trkpt lat="44.37481" lon="3.54298">
        <ele>519</ele>
        <time>2016-04-28T12:24:09Z</time>
      </trkpt>
      <trkpt lat="44.37482" lon="3.54289">
        <ele>520</ele>
        <time>2016-04-28T12:24:14Z</time>
      </trkpt>
      <trkpt lat="44.37476" lon="3.54269">
        <ele>521</ele>
        <time>2016-04-28T12:24:26Z</time>
      </trkpt>
      <trkpt lat="44.37473" lon="3.54263">
        <ele>521</ele>
        <time>2016-04-28T12:24:30Z</time>
      </trkpt>
      <trkpt lat="44.37469" lon="3.54258">
        <ele>521</ele>
        <time>2016-04-28T12:24:33Z</time>
      </trkpt>
      <trkpt lat="44.37466" lon="3.54251">
        <ele>519</ele>
        <time>2016-04-28T12:24:37Z</time>
      </trkpt>
      <trkpt lat="44.37463" lon="3.54247">
        <ele>519</ele>
        <time>2016-04-28T12:24:41Z</time>
      </trkpt>
      <trkpt lat="44.37458" lon="3.54243">
        <ele>519</ele>
        <time>2016-04-28T12:24:46Z</time>
      </trkpt>
      <trkpt lat="44.37454" lon="3.5423">
        <ele>519</ele>
        <time>2016-04-28T12:24:54Z</time>
      </trkpt>
      <trkpt lat="44.37453" lon="3.54223">
        <ele>518</ele>
        <time>2016-04-28T12:24:58Z</time>
      </trkpt>
      <trkpt lat="44.37449" lon="3.54219">
        <ele>518</ele>
        <time>2016-04-28T12:25:03Z</time>
      </trkpt>
      <trkpt lat="44.37446" lon="3.54214">
        <ele>520</ele>
        <time>2016-04-28T12:25:07Z</time>
      </trkpt>
      <trkpt lat="44.37441" lon="3.54202">
        <ele>523</ele>
        <time>2016-04-28T12:25:15Z</time>
      </trkpt>
      <trkpt lat="44.37433" lon="3.54194">
        <ele>523</ele>
        <time>2016-04-28T12:25:22Z</time>
      </trkpt>
      <trkpt lat="44.3743" lon="3.54188">
        <ele>522</ele>
        <time>2016-04-28T12:25:27Z</time>
      </trkpt>
      <trkpt lat="44.37419" lon="3.54186">
        <ele>521</ele>
        <time>2016-04-28T12:25:35Z</time>
      </trkpt>
      <trkpt lat="44.37416" lon="3.54181">
        <ele>521</ele>
        <time>2016-04-28T12:25:39Z</time>
      </trkpt>
      <trkpt lat="44.37413" lon="3.54175">
        <ele>521</ele>
        <time>2016-04-28T12:25:43Z</time>
      </trkpt>
      <trkpt lat="44.37411" lon="3.54169">
        <ele>522</ele>
        <time>2016-04-28T12:25:47Z</time>
      </trkpt>
      <trkpt lat="44.37398" lon="3.54156">
        <ele>526</ele>
        <time>2016-04-28T12:26:01Z</time>
      </trkpt>
      <trkpt lat="44.3739" lon="3.54147">
        <ele>527</ele>
        <time>2016-04-28T12:26:09Z</time>
      </trkpt>
      <trkpt lat="44.37387" lon="3.54141">
        <ele>527</ele>
        <time>2016-04-28T12:26:13Z</time>
      </trkpt>
      <trkpt lat="44.37383" lon="3.54138">
        <ele>526</ele>
        <time>2016-04-28T12:26:17Z</time>
      </trkpt>
      <trkpt lat="44.37378" lon="3.54137">
        <ele>526</ele>
        <time>2016-04-28T12:26:21Z</time>
      </trkpt>
      <trkpt lat="44.3737" lon="3.54128">
        <ele>525</ele>
        <time>2016-04-28T12:26:31Z</time>
      </trkpt>
      <trkpt lat="44.37358" lon="3.54116">
        <ele>527</ele>
        <time>2016-04-28T12:26:46Z</time>
      </trkpt>
      <trkpt lat="44.37355" lon="3.54103">
        <ele>527</ele>
        <time>2016-04-28T12:26:55Z</time>
      </trkpt>
      <trkpt lat="44.37351" lon="3.541">
        <ele>528</ele>
        <time>2016-04-28T12:27:01Z</time>
      </trkpt>
      <trkpt lat="44.37348" lon="3.54096">
        <ele>527</ele>
        <time>2016-04-28T12:27:06Z</time>
      </trkpt>
      <trkpt lat="44.37343" lon="3.54095">
        <ele>528</ele>
        <time>2016-04-28T12:27:12Z</time>
      </trkpt>
      <trkpt lat="44.37335" lon="3.54088">
        <ele>529</ele>
        <time>2016-04-28T12:27:23Z</time>
      </trkpt>
      <trkpt lat="44.3733" lon="3.54087">
        <ele>530</ele>
        <time>2016-04-28T12:27:28Z</time>
      </trkpt>
      <trkpt lat="44.37325" lon="3.54083">
        <ele>529</ele>
        <time>2016-04-28T12:27:33Z</time>
      </trkpt>
      <trkpt lat="44.37323" lon="3.54077">
        <ele>528</ele>
        <time>2016-04-28T12:27:37Z</time>
      </trkpt>
      <trkpt lat="44.37319" lon="3.54073">
        <ele>527</ele>
        <time>2016-04-28T12:27:41Z</time>
      </trkpt>
      <trkpt lat="44.37315" lon="3.5407">
        <ele>528</ele>
        <time>2016-04-28T12:27:46Z</time>
      </trkpt>
      <trkpt lat="44.37303" lon="3.54065">
        <ele>525</ele>
        <time>2016-04-28T12:28:02Z</time>
      </trkpt>
      <trkpt lat="44.373" lon="3.54061">
        <ele>525</ele>
        <time>2016-04-28T12:28:06Z</time>
      </trkpt>
      <trkpt lat="44.37295" lon="3.54056">
        <ele>525</ele>
        <time>2016-04-28T12:28:10Z</time>
      </trkpt>
      <trkpt lat="44.37287" lon="3.5405">
        <ele>525</ele>
        <time>2016-04-28T12:28:17Z</time>
      </trkpt>
      <trkpt lat="44.37263" lon="3.54037">
        <ele>531</ele>
        <time>2016-04-28T12:28:39Z</time>
      </trkpt>
      <trkpt lat="44.37261" lon="3.54031">
        <ele>532</ele>
        <time>2016-04-28T12:28:45Z</time>
      </trkpt>
      <trkpt lat="44.37257" lon="3.54028">
        <ele>534</ele>
        <time>2016-04-28T12:28:50Z</time>
      </trkpt>
      <trkpt lat="44.37226" lon="3.54001">
        <ele>527</ele>
        <time>2016-04-28T12:29:23Z</time>
      </trkpt>
      <trkpt lat="44.37222" lon="3.53998">
        <ele>527</ele>
        <time>2016-04-28T12:29:28Z</time>
      </trkpt>
      <trkpt lat="44.37217" lon="3.53997">
        <ele>526</ele>
        <time>2016-04-28T12:29:33Z</time>
      </trkpt>
      <trkpt lat="44.37213" lon="3.53993">
        <ele>525</ele>
        <time>2016-04-28T12:29:39Z</time>
      </trkpt>
      <trkpt lat="44.37208" lon="3.53992">
        <ele>525</ele>
        <time>2016-04-28T12:29:44Z</time>
      </trkpt>
      <trkpt lat="44.37198" lon="3.53992">
        <ele>527</ele>
        <time>2016-04-28T12:29:54Z</time>
      </trkpt>
      <trkpt lat="44.37191" lon="3.53983">
        <ele>527</ele>
        <time>2016-04-28T12:30:01Z</time>
      </trkpt>
      <trkpt lat="44.37173" lon="3.53982">
        <ele>534</ele>
        <time>2016-04-28T12:30:19Z</time>
      </trkpt>
      <trkpt lat="44.37164" lon="3.53975">
        <ele>535</ele>
        <time>2016-04-28T12:30:28Z</time>
      </trkpt>
      <trkpt lat="44.37161" lon="3.5397">
        <ele>535</ele>
        <time>2016-04-28T12:30:32Z</time>
      </trkpt>
      <trkpt lat="44.3716" lon="3.53967">
        <ele>534</ele>
        <time>2016-04-28T12:30:41Z</time>
      </trkpt>
      <trkpt lat="44.37167" lon="3.53962">
        <ele>534</ele>
        <time>2016-04-28T12:30:46Z</time>
      </trkpt>
      <trkpt lat="44.37166" lon="3.53958">
        <ele>531</ele>
        <time>2016-04-28T12:30:59Z</time>
      </trkpt>
      <trkpt lat="44.37163" lon="3.53955">
        <ele>533</ele>
        <time>2016-04-28T12:31:22Z</time>
      </trkpt>
      <trkpt lat="44.37157" lon="3.53959">
        <ele>533</ele>
        <time>2016-04-28T12:31:27Z</time>
      </trkpt>
      <trkpt lat="44.37152" lon="3.53955">
        <ele>533</ele>
        <time>2016-04-28T12:31:33Z</time>
      </trkpt>
      <trkpt lat="44.37143" lon="3.53949">
        <ele>530</ele>
        <time>2016-04-28T12:31:43Z</time>
      </trkpt>
      <trkpt lat="44.37134" lon="3.53941">
        <ele>531</ele>
        <time>2016-04-28T12:31:52Z</time>
      </trkpt>
      <trkpt lat="44.37128" lon="3.53944">
        <ele>532</ele>
        <time>2016-04-28T12:31:56Z</time>
      </trkpt>
      <trkpt lat="44.37122" lon="3.53948">
        <ele>533</ele>
        <time>2016-04-28T12:32:00Z</time>
      </trkpt>
      <trkpt lat="44.37117" lon="3.53948">
        <ele>533</ele>
        <time>2016-04-28T12:32:04Z</time>
      </trkpt>
      <trkpt lat="44.37106" lon="3.53946">
        <ele>534</ele>
        <time>2016-04-28T12:32:12Z</time>
      </trkpt>
      <trkpt lat="44.37097" lon="3.53938">
        <ele>536</ele>
        <time>2016-04-28T12:32:21Z</time>
      </trkpt>
      <trkpt lat="44.37092" lon="3.53924">
        <ele>533</ele>
        <time>2016-04-28T12:32:30Z</time>
      </trkpt>
      <trkpt lat="44.37092" lon="3.5392">
        <ele>534</ele>
        <time>2016-04-28T12:32:44Z</time>
      </trkpt>
      <trkpt lat="44.37089" lon="3.53914">
        <ele>534</ele>
        <time>2016-04-28T12:32:49Z</time>
      </trkpt>
      <trkpt lat="44.3709" lon="3.53904">
        <ele>532</ele>
        <time>2016-04-28T12:32:54Z</time>
      </trkpt>
      <trkpt lat="44.37088" lon="3.53898">
        <ele>531</ele>
        <time>2016-04-28T12:32:58Z</time>
      </trkpt>
      <trkpt lat="44.3708" lon="3.53889">
        <ele>531</ele>
        <time>2016-04-28T12:33:07Z</time>
      </trkpt>
      <trkpt lat="44.37078" lon="3.53882">
        <ele>531</ele>
        <time>2016-04-28T12:33:12Z</time>
      </trkpt>
      <trkpt lat="44.37075" lon="3.53876">
        <ele>531</ele>
        <time>2016-04-28T12:33:17Z</time>
      </trkpt>
      <trkpt lat="44.37073" lon="3.5387">
        <ele>533</ele>
        <time>2016-04-28T12:33:22Z</time>
      </trkpt>
      <trkpt lat="44.3707" lon="3.53865">
        <ele>534</ele>
        <time>2016-04-28T12:33:26Z</time>
      </trkpt>
      <trkpt lat="44.37068" lon="3.53859">
        <ele>535</ele>
        <time>2016-04-28T12:33:30Z</time>
      </trkpt>
      <trkpt lat="44.37059" lon="3.53835">
        <ele>534</ele>
        <time>2016-04-28T12:33:46Z</time>
      </trkpt>
      <trkpt lat="44.37058" lon="3.53829">
        <ele>534</ele>
        <time>2016-04-28T12:33:50Z</time>
      </trkpt>
      <trkpt lat="44.37053" lon="3.53818">
        <ele>535</ele>
        <time>2016-04-28T12:33:58Z</time>
      </trkpt>
      <trkpt lat="44.37043" lon="3.53803">
        <ele>534</ele>
        <time>2016-04-28T12:34:11Z</time>
      </trkpt>
      <trkpt lat="44.37034" lon="3.53797">
        <ele>533</ele>
        <time>2016-04-28T12:34:19Z</time>
      </trkpt>
      <trkpt lat="44.37028" lon="3.53788">
        <ele>534</ele>
        <time>2016-04-28T12:34:27Z</time>
      </trkpt>
      <trkpt lat="44.37027" lon="3.53781">
        <ele>535</ele>
        <time>2016-04-28T12:34:31Z</time>
      </trkpt>
      <trkpt lat="44.37025" lon="3.53775">
        <ele>535</ele>
        <time>2016-04-28T12:34:35Z</time>
      </trkpt>
      <trkpt lat="44.37023" lon="3.53768">
        <ele>536</ele>
        <time>2016-04-28T12:34:39Z</time>
      </trkpt>
      <trkpt lat="44.37024" lon="3.53761">
        <ele>535</ele>
        <time>2016-04-28T12:34:43Z</time>
      </trkpt>
      <trkpt lat="44.37027" lon="3.53754">
        <ele>535</ele>
        <time>2016-04-28T12:34:47Z</time>
      </trkpt>
      <trkpt lat="44.37029" lon="3.53746">
        <ele>536</ele>
        <time>2016-04-28T12:34:51Z</time>
      </trkpt>
      <trkpt lat="44.3703" lon="3.5374">
        <ele>535</ele>
        <time>2016-04-28T12:34:55Z</time>
      </trkpt>
      <trkpt lat="44.37031" lon="3.53733">
        <ele>534</ele>
        <time>2016-04-28T12:34:59Z</time>
      </trkpt>
      <trkpt lat="44.37036" lon="3.53719">
        <ele>533</ele>
        <time>2016-04-28T12:35:08Z</time>
      </trkpt>
      <trkpt lat="44.37039" lon="3.53707">
        <ele>530</ele>
        <time>2016-04-28T12:35:19Z</time>
      </trkpt>
      <trkpt lat="44.37041" lon="3.53701">
        <ele>529</ele>
        <time>2016-04-28T12:35:24Z</time>
      </trkpt>
      <trkpt lat="44.37041" lon="3.53694">
        <ele>529</ele>
        <time>2016-04-28T12:35:29Z</time>
      </trkpt>
      <trkpt lat="44.37039" lon="3.53681">
        <ele>530</ele>
        <time>2016-04-28T12:35:41Z</time>
      </trkpt>
      <trkpt lat="44.37044" lon="3.5367">
        <ele>532</ele>
        <time>2016-04-28T12:35:50Z</time>
      </trkpt>
      <trkpt lat="44.37052" lon="3.53659">
        <ele>533</ele>
        <time>2016-04-28T12:35:58Z</time>
      </trkpt>
      <trkpt lat="44.37057" lon="3.53657">
        <ele>534</ele>
        <time>2016-04-28T12:36:01Z</time>
      </trkpt>
      <trkpt lat="44.37059" lon="3.53651">
        <ele>536</ele>
        <time>2016-04-28T12:36:09Z</time>
      </trkpt>
      <trkpt lat="44.3706" lon="3.53644">
        <ele>538</ele>
        <time>2016-04-28T12:36:12Z</time>
      </trkpt>
      <trkpt lat="44.37061" lon="3.53636">
        <ele>538</ele>
        <time>2016-04-28T12:36:15Z</time>
      </trkpt>
      <trkpt lat="44.37061" lon="3.5363">
        <ele>538</ele>
        <time>2016-04-28T12:36:18Z</time>
      </trkpt>
      <trkpt lat="44.37061" lon="3.53623">
        <ele>539</ele>
        <time>2016-04-28T12:36:22Z</time>
      </trkpt>
      <trkpt lat="44.37059" lon="3.53617">
        <ele>540</ele>
        <time>2016-04-28T12:36:27Z</time>
      </trkpt>
      <trkpt lat="44.37055" lon="3.53614">
        <ele>541</ele>
        <time>2016-04-28T12:36:31Z</time>
      </trkpt>
      <trkpt lat="44.37055" lon="3.53606">
        <ele>540</ele>
        <time>2016-04-28T12:36:38Z</time>
      </trkpt>
      <trkpt lat="44.37057" lon="3.53598">
        <ele>538</ele>
        <time>2016-04-28T12:36:41Z</time>
      </trkpt>
      <trkpt lat="44.37056" lon="3.53584">
        <ele>541</ele>
        <time>2016-04-28T12:36:53Z</time>
      </trkpt>
      <trkpt lat="44.37065" lon="3.53571">
        <ele>538</ele>
        <time>2016-04-28T12:37:00Z</time>
      </trkpt>
      <trkpt lat="44.37066" lon="3.53567">
        <ele>538</ele>
        <time>2016-04-28T12:37:18Z</time>
      </trkpt>
      <trkpt lat="44.37069" lon="3.5356">
        <ele>537</ele>
        <time>2016-04-28T12:37:21Z</time>
      </trkpt>
      <trkpt lat="44.37072" lon="3.53555">
        <ele>536</ele>
        <time>2016-04-28T12:37:23Z</time>
      </trkpt>
      <trkpt lat="44.37074" lon="3.53547">
        <ele>536</ele>
        <time>2016-04-28T12:37:27Z</time>
      </trkpt>
      <trkpt lat="44.37075" lon="3.5354">
        <ele>538</ele>
        <time>2016-04-28T12:37:32Z</time>
      </trkpt>
      <trkpt lat="44.37077" lon="3.53533">
        <ele>537</ele>
        <time>2016-04-28T12:37:36Z</time>
      </trkpt>
      <trkpt lat="44.37075" lon="3.53526">
        <ele>537</ele>
        <time>2016-04-28T12:37:40Z</time>
      </trkpt>
      <trkpt lat="44.37073" lon="3.53519">
        <ele>537</ele>
        <time>2016-04-28T12:37:44Z</time>
      </trkpt>
      <trkpt lat="44.37073" lon="3.53513">
        <ele>532</ele>
        <time>2016-04-28T12:37:52Z</time>
      </trkpt>
      <trkpt lat="44.37076" lon="3.53508">
        <ele>530</ele>
        <time>2016-04-28T12:37:57Z</time>
      </trkpt>
      <trkpt lat="44.37079" lon="3.53506">
        <ele>531</ele>
        <time>2016-04-28T12:38:06Z</time>
      </trkpt>
      <trkpt lat="44.37083" lon="3.53499">
        <ele>532</ele>
        <time>2016-04-28T12:38:12Z</time>
      </trkpt>
      <trkpt lat="44.37087" lon="3.53497">
        <ele>532</ele>
        <time>2016-04-28T12:38:15Z</time>
      </trkpt>
      <trkpt lat="44.37095" lon="3.53481">
        <ele>531</ele>
        <time>2016-04-28T12:38:30Z</time>
      </trkpt>
      <trkpt lat="44.37103" lon="3.53476">
        <ele>532</ele>
        <time>2016-04-28T12:38:35Z</time>
      </trkpt>
      <trkpt lat="44.37107" lon="3.53473">
        <ele>531</ele>
        <time>2016-04-28T12:38:38Z</time>
      </trkpt>
      <trkpt lat="44.37111" lon="3.53461">
        <ele>527</ele>
        <time>2016-04-28T12:38:45Z</time>
      </trkpt>
      <trkpt lat="44.37114" lon="3.53461">
        <ele>530</ele>
        <time>2016-04-28T12:39:03Z</time>
      </trkpt>
      <trkpt lat="44.37115" lon="3.53453">
        <ele>530</ele>
        <time>2016-04-28T12:39:09Z</time>
      </trkpt>
      <trkpt lat="44.37119" lon="3.53448">
        <ele>531</ele>
        <time>2016-04-28T12:39:13Z</time>
      </trkpt>
      <trkpt lat="44.37122" lon="3.53442">
        <ele>531</ele>
        <time>2016-04-28T12:39:18Z</time>
      </trkpt>
      <trkpt lat="44.37127" lon="3.53431">
        <ele>529</ele>
        <time>2016-04-28T12:39:27Z</time>
      </trkpt>
      <trkpt lat="44.37137" lon="3.53416">
        <ele>530</ele>
        <time>2016-04-28T12:39:40Z</time>
      </trkpt>
      <trkpt lat="44.3714" lon="3.53411">
        <ele>530</ele>
        <time>2016-04-28T12:39:43Z</time>
      </trkpt>
      <trkpt lat="44.3715" lon="3.53395">
        <ele>528</ele>
        <time>2016-04-28T12:39:52Z</time>
      </trkpt>
      <trkpt lat="44.37152" lon="3.53389">
        <ele>526</ele>
        <time>2016-04-28T12:39:58Z</time>
      </trkpt>
      <trkpt lat="44.37156" lon="3.53385">
        <ele>522</ele>
        <time>2016-04-28T12:40:03Z</time>
      </trkpt>
      <trkpt lat="44.37161" lon="3.53382">
        <ele>522</ele>
        <time>2016-04-28T12:40:08Z</time>
      </trkpt>
      <trkpt lat="44.37177" lon="3.53367">
        <ele>527</ele>
        <time>2016-04-28T12:40:24Z</time>
      </trkpt>
      <trkpt lat="44.3718" lon="3.53362">
        <ele>527</ele>
        <time>2016-04-28T12:40:29Z</time>
      </trkpt>
      <trkpt lat="44.37182" lon="3.53355">
        <ele>528</ele>
        <time>2016-04-28T12:40:37Z</time>
      </trkpt>
      <trkpt lat="44.37187" lon="3.53354">
        <ele>529</ele>
        <time>2016-04-28T12:40:42Z</time>
      </trkpt>
      <trkpt lat="44.37189" lon="3.53342">
        <ele>529</ele>
        <time>2016-04-28T12:40:55Z</time>
      </trkpt>
      <trkpt lat="44.37197" lon="3.53334">
        <ele>528</ele>
        <time>2016-04-28T12:41:02Z</time>
      </trkpt>
      <trkpt lat="44.37201" lon="3.53329">
        <ele>529</ele>
        <time>2016-04-28T12:41:07Z</time>
      </trkpt>
      <trkpt lat="44.37199" lon="3.53333">
        <ele>526</ele>
        <time>2016-04-28T12:42:03Z</time>
      </trkpt>
      <trkpt lat="44.37197" lon="3.53341">
        <ele>525</ele>
        <time>2016-04-28T12:42:37Z</time>
      </trkpt>
      <trkpt lat="44.37193" lon="3.5334">
        <ele>525</ele>
        <time>2016-04-28T12:42:39Z</time>
      </trkpt>
      <trkpt lat="44.37191" lon="3.53342">
        <ele>526</ele>
        <time>2016-04-28T12:42:45Z</time>
      </trkpt>
      <trkpt lat="44.3718" lon="3.53343">
        <ele>527</ele>
        <time>2016-04-28T12:43:02Z</time>
      </trkpt>
      <trkpt lat="44.37171" lon="3.53341">
        <ele>526</ele>
        <time>2016-04-28T12:43:10Z</time>
      </trkpt>
      <trkpt lat="44.37164" lon="3.53355">
        <ele>525</ele>
        <time>2016-04-28T12:43:20Z</time>
      </trkpt>
      <trkpt lat="44.37161" lon="3.53355">
        <ele>523</ele>
        <time>2016-04-28T12:44:22Z</time>
      </trkpt>
    </trkseg>
  </trk>
</gpx>